[[{"header":{"parameterUnit":"m.s-1","parameterCategory":1,"la1":30.6,"la2":29.2853,"lo1":-89.7004,"lo2":-87.6739,"dy":0.0162,"dx":0.0183,"nx":112,"ny":82,"refTime":"2024-08-22T18:00:00:Z","depth":0,"parameterNumber":2,"parameterNumberName":"U-component_of_WINDS"},"data":[0.0,0.0,0.0,0.0,0.0,0.0,0.0,0.0,0.0,0.0,0.0,0.0,0.0,0.0,0.0,0.0,0.0,0.0,0.0,0.0,0.0,0.0,0.0,0.0,0.0,0.0,0.0,0.0,0.0,0.0,0.0,0.0,0.0,0.0,0.0,0.0,0.0,0.0,0.0,0.0,0.0,0.0,0.0,0.0,0.0,0.0,0.0,0.0,0.0,0.0,0.0,0.0,0.0,0.0,0.0,0.0,0.0,0.0,0.0,0.0,0.0,0.0,0.0,0.0,0.0,0.0,0.0,0.0,0.0,0.0,0.0,0.0,0.0,0.0,0.0,0.0,0.0,0.0,0.0,0.0,0.0,0.0,0.0,0.0,0.0,0.0,0.0,0.0,0.0,0.0,0.0,-3.4424,-3.5651,-3.5963,-3.5114,-3.4211,-3.2268,-2.8971,0.0,0.0,0.0,0.0,0.0,0.0,0.0,0.0,0.0,0.0,0.0,0.0,0.0,0.0,0.0,0.0,0.0,0.0,0.0,0.0,0.0,0.0,0.0,0.0,0.0,0.0,0.0,0.0,0.0,0.0,0.0,0.0,0.0,0.0,0.0,0.0,0.0,0.0,0.0,0.0,0.0,0.0,0.0,0.0,0.0,0.0,0.0,0.0,0.0,0.0,0.0,0.0,0.0,0.0,0.0,0.0,0.0,0.0,0.0,0.0,0.0,0.0,0.0,0.0,0.0,0.0,0.0,0.0,0.0,0.0,0.0,0.0,0.0,0.0,0.0,0.0,0.0,0.0,0.0,0.0,0.0,0.0,0.0,0.0,0.0,0.0,0.0,0.0,0.0,0.0,0.0,0.0,0.0,0.0,0.0,0.0,0.0,0.0,0.0,0.0,0.0,0.0,0.0,0.0,-3.2108,-3.5039,-3.489,-3.4513,-3.4357,-3.3394,-3.1439,-2.8253,0.0,0.0,0.0,0.0,0.0,0.0,0.0,0.0,0.0,0.0,0.0,0.0,0.0,0.0,0.0,0.0,0.0,0.0,0.0,0.0,0.0,0.0,0.0,0.0,0.0,0.0,0.0,0.0,0.0,0.0,0.0,0.0,0.0,0.0,0.0,0.0,0.0,0.0,0.0,0.0,0.0,0.0,0.0,0.0,0.0,0.0,0.0,0.0,0.0,0.0,0.0,0.0,0.0,0.0,0.0,0.0,0.0,0.0,0.0,0.0,0.0,0.0,0.0,0.0,0.0,0.0,0.0,0.0,0.0,0.0,0.0,0.0,0.0,0.0,0.0,0.0,0.0,0.0,0.0,0.0,0.0,0.0,0.0,0.0,0.0,0.0,0.0,0.0,0.0,0.0,0.0,0.0,0.0,0.0,0.0,0.0,0.0,0.0,0.0,0.0,0.0,0.0,0.0,-3.1981,-3.3124,-3.5429,-3.4889,-3.4159,-3.3647,-3.316,-3.1466,-2.8148,-2.7792,0.0,0.0,0.0,0.0,0.0,0.0,0.0,0.0,0.0,0.0,0.0,0.0,0.0,0.0,0.0,0.0,0.0,0.0,0.0,0.0,0.0,0.0,0.0,0.0,0.0,0.0,0.0,0.0,0.0,0.0,0.0,0.0,0.0,0.0,0.0,0.0,0.0,0.0,0.0,0.0,0.0,0.0,0.0,0.0,0.0,0.0,0.0,0.0,0.0,0.0,0.0,0.0,0.0,0.0,0.0,0.0,0.0,0.0,0.0,0.0,0.0,0.0,0.0,0.0,0.0,0.0,0.0,0.0,0.0,0.0,0.0,0.0,0.0,0.0,0.0,0.0,0.0,0.0,0.0,0.0,0.0,0.0,0.0,0.0,0.0,0.0,0.0,0.0,0.0,0.0,0.0,0.0,0.0,0.0,0.0,0.0,0.0,0.0,0.0,0.0,0.0,0.0,-3.345,-3.3988,-3.5363,-3.4713,-3.3895,-3.3234,-3.2955,-3.1509,-2.8511,-2.7826,0.0,0.0,0.0,0.0,0.0,0.0,0.0,0.0,0.0,0.0,0.0,0.0,0.0,0.0,0.0,0.0,0.0,0.0,0.0,0.0,0.0,0.0,0.0,0.0,0.0,0.0,0.0,0.0,0.0,0.0,0.0,0.0,0.0,0.0,0.0,0.0,0.0,0.0,0.0,0.0,0.0,0.0,0.0,0.0,0.0,0.0,0.0,0.0,0.0,0.0,0.0,0.0,0.0,0.0,0.0,0.0,0.0,0.0,0.0,0.0,0.0,0.0,0.0,0.0,0.0,0.0,0.0,0.0,0.0,0.0,0.0,0.0,0.0,0.0,0.0,0.0,0.0,0.0,0.0,0.0,0.0,0.0,0.0,0.0,0.0,0.0,0.0,0.0,0.0,0.0,0.0,0.0,0.0,0.0,0.0,0.0,0.0,0.0,0.0,0.0,0.0,0.0,-3.2577,-3.3936,-3.4609,-3.3785,-3.325,-3.3364,-3.2463,-3.1148,-2.9408,-2.7653,0.0,0.0,0.0,0.0,0.0,0.0,0.0,0.0,0.0,0.0,0.0,0.0,0.0,0.0,0.0,0.0,0.0,0.0,0.0,0.0,0.0,0.0,0.0,0.0,0.0,0.0,0.0,0.0,0.0,0.0,0.0,0.0,0.0,0.0,0.0,0.0,0.0,0.0,0.0,0.0,0.0,0.0,0.0,0.0,0.0,0.0,0.0,0.0,0.0,0.0,0.0,0.0,0.0,0.0,0.0,0.0,0.0,0.0,0.0,0.0,0.0,0.0,0.0,0.0,0.0,0.0,0.0,0.0,0.0,0.0,0.0,0.0,0.0,0.0,0.0,0.0,0.0,0.0,0.0,0.0,0.0,0.0,0.0,0.0,0.0,0.0,0.0,0.0,0.0,0.0,0.0,0.0,0.0,0.0,0.0,0.0,0.0,0.0,0.0,0.0,0.0,0.0,-3.1564,-3.2924,0.0,-3.344,-3.276,-3.2364,-3.2014,-3.0805,-2.8478,0.0,0.0,0.0,0.0,0.0,0.0,0.0,0.0,0.0,0.0,0.0,0.0,0.0,0.0,0.0,0.0,0.0,0.0,0.0,0.0,0.0,0.0,0.0,0.0,0.0,0.0,0.0,0.0,0.0,0.0,0.0,0.0,0.0,0.0,0.0,0.0,0.0,0.0,0.0,0.0,0.0,0.0,0.0,0.0,0.0,0.0,0.0,0.0,0.0,0.0,0.0,0.0,0.0,0.0,0.0,0.0,0.0,0.0,0.0,0.0,0.0,0.0,0.0,0.0,0.0,0.0,0.0,0.0,0.0,0.0,0.0,0.0,0.0,0.0,0.0,0.0,0.0,0.0,0.0,0.0,0.0,0.0,0.0,0.0,0.0,0.0,0.0,0.0,0.0,0.0,0.0,0.0,0.0,0.0,0.0,0.0,0.0,0.0,0.0,0.0,0.0,0.0,-2.9753,-3.134,-3.2671,0.0,-3.3096,-3.2316,-3.1596,-3.1326,-3.0189,-2.7789,0.0,0.0,0.0,0.0,0.0,0.0,0.0,0.0,0.0,0.0,0.0,0.0,0.0,0.0,0.0,0.0,0.0,0.0,0.0,0.0,0.0,0.0,0.0,0.0,0.0,0.0,0.0,0.0,0.0,0.0,0.0,0.0,0.0,0.0,0.0,0.0,0.0,0.0,0.0,0.0,0.0,0.0,0.0,0.0,0.0,0.0,0.0,0.0,0.0,0.0,0.0,0.0,0.0,0.0,0.0,0.0,0.0,0.0,0.0,0.0,0.0,0.0,0.0,0.0,0.0,0.0,0.0,0.0,0.0,0.0,0.0,0.0,0.0,0.0,0.0,0.0,0.0,0.0,0.0,0.0,0.0,0.0,0.0,0.0,0.0,0.0,0.0,0.0,0.0,0.0,0.0,0.0,0.0,0.0,0.0,0.0,0.0,0.0,0.0,0.0,0.0,0.0,-2.9909,-3.2086,-3.3474,-3.3386,-3.2669,-3.1934,-3.1245,-3.0374,-2.9192,0.0,0.0,0.0,0.0,0.0,0.0,0.0,0.0,0.0,0.0,0.0,0.0,0.0,0.0,0.0,0.0,0.0,0.0,0.0,0.0,0.0,0.0,0.0,0.0,0.0,0.0,0.0,0.0,0.0,0.0,0.0,0.0,0.0,0.0,0.0,0.0,0.0,0.0,0.0,0.0,0.0,0.0,0.0,0.0,0.0,0.0,0.0,0.0,0.0,0.0,0.0,0.0,0.0,0.0,0.0,0.0,0.0,0.0,0.0,0.0,0.0,0.0,0.0,0.0,0.0,0.0,0.0,0.0,0.0,0.0,0.0,0.0,0.0,0.0,0.0,0.0,0.0,0.0,0.0,0.0,0.0,0.0,0.0,0.0,0.0,0.0,0.0,0.0,0.0,0.0,0.0,0.0,0.0,0.0,0.0,0.0,0.0,0.0,0.0,0.0,0.0,0.0,0.0,-2.8782,-3.19,-3.3586,-3.2325,-3.2124,-3.1533,-3.0192,-2.9358,-2.8119,-2.6286,0.0,0.0,0.0,0.0,0.0,0.0,0.0,0.0,0.0,0.0,0.0,0.0,0.0,0.0,0.0,0.0,0.0,0.0,0.0,0.0,0.0,0.0,0.0,0.0,0.0,0.0,0.0,0.0,0.0,0.0,0.0,0.0,0.0,0.0,0.0,0.0,0.0,0.0,0.0,0.0,0.0,0.0,0.0,0.0,0.0,0.0,0.0,0.0,0.0,0.0,0.0,0.0,0.0,0.0,0.0,0.0,0.0,0.0,0.0,0.0,0.0,0.0,0.0,0.0,0.0,0.0,0.0,0.0,0.0,0.0,0.0,0.0,0.0,0.0,0.0,0.0,0.0,0.0,0.0,0.0,0.0,0.0,0.0,0.0,0.0,0.0,0.0,0.0,0.0,0.0,0.0,0.0,0.0,0.0,0.0,0.0,0.0,0.0,0.0,0.0,0.0,0.0,-2.878,-3.1717,-3.3204,-3.1675,-3.1621,-3.1093,-2.9575,-2.9007,-2.7962,-2.6116,0.0,0.0,0.0,0.0,0.0,0.0,0.0,0.0,0.0,0.0,0.0,0.0,0.0,0.0,0.0,0.0,0.0,0.0,0.0,0.0,0.0,0.0,0.0,0.0,0.0,0.0,0.0,0.0,0.0,0.0,0.0,0.0,0.0,0.0,0.0,0.0,0.0,0.0,0.0,0.0,0.0,0.0,0.0,0.0,0.0,0.0,0.0,0.0,0.0,0.0,0.0,0.0,0.0,0.0,0.0,0.0,0.0,0.0,0.0,0.0,0.0,0.0,0.0,0.0,0.0,0.0,0.0,0.0,0.0,0.0,0.0,0.0,0.0,0.0,0.0,0.0,0.0,0.0,0.0,0.0,0.0,0.0,0.0,0.0,0.0,0.0,0.0,0.0,0.0,0.0,0.0,0.0,0.0,0.0,0.0,0.0,0.0,0.0,0.0,0.0,0.0,0.0,-2.9473,-3.1512,-3.2453,-3.1325,-3.119,-3.0643,-2.929,-2.9048,-2.8279,-2.6654,0.0,0.0,0.0,0.0,0.0,0.0,0.0,0.0,0.0,0.0,0.0,0.0,0.0,0.0,0.0,0.0,0.0,0.0,0.0,0.0,0.0,0.0,0.0,0.0,0.0,0.0,0.0,0.0,0.0,0.0,0.0,0.0,0.0,0.0,0.0,0.0,0.0,0.0,0.0,0.0,0.0,0.0,0.0,0.0,0.0,0.0,0.0,0.0,0.0,0.0,0.0,0.0,0.0,0.0,0.0,0.0,0.0,0.0,0.0,0.0,-2.9645,0.0,0.0,0.0,0.0,0.0,0.0,0.0,0.0,0.0,0.0,0.0,0.0,0.0,0.0,0.0,0.0,0.0,0.0,0.0,0.0,0.0,0.0,0.0,0.0,0.0,0.0,0.0,0.0,0.0,0.0,0.0,0.0,0.0,0.0,0.0,0.0,0.0,0.0,0.0,0.0,0.0,-2.9241,-3.103,-3.1913,-3.1134,-3.0622,-3.0001,-2.9121,-2.8312,-2.7391,-2.6351,-2.5307,0.0,0.0,0.0,0.0,0.0,0.0,0.0,0.0,0.0,0.0,0.0,0.0,0.0,0.0,0.0,0.0,0.0,0.0,0.0,0.0,0.0,0.0,0.0,0.0,0.0,0.0,0.0,0.0,0.0,0.0,0.0,0.0,0.0,0.0,0.0,0.0,0.0,0.0,0.0,0.0,0.0,0.0,0.0,0.0,0.0,0.0,0.0,0.0,0.0,0.0,0.0,0.0,0.0,0.0,0.0,0.0,0.0,0.0,0.0,0.0,-3.0104,0.0,0.0,0.0,0.0,0.0,0.0,0.0,0.0,0.0,0.0,0.0,0.0,0.0,0.0,0.0,0.0,0.0,0.0,0.0,0.0,0.0,0.0,0.0,0.0,0.0,0.0,0.0,0.0,0.0,0.0,0.0,0.0,0.0,0.0,0.0,0.0,0.0,0.0,0.0,0.0,-2.9116,-3.0598,-3.129,-3.0553,-3.031,-2.9896,-2.9096,-2.8617,-2.8095,-2.7533,-2.6343,0.0,0.0,0.0,0.0,0.0,0.0,0.0,0.0,0.0,0.0,0.0,0.0,0.0,0.0,0.0,0.0,0.0,0.0,0.0,0.0,0.0,0.0,0.0,0.0,0.0,0.0,0.0,0.0,0.0,0.0,0.0,0.0,0.0,0.0,0.0,0.0,0.0,0.0,0.0,0.0,0.0,0.0,0.0,0.0,0.0,0.0,0.0,0.0,0.0,0.0,0.0,0.0,0.0,-3.1594,-3.1768,-3.1768,-3.1634,-3.1828,-3.2179,-3.0713,-3.0656,-3.1481,0.0,0.0,0.0,0.0,0.0,0.0,0.0,0.0,0.0,0.0,0.0,0.0,0.0,0.0,0.0,0.0,0.0,0.0,0.0,0.0,0.0,0.0,0.0,0.0,0.0,-3.0002,-3.0753,0.0,0.0,0.0,0.0,0.0,0.0,0.0,0.0,0.0,0.0,0.0,0.0,-2.9023,-3.006,-3.05,-2.9942,-2.9984,-2.9793,-2.9151,-2.9114,-2.9062,-2.8893,-2.7545,-2.6557,0.0,0.0,0.0,0.0,0.0,0.0,0.0,0.0,0.0,0.0,0.0,0.0,0.0,0.0,0.0,0.0,0.0,0.0,0.0,0.0,0.0,0.0,0.0,0.0,0.0,0.0,0.0,0.0,0.0,0.0,0.0,0.0,-2.5052,-2.6335,0.0,0.0,0.0,0.0,0.0,0.0,0.0,0.0,0.0,0.0,0.0,0.0,0.0,0.0,-3.309,-3.3018,-3.3041,-3.3123,-3.2394,-3.2058,-3.2022,-3.1376,-3.1148,-3.1177,-3.094,0.0,-3.188,-3.1113,0.0,0.0,0.0,0.0,0.0,0.0,0.0,0.0,0.0,0.0,0.0,0.0,0.0,0.0,0.0,0.0,0.0,0.0,0.0,0.0,0.0,0.0,-3.0477,-3.0432,-3.1079,-3.1823,0.0,-3.1058,-2.9546,-2.8931,0.0,0.0,0.0,0.0,0.0,0.0,0.0,0.0,-2.8951,-2.9068,-2.9297,-2.9768,-2.9383,-2.9088,-2.9094,-2.8894,-2.8802,-2.8879,-2.7881,-2.721,-2.7034,-2.5672,0.0,0.0,0.0,0.0,0.0,0.0,0.0,0.0,0.0,0.0,0.0,0.0,0.0,0.0,0.0,0.0,0.0,0.0,0.0,0.0,0.0,0.0,0.0,0.0,0.0,0.0,0.0,0.0,0.0,-2.4943,-2.6261,-2.7053,-2.8074,-2.8443,0.0,0.0,0.0,0.0,0.0,0.0,0.0,0.0,0.0,-3.2545,-3.2494,-3.2643,-3.3078,-3.2678,-3.2479,-3.2529,-3.1837,-3.1468,-3.1468,-3.1161,-3.0986,-3.0986,-3.0986,-3.1164,-3.1429,-3.1083,-3.0759,-3.0391,0.0,0.0,0.0,0.0,0.0,-2.9625,-3.0268,0.0,0.0,0.0,0.0,0.0,0.0,0.0,0.0,0.0,0.0,0.0,0.0,0.0,0.0,-3.0887,-3.1212,-3.1626,-3.2003,-3.1221,-3.0418,0.0,-2.9973,-2.9398,-2.8197,0.0,0.0,0.0,0.0,0.0,-2.8972,-2.8967,-2.9108,-2.9724,-2.932,-2.9013,-2.899,-2.8959,-2.892,-2.8904,-2.8482,-2.8132,-2.7878,-2.6895,-2.5932,0.0,0.0,0.0,0.0,0.0,0.0,0.0,0.0,0.0,0.0,0.0,0.0,0.0,0.0,0.0,0.0,0.0,0.0,0.0,0.0,0.0,0.0,0.0,0.0,0.0,0.0,0.0,0.0,-2.6327,-2.7379,-2.8077,-2.8852,-2.9039,0.0,0.0,0.0,0.0,0.0,0.0,-3.1707,-3.255,-3.3129,-3.337,-3.3269,-3.3126,-3.2921,-3.2346,-3.1941,-3.1797,-3.1261,-3.0986,-3.0986,-3.0986,-3.0986,-3.0986,-3.0986,-3.0986,-3.0985,-3.0944,-3.0952,-3.0899,-3.0883,-3.0847,-3.0901,-3.1357,-3.0975,-3.0392,-3.1286,-3.1019,-3.0244,-2.9849,0.0,-2.8717,-2.8114,0.0,0.0,0.0,0.0,-3.0127,-2.9948,0.0,-3.1052,-3.0661,-3.0675,-3.0823,-3.0971,-3.0766,-3.0588,0.0,-3.0843,-3.047,-2.9112,0.0,0.0,0.0,0.0,-2.8003,-2.9014,-2.8967,-2.903,-2.9489,-2.9273,-2.9075,-2.9013,-2.8943,-2.8873,-2.8811,-2.863,-2.8383,-2.8024,-2.7528,-2.6786,-2.5774,0.0,0.0,0.0,0.0,0.0,0.0,0.0,0.0,0.0,0.0,0.0,0.0,0.0,0.0,0.0,0.0,0.0,0.0,0.0,0.0,0.0,0.0,0.0,0.0,0.0,0.0,0.0,0.0,0.0,-2.9839,-3.0831,0.0,0.0,0.0,0.0,-3.1621,-3.2935,-3.3563,-3.3207,-3.3766,-3.3967,-3.3589,-3.3603,-3.3549,-3.3548,-3.2947,-3.2385,-3.1797,-3.1261,-3.0986,-3.0986,-3.0986,-3.0986,-3.0986,-3.0986,-3.0986,-3.0986,-3.0998,-3.0972,-3.0972,-3.0983,-3.097,-3.097,-3.1033,-3.0996,-3.0983,-3.0998,-3.0998,-3.0934,-3.0908,-3.0516,-2.996,-2.9725,-2.9457,0.0,0.0,-3.0006,-3.0336,-3.016,-3.027,-3.0283,-2.9555,-2.9375,-2.9542,-3.0056,-2.9693,-2.9509,0.0,-3.0341,-3.0147,-2.955,0.0,-2.9573,-2.9547,-2.9269,-2.9078,-2.9022,-2.8839,-2.874,-2.8841,-2.9006,-2.9144,-2.9282,-2.8701,-2.84,-2.8511,-2.7913,-2.7388,-2.6979,-2.6949,-2.641,-2.5354,-2.5154,0.0,0.0,0.0,0.0,0.0,0.0,0.0,0.0,0.0,0.0,0.0,0.0,0.0,0.0,0.0,0.0,0.0,0.0,0.0,0.0,0.0,0.0,0.0,0.0,0.0,0.0,0.0,0.0,-3.0009,-3.0586,0.0,-3.0091,-3.1032,-3.1666,-3.1593,-3.2558,-3.3238,-3.3501,-3.3712,-3.3907,-3.4097,-3.411,-3.411,-3.411,-3.3548,-3.2973,-3.2385,-3.181,-3.1339,-3.0986,-3.0986,-3.0986,-3.0986,-3.0986,-3.0986,-3.0986,-3.0986,-3.0986,-3.0986,-3.0986,-3.0986,-3.0986,-3.0986,-3.0986,-3.0986,-3.0986,-3.0986,-3.0986,-3.0986,-3.0693,-3.0235,-2.9786,-2.9823,-2.9964,-2.9709,-2.9941,-3.0197,-3.027,-3.0102,-2.9843,-2.9737,-2.9302,-2.8952,-2.9162,-2.8605,-2.8159,-2.8458,-2.9131,-2.9491,-2.8957,-2.8831,-2.8825,-2.8808,-2.8139,-2.769,-2.7998,-2.7565,-2.7318,-2.7555,-2.7715,-2.7898,-2.8134,-2.7923,-2.7815,-2.7839,-2.764,-2.7312,-2.6927,-2.6823,-2.6287,-2.5244,-2.472,-2.4,0.0,0.0,0.0,0.0,0.0,0.0,0.0,0.0,0.0,0.0,0.0,0.0,0.0,0.0,0.0,0.0,0.0,0.0,0.0,0.0,0.0,0.0,0.0,0.0,0.0,0.0,-2.9346,-2.9877,-3.0398,-3.0662,-3.0477,-3.1151,-3.1759,-3.2168,-3.2712,-3.3247,-3.3835,-3.3862,-3.4031,-3.4384,-3.4397,-3.4397,-3.4397,-3.3862,-3.3287,-3.2685,-3.2071,-3.1497,-3.0986,-3.0986,-3.0986,-3.0986,-3.0986,-3.0986,-3.0986,-3.0986,-3.0986,-3.0986,-3.0986,-3.0986,-3.0986,-3.0986,-3.0986,-3.0986,-3.0986,-3.0949,-3.0911,-3.0911,-3.0672,-3.0329,-2.9995,-3.0111,-3.0278,-2.9652,-2.972,-2.985,-2.946,-2.9213,-2.9048,-2.8955,-2.8591,-2.8281,-2.8281,-2.7878,-2.749,-2.749,-2.8157,-2.8666,-2.8522,-2.8422,-2.8455,-2.8723,-2.7782,-2.7187,-2.758,-2.6861,-2.6424,-2.6715,-2.6857,-2.7012,-2.7181,-2.7119,-2.7041,-2.6923,-2.686,-2.6613,-2.6215,-2.604,-2.5618,-2.4894,-2.4361,-2.3972,-2.3667,0.0,0.0,0.0,0.0,0.0,0.0,0.0,0.0,0.0,0.0,0.0,0.0,0.0,0.0,0.0,0.0,0.0,0.0,0.0,0.0,0.0,0.0,0.0,-2.6861,-2.8001,-2.8988,-2.9602,-3.0419,-3.1171,-3.1745,-3.1823,-3.2306,-3.3509,-3.3613,-3.3849,-3.4371,-3.4397,-3.4397,-3.4397,-3.4397,-3.4397,-3.4397,-3.3875,-3.33,-3.2685,-3.2098,-3.1523,-3.0986,-3.0986,-3.0986,-3.0986,-3.0986,-3.0986,-3.0986,-3.0986,-3.0986,-3.0949,-3.0986,-3.0986,-3.0986,-3.0986,-3.0986,-3.0949,-3.0949,-3.0798,-3.0622,-3.0622,-3.0495,-3.0355,-3.0355,-3.0368,-3.0215,-2.9528,-2.9461,-2.9254,-2.7725,-2.7714,-2.7881,-2.7169,-2.7255,-2.7503,-2.7503,-2.749,-2.749,-2.749,-2.749,-2.7723,-2.8352,-2.8481,-2.8693,-2.9348,-2.8434,0.0,-2.7823,-2.6833,-2.6199,-2.633,-2.6462,-2.6556,-2.6584,-2.6375,-2.6149,-2.5823,-2.5591,-2.5271,-2.4847,-2.4635,-2.4463,-2.4345,-2.4223,-2.4465,-2.5031,0.0,0.0,0.0,0.0,0.0,0.0,0.0,0.0,0.0,0.0,0.0,0.0,0.0,0.0,0.0,0.0,0.0,0.0,0.0,0.0,0.0,-2.4985,-2.5835,-2.6613,-2.7498,-2.834,-2.9112,-2.9679,-3.0522,-3.1707,-3.2215,-3.2777,-3.3535,-3.3953,-3.4241,-3.4384,-3.4397,-3.4397,-3.4397,-3.4397,-3.4397,-3.4397,-3.4254,-3.3679,-3.2685,-3.2529,-3.194,-3.0986,-3.0986,-3.0986,-3.0986,-3.0986,-3.0986,-3.0986,-3.0986,-3.0621,-3.0101,-3.0748,-3.0986,-3.0986,-3.0849,-3.0292,-2.9639,-2.9639,-2.9186,-2.8612,-2.8612,-2.8743,-2.903,-2.9355,-2.9703,-2.9973,-3.0075,-2.9548,-2.8856,-2.8428,-2.7809,-2.7259,-2.7037,-2.7079,-2.7146,-2.7146,-2.7335,-2.749,-2.749,-2.7736,-2.7901,-2.7776,-2.7776,-2.7875,-2.8222,0.0,0.0,-2.6587,-2.5461,-2.4766,-2.4993,-2.5064,-2.5339,-2.6019,-2.5646,-2.5507,0.0,-2.5406,-2.518,-2.5234,-2.5189,-2.524,-2.5389,-2.5495,-2.5554,0.0,0.0,0.0,0.0,0.0,0.0,0.0,0.0,0.0,0.0,0.0,0.0,0.0,0.0,0.0,0.0,0.0,0.0,0.0,0.0,0.0,0.0,-2.4776,-2.5158,-2.5804,-2.6569,-2.7296,-2.7888,-2.8521,-2.9345,-3.0522,-3.1569,-3.2386,-3.3019,-3.3627,-3.4147,-3.4535,-3.4189,-3.4147,-3.4577,-3.4452,-3.4397,-3.4397,-3.4175,-3.36,-3.2685,-3.245,-3.1707,-3.0596,-3.0508,-3.0317,0.0,-2.9947,-2.9909,-2.9909,-2.9909,-2.9575,0.0,0.0,0.0,0.0,0.0,-2.9108,-2.8545,-2.8545,-2.8176,-2.7654,-2.7654,-2.7775,-2.7907,-2.8199,-2.8345,-2.8414,-2.8325,-2.7678,-2.6968,-2.6639,-2.6186,-2.5779,-2.5779,-2.6139,-2.6496,-2.6496,-2.6918,-2.7302,-2.7302,0.0,0.0,-2.7123,-2.717,-2.7367,-2.7749,-2.6652,-2.5855,0.0,-2.5118,-2.4449,-2.4434,-2.4363,-2.466,-2.5523,-2.5343,0.0,0.0,0.0,-2.5547,-2.5563,-2.5814,0.0,0.0,0.0,0.0,0.0,0.0,0.0,0.0,-2.7997,-2.8589,0.0,0.0,0.0,0.0,0.0,0.0,0.0,0.0,0.0,0.0,0.0,0.0,0.0,0.0,0.0,0.0,-2.4578,-2.4525,-2.4883,-2.5551,-2.606,-2.64,-2.7157,-2.8015,-2.8886,-3.0319,-3.1451,-3.2026,-3.2814,-3.3598,-3.441,0.0,0.0,0.0,0.0,-3.4147,-3.4147,-3.3602,-3.3031,-3.2474,-3.1876,-3.0984,-2.9871,-2.9704,-2.9328,-2.8752,-2.8518,-2.8386,-2.8347,-2.8347,-2.8176,-2.8004,-2.9096,-2.89,-2.8016,-2.7844,-2.7671,0.0,0.0,0.0,0.0,-2.7139,-2.7069,-2.6935,-2.6935,-2.6726,-2.6363,-2.5709,-2.5135,-2.4573,-2.3931,-2.3934,-2.4108,-2.4108,-2.4862,-2.5603,-2.5603,-2.6195,-2.6726,-2.6726,-2.6744,-2.6608,-2.6242,-2.6531,-2.7012,-2.7492,-2.6508,0.0,-2.5875,-2.5315,-2.4721,-2.4329,0.0,0.0,-2.5212,-2.5349,-2.5588,-2.6144,-2.6215,-2.6104,-2.5766,-2.6337,-2.6887,-2.7411,-2.7822,-2.7865,-2.7496,-2.7804,-2.7763,-2.744,-2.7693,-2.8279,0.0,0.0,0.0,0.0,0.0,0.0,0.0,0.0,0.0,0.0,0.0,0.0,0.0,0.0,0.0,-2.5155,-2.5344,-2.5478,-2.5176,-2.514,-2.5313,-2.5874,-2.6431,-2.7241,-2.8563,-2.9511,-3.0206,-3.0606,-3.1661,-3.2283,-3.2246,-3.2389,0.0,-3.2544,-3.25,-3.2457,-3.2457,-3.1944,-3.1472,-3.1062,0.0,0.0,-2.9277,-2.9238,-2.8964,-2.8466,-2.8426,-2.8215,-2.7924,-2.7924,-2.7481,-2.6883,-2.7804,-2.7924,-2.7626,-2.7585,-2.6964,-2.6182,-2.6182,-2.5704,-2.5062,-2.5062,-2.5505,-2.6027,-2.6027,-2.6269,0.0,-2.6341,-2.5639,-2.4915,-2.4786,-2.4405,-2.4108,-2.4108,-2.4253,-2.4433,-2.4433,-2.4826,-2.5134,-2.5134,-2.5076,-2.4976,-2.4866,-2.5772,-2.644,-2.6203,-2.5594,-2.5162,-2.5192,-2.4665,-2.423,-2.4154,-2.4203,-2.4652,-2.5594,-2.5406,-2.5621,-2.6534,-2.6155,-2.5777,-2.5483,-2.6058,-2.6359,-2.6293,-2.6862,-2.704,-2.6796,-2.731,-2.7654,-2.77,-2.7406,-2.7582,0.0,0.0,0.0,0.0,0.0,0.0,0.0,0.0,0.0,0.0,0.0,-2.419,-2.4329,0.0,-2.5894,-2.591,-2.5885,-2.5802,-2.5585,-2.5279,-2.5047,-2.5158,-2.5348,-2.5844,-2.6652,-2.8141,-2.9122,-2.9291,-3.0531,-3.138,-3.1741,-3.1545,-3.1557,-3.194,-3.1865,-3.1777,-3.1777,-3.0881,-3.0393,-3.021,-2.933,-2.857,-2.7947,-2.7815,-2.7504,-2.6935,-2.6853,-2.6689,-2.6483,-2.6389,-2.6069,-2.5715,-2.6027,-2.6152,-2.6163,-2.6049,-2.5642,-2.5137,-2.5137,-2.4861,-2.4497,-2.4497,-2.4903,-2.5305,-2.4955,-2.4919,-2.4937,-2.4605,-2.3974,-2.3404,-2.3404,-2.3181,-2.2957,-2.2957,-2.3265,-2.3559,-2.3559,-2.3781,-2.3978,-2.4084,-2.3769,-2.346,-2.3368,-2.3874,-2.4377,-2.4668,-2.4141,-2.3935,-2.4444,-2.4136,-2.3828,-2.3631,-2.3968,-2.4392,-2.4855,-2.5364,-2.585,-2.6278,-2.5818,-2.5642,-2.5791,-2.6092,-2.6384,-2.6603,-2.6711,-2.6628,-2.6346,-2.6165,-2.6038,-2.5986,-2.5599,-2.6126,0.0,0.0,0.0,0.0,0.0,0.0,0.0,0.0,-2.1396,-2.2144,-2.3441,-2.462,-2.5093,-2.5658,-2.6179,-2.6609,-2.6422,-2.6173,-2.5996,-2.563,-2.5205,-2.4559,-2.4497,-2.4583,-2.4775,-2.667,-2.7904,-2.7994,-2.9249,-3.0415,-3.1243,-3.0609,-3.0576,-3.13,-3.1089,-3.0909,-3.0847,-2.9742,-2.9129,-2.9066,-2.7976,-2.7139,-2.6618,-2.6453,-2.6049,-2.5411,-2.5158,-2.5073,-2.5031,-2.4903,-2.4818,-2.4775,-2.4583,-2.4615,-2.4786,-2.4583,-2.4497,-2.4497,-2.4497,-2.4497,-2.4497,-2.4497,-2.4595,-2.4577,-2.4065,-2.3617,-2.3207,-2.2644,-2.2159,-2.1807,-2.1807,-2.1807,-2.1807,-2.1807,-2.2289,-2.2777,-2.2777,-2.2856,-2.2932,-2.2984,-2.2486,-2.1981,-2.1674,-2.1526,-2.1857,-2.3051,-2.2713,-2.2606,-2.3425,-2.3376,-2.3175,-2.2838,-2.3401,-2.3867,-2.3983,-2.511,-2.5732,-2.5499,-2.5254,-2.5361,-2.5774,-2.5879,-2.6147,-2.6683,-2.628,-2.5884,-2.5521,-2.4756,-2.4277,-2.4074,-2.394,-2.4712,-2.0077,-1.9809,-1.9299,-1.9591,-1.9376,-1.9514,0.0,0.0,-2.1732,-2.278,-2.3682,-2.4524,-2.5108,-2.5916,-2.6609,-2.6903,-2.7207,-2.7144,-2.6372,-2.6214,-2.5769,-2.4643,-2.4497,-2.4497,-2.454,-2.5376,-2.607,-2.6483,-2.7661,-2.8607,-2.913,-2.9209,-2.9209,-2.9152,-2.8885,-2.8549,-2.8158,-2.75,-2.7108,-2.695,-2.6378,-2.6052,-2.6021,-2.5979,-2.5717,-2.52,-2.4786,-2.4583,-2.4583,-2.454,-2.454,-2.454,-2.4497,-2.4497,-2.454,-2.4497,-2.4497,-2.4497,-2.4497,-2.4497,-2.4497,-2.4497,-2.4271,-2.3981,-2.394,-2.3307,-2.2602,-2.2511,-2.2159,-2.1807,-2.1807,-2.1807,-2.1807,-2.1807,-2.1883,-2.1911,-2.1911,-2.1945,-2.1789,-2.1281,-2.0798,-2.0261,-1.9622,-1.9179,-1.9569,-2.1516,-2.1765,-2.1753,-2.1843,-2.1855,-2.1832,-2.1761,-2.2325,-2.3054,-2.3914,-2.4542,-2.4636,-2.4072,-2.4386,-2.4498,-2.4334,-2.4756,-2.4895,-2.4819,-2.442,-2.3992,-2.351,-2.3594,-2.3594,-2.3614,-2.397,-2.4143,-1.9187,-1.9181,-1.8962,-1.9146,-1.9028,-1.9196,-2.0121,-2.0603,-2.0987,-2.1617,-2.2538,-2.3312,-2.3782,-2.4423,-2.5155,0.0,-2.6536,-2.658,-2.6156,-2.6211,-2.5832,-2.4643,-2.4497,-2.4497,-2.4497,-2.5171,-2.5851,-2.6515,-2.7368,-2.8152,-2.8781,-2.8896,-2.8896,-2.8803,-2.871,-2.853,-2.8324,-2.7304,-2.6742,-2.6636,-2.5572,-2.5094,-2.5094,-2.5094,-2.4956,-2.4786,-2.4583,-2.4497,-2.4497,-2.4497,-2.4497,-2.4497,-2.4497,-2.4497,-2.4497,-2.4497,-2.4497,-2.4497,-2.4497,-2.4497,-2.4456,-2.424,-2.4116,-2.394,-2.3276,-2.2881,-2.2595,-2.2208,-2.1952,-2.1807,-2.1807,-2.1807,-2.1807,-2.1807,-2.1807,-2.1807,-2.1807,-2.1525,-2.1213,-2.1055,-2.058,-2.015,-1.9935,-1.9859,-2.0149,-2.1005,-2.0702,-2.0685,-2.155,-2.1662,-2.1764,-2.1969,-2.2024,-2.2303,-2.2941,-2.3708,-2.4022,-2.3771,-2.3969,-2.4147,-2.4281,-2.43,-2.4169,-2.3925,-2.3411,-2.3063,-2.2866,-2.2939,-2.3153,-2.3491,-2.412,-2.4153,-1.8684,-1.8781,-1.8781,-1.8781,-1.8781,-1.8899,-1.9161,-1.9641,-2.015,-2.0588,-2.1481,-2.2242,-2.2489,-2.2983,-2.3662,-2.4648,-2.5082,-2.5285,-2.5215,-2.5528,-2.5396,-2.4418,-2.4354,-2.4368,-2.4325,-2.4916,-2.567,-2.6649,-2.7171,-2.785,-2.8771,-2.871,-2.871,-2.871,-2.8451,-2.8218,-2.8088,-2.6894,-2.6203,-2.6066,-2.4991,-2.4497,-2.4497,-2.4497,-2.4497,-2.4497,-2.4497,-2.4497,-2.4497,-2.4497,-2.4497,-2.4497,-2.4454,-2.4421,-2.4411,-2.4282,-2.4325,-2.4497,-2.4497,-2.4411,-2.4253,-2.3844,-2.3649,-2.3402,-2.245,-2.2162,-2.2105,-2.1632,-2.1454,-2.1454,-2.1454,-2.1454,-2.1454,-2.1454,-2.1454,-2.1454,-2.1454,-2.1171,-2.0869,-2.0802,-2.0417,-2.0117,-2.0165,-2.0301,-2.0501,-2.0771,-2.0353,-2.0345,-2.1335,-2.1402,-2.1515,-2.1933,-2.1807,-2.1908,-2.2332,-2.3106,-2.358,-2.358,-2.3714,-2.3872,-2.3979,-2.3878,-2.3597,-2.3266,-2.2665,-2.2311,-2.224,-2.224,-2.2501,-2.2954,-2.3618,-2.3849,-1.8773,-1.8781,-1.8781,-1.8781,-1.8781,-1.8781,-1.8843,-1.9105,-1.9578,-2.0169,-2.095,-2.1535,-2.1609,-2.2262,-2.2673,-2.2501,-2.2916,-2.3336,-2.3474,-2.3993,-2.4199,-2.3789,-2.4015,-2.412,0.0,-2.4249,-2.5161,-2.6583,-2.6702,-2.7334,-2.8749,-2.8524,-2.8395,-2.8395,-2.7537,-2.6862,-2.6399,-2.5615,-2.5026,-2.4581,-2.4518,-2.4497,-2.4497,-2.4497,-2.4497,-2.4497,-2.4497,-2.4497,-2.4497,-2.4497,-2.4497,-2.4497,-2.4292,-2.4206,-2.4163,-2.3677,-2.3937,-2.4497,-2.4497,-2.4186,-2.376,-2.334,-2.2657,-2.186,-2.1368,-2.0987,-2.0654,-2.0644,-2.0644,-2.0644,-2.0644,-2.0644,-2.0644,-2.0644,-2.0644,-2.0644,-2.0644,-2.0779,-2.0718,-2.0066,-1.9902,-1.984,-1.9674,-1.9469,-1.971,-2.074,-2.1045,-2.107,-2.0842,-2.0612,-2.0617,-2.1099,-2.1518,-2.2001,-2.2457,-2.2934,-2.3204,-2.3204,-2.3639,-2.3619,-2.2992,-2.3298,-2.3246,-2.2665,-2.198,-2.1551,-2.1351,-2.1351,-2.1405,-2.1575,-2.2243,-2.2767,-1.8414,-1.8645,-1.8735,-1.8411,-1.855,-1.8706,-1.8274,-1.8385,-1.8613,-1.884,-1.9106,-1.924,-1.9327,-1.9694,-2.024,-2.0966,-2.1387,-2.1824,-2.2527,-2.2877,-2.2881,-2.2312,-2.3146,0.0,0.0,0.0,0.0,-2.6048,-2.6357,-2.703,-2.8481,-2.8441,-2.8254,-2.7931,-2.7632,-2.7195,-2.6547,-2.5849,-2.5403,-2.5203,-2.4728,-2.4411,-2.4292,-2.411,-2.4024,-2.397,-2.3202,-2.2833,-2.2804,-2.218,-2.1817,-2.164,-2.1782,-2.1826,-2.1826,-2.18,-2.1933,-2.2189,-2.2658,-2.2429,-2.1725,-2.0937,-2.0497,-2.0101,-1.9268,-1.89,-1.8802,-1.8802,-1.8802,-1.8802,-1.8802,-1.8802,-1.8802,-1.8802,-1.8802,-1.8802,-1.8802,-1.8872,-1.8836,-1.8623,-1.8556,-1.8551,-1.8494,-1.8553,-1.8776,-1.911,-2.0672,-2.1845,-2.1918,-2.1954,-2.1908,-2.1765,-2.2321,-2.2656,-2.2511,-2.3205,-2.365,-2.365,-2.3514,-2.3316,-2.3122,-2.268,-2.1846,-2.0633,-2.0401,-1.9742,-1.8663,-1.9073,-1.935,-1.941,-2.0254,-2.0909,-1.7841,-1.8095,-1.8218,-1.7994,-1.8179,-1.8334,-1.7943,-1.7965,-1.8101,-1.8023,-1.7899,-1.7817,-1.7859,-1.7878,-1.8182,-1.9056,-1.946,-1.9969,-2.088,-2.1263,-2.1391,-2.1075,-2.1891,-2.204,0.0,0.0,0.0,-2.4624,-2.5201,-2.61,-2.7321,-2.7651,-2.7625,-2.7317,-2.6886,-2.6333,-2.5537,-2.4819,-2.4267,-2.3894,-2.3354,-2.3042,-2.2921,-2.2746,-2.2648,-2.2604,-2.1889,-2.1614,-2.1551,-2.0872,-2.0504,-2.0369,-2.0423,-2.0459,-2.0459,-2.0531,-2.0359,-2.0305,-2.1257,-2.1123,-2.04,-1.9488,-1.8991,-1.8642,-1.7737,-1.7471,-1.7471,-1.7471,-1.7471,-1.7471,-1.7471,-1.7471,-1.7471,-1.7471,-1.7471,-1.7471,-1.7471,-1.7552,-1.7584,-1.7584,-1.7584,-1.7624,-1.7785,-1.7997,-1.8201,-1.8304,-1.9679,-2.0759,-2.0843,-2.0974,-2.0949,-2.063,-2.1157,-2.1424,-2.1142,-2.1816,-2.2295,-2.2399,-2.2042,-2.1734,-2.1617,-2.0968,-2.0021,-1.8798,-1.8789,-1.826,-1.7172,-1.7647,-1.7863,-1.7962,-1.8547,-1.9099,-1.7216,-1.7318,-1.738,-1.7628,-1.7675,-1.7682,-1.7628,-1.7854,-1.7939,-1.7652,-1.7452,-1.7272,-1.723,-1.6904,-1.671,-1.7004,-1.7367,-1.7888,-1.87,-1.9264,-1.976,0.0,0.0,0.0,0.0,0.0,0.0,-2.2209,0.0,-2.4545,-2.546,-2.6091,-2.6429,-2.6388,-2.5364,-2.4286,-2.3294,-2.2618,-2.1845,-2.089,-2.0693,-2.0603,-2.0603,-2.0603,-2.0603,-2.0603,-2.0702,-2.0755,-2.0747,-2.0513,-2.0378,-2.0333,-2.0099,-2.0017,-1.9971,-1.9832,-1.9301,-1.8926,-2.026,-2.0305,-1.9644,-1.8908,-1.8164,-1.7447,-1.6788,-1.6576,-1.6576,-1.6576,-1.6576,-1.6576,-1.6576,-1.6576,-1.6576,-1.6576,-1.6576,-1.6576,-1.6576,-1.6723,-1.6838,-1.6838,-1.6838,-1.696,-1.7358,-1.7584,-1.7782,-1.8029,-1.8087,-1.8053,-1.7959,-1.7957,-1.7957,-1.7957,-1.8363,-1.8619,-1.8619,-1.9039,-1.9402,-1.966,-1.9385,-1.9093,-1.8768,-1.8414,-1.7887,-1.7229,-1.722,-1.709,-1.6838,-1.6854,-1.6956,-1.7165,-1.7181,-1.7413,-1.6834,-1.7242,-1.7535,-1.7261,-1.7448,-1.7488,-1.6737,-1.6925,-1.7095,-1.6401,-1.6829,-1.6985,-1.5997,-1.6556,0.0,-1.6562,-1.6972,0.0,-1.8748,-1.8597,0.0,-1.9146,0.0,-1.9671,-1.8421,-1.933,0.0,0.0,-2.166,-2.3338,-2.4055,-2.4284,-2.4094,-2.358,-2.3261,-2.263,-2.1527,-2.1392,-2.1159,-2.089,-2.0845,-2.0755,-2.0584,-2.0404,-2.0314,-2.0268,-1.9413,-1.9055,-1.8964,-1.7994,-1.749,-1.7311,-1.7264,-1.7358,-1.7537,-1.7699,-1.7699,-1.7738,-1.8095,-1.8095,-1.7803,-1.6833,-1.636,-1.603,-1.5057,-1.4741,-1.4741,-1.4741,-1.4741,-1.4741,-1.4741,-1.4741,-1.4741,-1.4741,-1.4741,-1.4741,-1.4741,-1.4783,-1.4859,-1.4859,-1.4859,-1.4859,-1.4977,-1.5019,-1.5082,-1.5168,-1.5183,-1.598,-1.8153,-1.8591,-1.8718,-1.8718,-1.8963,-1.91,-1.91,-1.9228,-1.9332,-1.9385,-1.8735,-1.828,-1.8204,-1.7499,-1.6696,-1.5884,-1.5884,-1.5553,-1.4859,-1.5043,-1.5155,-1.5239,-1.547,-1.6015,-1.5357,-1.5812,-1.6332,-1.6579,-1.6919,-1.7023,-1.6374,-1.6439,-1.6447,-1.572,-1.5952,-1.6083,-1.5566,-1.5954,-1.6346,0.0,0.0,0.0,-1.8379,-1.8333,-1.8272,0.0,-1.8883,0.0,-1.7701,-1.8506,-1.8878,0.0,-2.0315,-2.1737,-2.2391,-2.2702,-2.2531,-2.1877,-2.174,-2.1131,-2.0005,-1.9542,-1.9314,-1.9314,-1.9231,-1.9147,-1.9018,-1.888,-1.8788,-1.8742,0.0,-1.7924,-1.7878,-1.7106,-1.6643,-1.6359,-1.6359,-1.6447,-1.6636,-1.6878,-1.7113,-1.7279,-1.7279,-1.7279,-1.713,-1.6048,-1.562,-1.5369,-1.439,-1.4088,-1.4088,-1.4088,-1.4088,-1.4088,-1.4088,-1.4088,-1.4088,-1.4088,-1.4088,-1.4088,-1.4088,-1.4088,-1.4088,-1.4088,-1.4088,-1.4088,-1.4088,-1.4088,-1.4088,-1.4088,-1.4088,-1.4704,-1.6425,-1.6769,-1.6846,-1.6846,-1.6966,-1.7008,-1.7008,-1.7008,-1.7071,-1.7177,-1.6611,-1.6327,-1.6472,-1.5883,-1.5311,-1.4824,-1.4824,-1.458,-1.4088,-1.4249,-1.4329,-1.4335,-1.4502,-1.4874,-1.3393,-1.3802,-1.4442,-1.5599,-1.6075,-1.6213,-1.5991,-1.6,-1.5896,-1.5208,-1.5045,-1.5111,-1.5515,-1.5356,-1.5482,-1.6546,0.0,-1.7427,-1.8009,-1.8297,-1.835,-1.813,-1.807,-1.7869,-1.7609,-1.8003,-1.8318,-1.8318,-1.9228,-1.9996,-2.0629,-2.1146,-2.1153,-2.0545,-2.0268,-1.9649,-1.8611,-1.7692,-1.7286,-1.7279,-1.7113,-1.7019,-1.7019,-1.7019,-1.7019,-1.7073,0.0,0.0,-1.7279,-1.7066,-1.6878,-1.6636,-1.6636,-1.6629,-1.6683,-1.6925,-1.7113,-1.7279,-1.7279,-1.7279,-1.713,-1.6048,-1.5524,-1.5185,-1.4341,-1.4088,-1.4088,-1.4088,-1.413,-1.4124,-1.4124,-1.4166,-1.4166,-1.4166,-1.4166,-1.4166,-1.4166,-1.4166,-1.4166,-1.4166,-1.4166,-1.4166,-1.4166,-1.4166,-1.4166,-1.4166,-1.4166,-1.4166,-1.4166,-1.4124,-1.4088,-1.4088,-1.4088,-1.4088,-1.4088,-1.4088,-1.4195,-1.4449,-1.4229,-1.4202,-1.4449,-1.4222,-1.4088,-1.4088,-1.4088,-1.4088,-1.4088,-1.4128,-1.4142,-1.4142,-1.4142,-1.4142,-1.2388,-1.2689,-1.3128,-1.4133,-1.4404,-1.4487,-1.4534,-1.5002,0.0,-1.3986,-1.4711,-1.5429,-1.5097,-1.5554,-1.6157,-1.6614,-1.6975,-1.7546,-1.8612,-1.8346,-1.8244,0.0,-1.8299,-1.7869,-1.7609,0.0,0.0,0.0,0.0,-1.8684,-1.9524,-1.922,-1.8711,-1.8063,-1.7574,-1.7377,-1.7559,-1.72,-1.716,-1.7279,-1.7286,-1.7239,-1.7239,-1.7239,-1.7239,-1.7239,0.0,0.0,-1.7279,-1.7066,-1.6979,-1.6925,-1.6683,-1.6737,-1.6932,-1.6979,-1.7113,-1.7279,-1.7279,-1.7279,-1.713,-1.6048,-1.5665,-1.5464,-1.439,-1.4088,-1.4088,-1.4088,-1.4201,-1.4356,-1.4356,-1.4482,-1.4615,-1.4615,-1.4615,-1.4615,-1.4615,-1.4615,-1.4615,-1.4615,-1.4615,-1.4615,-1.4615,-1.4615,-1.4615,-1.4615,-1.4615,-1.4615,-1.4615,-1.4292,-1.4088,-1.4088,-1.4088,-1.4088,-1.4088,-1.4088,-1.4108,-1.4162,-1.4115,-1.4108,-1.4162,-1.4115,-1.4088,-1.4088,-1.4088,-1.4088,-1.4088,-1.4329,-1.4442,-1.4442,-1.4442,-1.4442,-1.0999,-1.1339,-1.19,-1.2938,-1.3239,-1.331,-1.3385,0.0,0.0,-1.2759,-1.374,-1.4627,-1.4432,-1.5382,-1.6275,-1.6389,-1.6844,-1.7441,-1.8286,-1.8318,-1.8439,-1.8839,-1.8512,-1.8211,0.0,0.0,0.0,0.0,0.0,-1.8698,-1.8848,-1.8149,-1.7583,-1.7258,-1.6709,-1.6588,-1.6911,-1.6824,-1.6824,-1.6958,-1.6958,-1.7012,-1.7153,-1.7153,-1.72,-1.7279,-1.7279,0.0,-1.7279,-1.72,-1.7113,-1.6979,-1.6878,-1.6885,-1.6979,-1.6979,-1.7113,-1.7279,-1.7279,-1.7279,-1.7159,-1.6375,-1.5932,-1.5536,-1.4781,-1.4329,-1.4088,-1.4088,-1.4243,-1.4398,-1.4398,-1.4566,-1.4692,-1.4692,-1.4692,-1.4692,-1.4692,-1.4692,-1.4692,-1.4692,-1.4692,-1.4692,-1.4692,-1.4692,-1.4692,-1.4692,-1.4692,-1.4692,-1.4692,-1.4531,-1.437,-1.4286,-1.4243,-1.4243,-1.4243,-1.4243,-1.4286,-1.4412,-1.4328,-1.4243,-1.4243,-1.4166,-1.4166,-1.4243,-1.4243,-1.4328,-1.4412,-1.4555,-1.4581,-1.4581,-1.4581,-1.4538,-0.9731,-1.0016,-1.0582,-1.1655,-1.1994,-1.2071,-1.2267,-1.2116,0.0,-1.1758,-1.2664,-1.356,-1.3786,-1.476,-1.5644,-1.6014,-1.6415,-1.7027,-1.797,-1.8303,-1.8591,0.0,-1.872,0.0,-1.8502,0.0,0.0,0.0,0.0,0.0,-1.8344,-1.7564,-1.7127,-1.7063,-1.6579,-1.6454,-1.677,-1.673,-1.673,-1.677,-1.677,-1.6871,-1.7066,-1.7066,-1.7153,-1.7279,-1.7279,0.0,0.0,-1.7279,-1.7192,-1.7066,-1.7066,-1.6925,-1.673,-1.673,-1.6723,-1.6655,-1.6655,-1.6655,-1.6572,-1.6156,-1.5969,-1.5737,-1.4922,-1.4398,-1.3998,-1.3714,-1.3815,-1.3971,-1.3971,-1.4139,-1.4265,-1.4265,-1.4265,-1.4265,-1.4265,-1.4216,-1.4174,-1.4174,-1.4132,-1.4132,-1.4132,-1.4132,-1.4132,-1.4132,-1.4132,-1.4132,-1.4132,-1.4193,-1.4122,-1.3844,-1.4223,-1.4482,-1.4482,-1.4482,-1.4524,-1.4692,-1.4566,-1.4482,-1.4482,-1.4286,-1.4243,-1.4482,-1.4398,-1.444,-1.465,-1.4635,-1.467,-1.467,-1.4739,-1.4504,-0.8959,-0.888,-0.9067,-1.0135,-1.0268,-1.0279,-1.0861,0.0,-1.1636,-1.1323,-1.1894,-1.2658,-1.3419,-1.3444,-1.3868,-1.5344,-1.5388,-1.6029,-1.8184,-1.8297,-1.8528,-1.9605,0.0,0.0,0.0,0.0,0.0,0.0,0.0,0.0,0.0,-1.7576,-1.7248,-1.7037,-1.6704,-1.677,-1.7232,-1.7066,-1.7066,-1.7239,-1.7239,-1.7232,-1.7286,-1.7286,-1.7279,-1.7279,0.0,0.0,0.0,-1.7279,-1.7286,-1.7286,-1.7286,-1.6709,-1.5893,-1.5893,-1.5324,-1.4603,-1.4603,-1.4603,-1.4549,-1.453,-1.5384,-1.6116,-1.4507,-1.3973,-1.3679,-1.2514,-1.2357,-1.2577,-1.2577,-1.2729,-1.2887,-1.2887,-1.2887,-1.2887,-1.2887,-1.2668,-1.2498,-1.2498,-1.237,-1.2242,-1.2242,-1.2242,-1.2242,-1.2242,-1.2242,-1.2242,-1.2242,-1.2583,-1.2598,-1.2015,-1.3578,-1.465,-1.465,-1.465,-1.4692,-1.4692,-1.4692,-1.465,-1.465,-1.4482,-1.4482,-1.465,-1.4328,-1.4243,-1.444,-1.4471,-1.4519,-1.4526,-1.4845,-1.4187,-0.874,-0.8814,-0.9073,-0.962,-0.9839,-1.0026,-1.0469,-1.0665,-1.0731,-1.0773,-1.1588,-1.2422,-1.2758,-1.3401,-1.3998,-1.4612,-1.4924,-1.5388,-1.6271,-1.6464,-1.6767,-1.7541,-1.6906,0.0,0.0,0.0,0.0,0.0,0.0,0.0,0.0,-1.699,-1.7245,-1.6751,-1.6636,-1.6676,-1.6864,-1.6824,-1.6824,-1.6864,-1.6864,-1.6629,-1.6143,-1.6143,-1.59,-1.5507,0.0,0.0,0.0,-1.5507,-1.5507,-1.5507,-1.5507,-1.527,-1.4889,-1.4889,-1.4651,-1.4316,-1.4316,-1.4316,-1.4316,-1.4316,-1.4677,-1.4997,-1.397,-1.3426,-1.2972,-1.2361,-1.2374,-1.2464,-1.2037,-1.1895,-1.1841,-1.1841,-1.1841,-1.1841,-1.1841,-1.1755,-1.1712,-1.1712,-1.1621,-1.1584,-1.1584,-1.1584,-1.1584,-1.1584,-1.1668,-1.1718,-1.1718,-1.1887,-1.1957,-1.1731,-1.2613,-1.3157,-1.2899,-1.2887,-1.293,-1.3057,-1.2972,-1.2887,-1.2887,-1.237,-1.2318,-1.278,-1.2165,-1.2146,-1.2786,-1.2657,-1.2569,-1.2569,-1.2717,-1.2257,-0.8752,-0.8957,-0.9224,-0.9465,-0.9698,-0.9972,-1.0351,-1.0267,-1.0238,-1.0548,-1.1284,-1.193,-1.2035,-1.2823,-1.353,-1.3754,-1.4161,-1.4625,-1.5064,-1.5246,-1.5528,0.0,0.0,0.0,0.0,0.0,0.0,0.0,0.0,0.0,0.0,-1.6108,-1.648,-1.5927,-1.5906,-1.5906,-1.5906,-1.5906,-1.5906,-1.5906,-1.5906,-1.5622,-1.5045,-1.5045,-1.4806,-1.4316,0.0,0.0,0.0,-1.4316,-1.4316,-1.4316,-1.4316,-1.4124,-1.3836,-1.3836,-1.3644,-1.3355,-1.3355,-1.3258,-1.3162,-1.3162,-1.306,-1.2839,-1.2443,-1.2323,-1.2173,-1.1493,-1.1418,-1.1435,-1.0845,-1.0605,-1.0509,-1.0509,-1.0509,-1.0509,-1.0509,-1.0423,-1.038,-1.038,-1.0336,-1.0293,-1.0293,-1.0293,-1.0293,-1.0293,-1.0397,-1.0488,-1.0488,-1.0736,-1.0835,-1.0721,-1.106,-1.1415,-1.1701,-1.168,-1.1767,-1.1898,-1.1767,-1.168,-1.168,-1.1154,-1.1056,-1.1529,-1.094,-1.092,-1.1629,-1.1451,-1.1338,-1.1246,-1.1311,-1.0998,-0.8962,-0.9042,-0.9224,-0.9465,-0.9698,-1.003,-1.0426,-1.0355,-1.031,-1.0806,-1.0896,-1.0957,-1.1156,-1.1368,-1.1812,-1.2604,-1.2879,-1.362,-1.5257,-1.5181,-1.5431,0.0,0.0,0.0,0.0,0.0,0.0,0.0,0.0,0.0,0.0,-1.4923,-1.4692,-1.4322,-1.4316,-1.4316,-1.4316,-1.4316,-1.4316,-1.4316,-1.4316,-1.4316,-1.4316,-1.4316,-1.4316,0.0,0.0,0.0,0.0,-1.4316,-1.4316,-1.4316,-1.4316,-1.3644,-1.2727,-1.2727,-1.2106,-1.1243,-1.1243,-1.09,-1.0462,-1.0462,-1.0068,-0.9624,-0.9624,-1.0545,-1.1226,-0.9503,-0.8958,-0.8824,-0.8685,-0.8636,-0.8636,-0.8636,-0.8636,-0.8636,-0.8636,-0.8416,-0.8241,-0.8241,-0.8069,-0.794,-0.794,-0.794,-0.794,-0.794,-0.8042,-0.8151,-0.8151,-0.8667,-0.8854,-0.8402,-0.8767,-0.9737,-1.1548,-1.171,-1.171,-1.171,-1.171,-1.171,-1.171,-1.1487,-1.1487,-1.167,-1.1308,-1.1222,-1.14,-1.1485,-1.1355,-1.1124,-1.138,-1.0867,-0.9379,-0.9405,-0.9541,-0.9877,-1.0267,-1.0626,-1.0739,-1.0852,-1.0922,-1.1085,-1.1099,-1.1118,-1.1184,-1.125,-1.1582,-1.2365,-1.2871,-1.3367,-1.3795,0.0,0.0,-1.4236,-1.4015,0.0,0.0,0.0,0.0,0.0,0.0,0.0,0.0,-1.2673,-1.3084,-1.4274,-1.4316,-1.4316,-1.4316,-1.4316,-1.4316,-1.4316,-1.4316,-1.3932,-1.321,-1.321,0.0,0.0,0.0,0.0,0.0,-1.2155,-1.2155,-1.2155,-1.2155,-1.1965,-1.1673,-1.1673,-1.1238,-1.0659,-1.0659,-1.0314,-0.9875,-0.9875,-0.9727,-0.9529,-0.9175,-0.9624,-1.0074,-0.9415,-0.8859,-0.8432,-0.8425,-0.8138,-0.7912,-0.7912,-0.7912,-0.7912,-0.7912,-0.7869,-0.7777,-0.7777,-0.7643,-0.7608,-0.7668,-0.7598,-0.7608,-0.7671,-0.7814,-0.7912,-0.7912,-0.8136,-0.8245,-0.8098,-0.8234,-0.859,-0.9325,-0.9389,-0.9389,-0.9389,-0.9389,-0.9389,-0.9389,-0.9025,-0.8945,-0.9302,-0.868,-0.859,-0.9094,-0.8909,-0.8686,-0.8438,-0.8087,-0.7769,-0.9762,-0.9785,-0.9926,-1.0221,-1.0608,-1.0915,-1.099,-1.1165,-1.1316,-1.1316,-1.1378,-1.143,-1.143,-1.1496,-1.1671,-1.2082,-1.267,-1.3073,-1.2942,0.0,0.0,-1.3017,0.0,0.0,0.0,0.0,0.0,0.0,0.0,0.0,0.0,0.0,-1.192,-1.3076,-1.3119,-1.3119,-1.3119,-1.3119,-1.3119,-1.3119,-1.3119,-1.278,-1.2106,-1.2106,0.0,0.0,0.0,0.0,0.0,-1.1194,-1.1096,-1.0904,-1.0904,-1.0757,-1.0609,-1.0609,-1.0359,-1.0117,-1.0117,-0.9723,-0.9278,-0.9278,-0.9179,-0.8931,-0.8581,-0.8733,-0.8947,-0.8773,-0.8413,-0.8084,-0.8027,-0.7832,-0.76,-0.76,-0.76,-0.76,-0.76,-0.76,-0.76,-0.76,-0.7522,-0.7489,-0.7584,-0.7519,-0.7489,-0.7587,-0.7719,-0.7811,-0.7811,-0.7894,-0.7988,-0.7988,-0.7988,-0.8062,-0.8158,-0.8188,-0.8188,-0.8188,-0.8188,-0.8188,-0.8188,-0.7907,-0.7859,-0.8098,-0.7654,-0.7648,-0.7988,-0.7643,-0.7341,-0.7185,-0.661,-0.6309,0.0,-1.0087,-1.0254,-1.0464,-1.0705,-1.0948,-1.1151,-1.1364,0.0,-1.1534,-1.169,-1.1822,-1.1836,-1.194,-1.2037,-1.1844,-1.238,0.0,0.0,-1.2902,0.0,0.0,0.0,0.0,0.0,0.0,0.0,0.0,0.0,0.0,0.0,0.0,-1.1194,-1.1194,-1.1194,-1.1194,-1.1194,-1.1194,-1.1194,-1.1194,-1.1194,-1.1194,-1.1194,-1.1194,0.0,0.0,0.0,0.0,0.0,-1.1145,-1.085,-1.0364,-1.0364,-1.0019,-0.9579,-0.9579,-0.9579,-0.9529,-0.9529,-0.9175,-0.8726,-0.8726,-0.8382,-0.7988,-0.7988,-0.7988,-0.7961,-0.7868,-0.7828,-0.7797,-0.7665,-0.7631,-0.7631,-0.7631,-0.7631,-0.7631,-0.7631,-0.7631,-0.7631,-0.7631,-0.7624,-0.7617,-0.7631,-0.7624,-0.7617,-0.7631,-0.7743,-0.7828,-0.7828,-0.7901,-0.7988,-0.7988,-0.7988,-0.7988,-0.7988,-0.7988,-0.7988,-0.7988,-0.7988,-0.7988,-0.7988,-0.7988,-0.7988,-0.7988,-0.7988,-0.7988,-0.7988,-0.7487,-0.7238,-0.7238,-0.6678,-0.6415,-1.0921,0.0,-1.0301,-1.0702,-1.0848,-1.0948,0.0,-1.1364,-1.1562,-1.1713,-1.1784,-1.1869,-1.1982,-1.1916,-1.2104,-1.2909,-1.3041,-1.3069,-1.3166,0.0,0.0,-1.3438,0.0,0.0,0.0,0.0,0.0,0.0,0.0,0.0,0.0,0.0,-1.1194,-1.1194,-1.1194,-1.1194,-1.1194,-1.1194,-1.1194,-1.1194,-1.1194,-1.1194,-1.1194,-1.1194,0.0,0.0,0.0,0.0,-1.0605,-1.0605,-1.0265,-0.9772,-0.9772,-0.9727,-0.9579,-0.9579,-0.9327,-0.8977,-0.8977,-0.863,-0.8187,-0.8187,-0.8088,-0.7988,-0.7988,-0.7988,-0.7982,-0.7944,-0.7934,-0.7928,-0.7894,-0.7887,-0.7887,-0.7887,-0.7887,-0.7887,-0.7887,-0.7887,-0.7887,-0.7887,-0.7841,-0.7797,-0.7867,-0.7838,-0.7801,-0.787,-0.7914,-0.7934,-0.7934,-0.7968,-0.7988,-0.7988,-0.7988,-0.7988,-0.7988,-0.7988,-0.7988,-0.7988,-0.7988,-0.7988,-0.7988,-0.7988,-0.7988,-0.7988,-0.7988,-0.7988,-0.7988,-0.7643,-0.7494,-0.7494,-0.6888,-0.6726,-1.1194,-1.0909,-1.0669,-1.1018,-1.0999,-1.1013,-1.1355,-1.1541,-1.1713,-1.1921,-1.1987,-1.2085,-1.2203,-1.2261,-1.2415,-1.2958,-1.3167,0.0,0.0,0.0,-1.3367,0.0,0.0,0.0,0.0,0.0,0.0,0.0,0.0,0.0,0.0,0.0,-1.1194,-1.1194,-1.1194,-1.1194,-1.1194,-1.1194,-1.1194,-1.1194,-1.1194,-1.1194,-1.1194,-1.1194,0.0,0.0,0.0,0.0,-1.0019,-1.0019,-0.9723,-0.9229,-0.9229,-0.908,-0.8882,-0.8882,-0.8684,-0.8432,-0.8432,-0.8237,-0.7988,-0.7988,-0.7988,-0.7988,-0.7988,-0.7637,-0.7388,-0.7839,-0.7988,-0.7988,-0.7988,-0.7988,-0.7988,-0.7988,-0.7988,-0.7988,-0.7988,-0.7988,-0.7988,-0.7988,-0.7924,-0.7894,-0.7975,-0.7921,-0.7894,-0.7978,-0.7988,-0.7988,-0.7988,-0.7988,-0.7988,-0.7988,-0.7988,-0.7988,-0.7988,-0.754,-0.7487,-0.7988,-0.7988,-0.7988,-0.7988,-0.7988,-0.7988,-0.7988,-0.7988,-0.7988,-0.7988,-0.7746,-0.7596,-0.7593,-0.7115,-0.703,-1.1077,-1.1116,-1.1164,-1.1283,-1.1224,-1.128,-1.1647,-1.174,-1.1879,-1.2043,-1.2194,-1.2321,-1.2306,-1.2589,0.0,0.0,0.0,0.0,-1.3527,-1.3476,-1.3299,0.0,0.0,0.0,0.0,0.0,0.0,0.0,0.0,0.0,0.0,0.0,0.0,-1.1096,-1.1096,-1.1096,-1.1096,-1.1145,-1.1194,-1.1194,-1.1096,-1.1096,-1.1096,-1.0998,0.0,0.0,0.0,0.0,-0.948,-0.948,-0.9175,-0.8676,-0.8676,-0.8283,-0.7739,-0.7739,-0.7637,-0.7487,-0.7487,-0.7487,-0.7487,-0.7487,-0.7487,-0.7487,-0.7487,-0.6886,-0.6334,-0.7235,-0.7487,-0.7487,-0.7487,-0.7487,-0.7487,-0.7487,-0.7487,-0.7487,-0.7487,-0.7487,-0.7487,-0.7487,-0.7487,-0.7487,-0.7487,-0.7487,-0.7487,-0.7487,-0.7487,-0.7487,-0.7487,-0.7487,-0.7487,-0.7487,-0.7487,-0.7487,-0.7487,-0.6684,-0.6534,-0.7434,-0.7487,-0.7487,-0.7487,-0.7487,-0.7487,-0.7487,-0.7487,-0.7487,-0.7487,-0.7441,-0.7394,-0.7394,-0.7291,-0.7288,-1.0553,-1.127,-1.1803,-1.1532,-1.17,-1.1911,-1.1789,-1.1789,-1.1879,-1.2043,-1.1968,-1.1919,-1.1952,-1.2409,-1.2777,0.0,0.0,-1.3111,0.0,0.0,0.0,0.0,0.0,0.0,0.0,0.0,0.0,0.0,0.0,0.0,0.0,0.0,0.0,-1.056,-1.0511,-1.0511,-1.0511,-1.0949,-1.1194,-1.1194,-1.0757,-1.0511,-1.0507,-1.0068,-0.9826,0.0,0.0,-0.9422,-0.8924,-0.8924,-0.863,-0.8137,-0.8137,-0.7537,-0.6637,-0.6637,-0.6082,-0.5275,-0.5275,-0.5275,-0.5275,-0.5275,-0.5275,-0.5275,-0.5275,-0.5175,-0.5074,-0.5225,-0.5275,-0.5275,-0.5275,-0.5275,-0.5275,-0.5275,-0.5275,-0.5275,-0.5275,-0.5275,-0.5275,-0.5275,-0.5275,-0.5275,-0.5275,-0.5275,-0.5275,-0.5275,-0.5275,-0.5275,-0.5275,-0.5275,-0.5275,-0.5275,-0.5275,-0.5275,-0.5275,-0.5125,-0.5127,-0.5277,-0.5275,-0.5275,-0.5275,-0.5275,-0.5275,-0.5275,-0.5275,-0.5275,-0.5275,-0.6184,-0.6587,-0.6587,-0.7244,-0.7643,-0.9307,-0.9927,-1.0423,-1.0225,-1.0729,-1.1304,-1.1368,-1.0467,-0.9981,-1.1156,-1.1117,-1.0858,-1.0779,0.0,-1.1458,-1.1199,0.0,0.0,0.0,0.0,0.0,0.0,0.0,0.0,0.0,0.0,0.0,0.0,0.0,0.0,0.0,0.0,0.0,0.0,-0.941,-0.9106,-0.9106,-0.8749,-0.9201,-1.0314,-1.0068,-0.9969,-0.992,-0.9114,-0.8566,-0.8273,0.0,-0.7123,-0.6623,-0.6623,-0.6476,-0.6279,-0.6279,-0.5979,-0.5529,-0.5529,-0.5227,-0.4824,-0.4824,-0.4824,-0.4824,-0.4824,-0.4824,-0.4824,-0.4824,-0.4475,-0.4126,-0.3974,-0.4375,-0.4824,-0.4824,-0.4824,-0.4824,-0.4824,-0.4824,-0.4824,-0.4824,-0.4824,-0.4824,-0.4824,-0.4824,-0.4824,-0.4824,-0.4824,-0.4824,-0.4824,-0.4824,-0.4824,-0.4824,-0.4824,-0.4824,-0.4824,-0.4824,-0.4824,-0.4824,-0.4275,-0.4175,-0.4774,-0.4824,-0.4824,-0.4824,-0.4824,-0.4824,-0.4824,-0.4824,-0.4824,-0.4824,-0.5277,-0.5557,-0.5613,-0.5969,-0.6222,-0.8256,-0.8713,-0.9183,-0.9273,-0.9753,-1.0336,-1.0493,-0.9111,-0.8273,-0.982,-0.9705,-0.9202,-0.9027,-0.9439,0.0,-0.9329,-1.0595,0.0,0.0,0.0,0.0,0.0,0.0,0.0,0.0,0.0,0.0,0.0,0.0,0.0,0.0,0.0,0.0,0.0,-0.7865,-0.7459,-0.7459,-0.6512,-0.6962,-0.8871,-0.8722,-0.8673,-0.8623,-0.7664,-0.7015,-0.6573,-0.5772,-0.5172,-0.4824,-0.4824,-0.4824,-0.4824,-0.4824,-0.4624,-0.4373,-0.4124,-0.4074,-0.4074,-0.4074,-0.4074,-0.4074,-0.4074,-0.4074,-0.4074,-0.4074,-0.3676,-0.3176,-0.2924,-0.3524,-0.4225,-0.4074,-0.4074,-0.4074,-0.4074,-0.4074,-0.4074,-0.4074,-0.4074,-0.4074,-0.4074,-0.4074,-0.4074,-0.4074,-0.4074,-0.4074,-0.4074,-0.4074,-0.4074,-0.4074,-0.4074,-0.4074,-0.4074,-0.4074,-0.4074,-0.4074,-0.3274,-0.3173,-0.3974,-0.4074,-0.4074,-0.4074,-0.4074,-0.4083,-0.405,-0.4051,-0.4058,-0.4075,-0.4329,-0.4464,-0.4527,-0.4784,-0.4888,-0.7748,-0.8567,-0.932,-0.9859,-0.9646,-0.9248,-0.916,-0.8428,-0.7872,-0.8243,-0.7538,-0.6784,-0.6693,-0.7205,-0.7691,-0.7813,0.0,0.0,0.0,0.0,0.0,0.0,0.0,0.0,0.0,0.0,0.0,0.0,0.0,0.0,0.0,0.0,0.0,0.0,0.0,-0.5772,-0.5772,-0.5222,-0.547,-0.6608,-0.6119,-0.5872,-0.5874,-0.5272,-0.5024,-0.4974,-0.4874,-0.4824,-0.4824,-0.4824,-0.4824,-0.4824,-0.4824,-0.4175,-0.3173,-0.2221,-0.1818,-0.1818,-0.1818,-0.1818,-0.1818,-0.1818,-0.1818,-0.1818,-0.1818,-0.197,-0.2071,-0.1768,-0.2119,-0.2471,-0.1969,-0.1818,-0.1818,-0.1818,-0.1818,-0.1818,-0.1818,-0.1818,-0.1818,-0.1818,-0.1818,-0.1818,-0.1818,-0.1818,-0.1818,-0.1818,-0.1818,-0.1818,-0.1818,-0.1818,-0.1818,-0.1818,-0.1818,-0.1818,-0.1818,-0.1768,-0.1768,-0.1818,-0.1818,-0.1818,-0.1818,-0.1818,-0.1884,-0.1917,-0.1917,-0.1932,-0.1909,-0.2915,-0.3394,-0.3451,-0.4454,-0.4874,-0.6393,-0.6713,-0.6961,-0.6988,-0.6516,-0.6338,-0.7562,-0.6509,-0.5532,-0.644,-0.6217,-0.5835,-0.576,0.0,-0.5223,-0.5306,0.0,0.0,0.0,0.0,0.0,0.0,0.0,0.0,0.0,0.0,0.0,0.0,0.0,0.0,0.0,0.0,0.0,0.0,0.0,-0.4124,-0.4124,-0.3224,-0.3022,-0.342,-0.4574,-0.5125,-0.5074,-0.4223,-0.3823,-0.3775,-0.3123,-0.2822,-0.2822,-0.2822,-0.2822,-0.2822,-0.2822,-0.2572,-0.217,-0.1768,-0.1617,-0.1617,-0.1617,-0.1617,-0.1617,-0.1617,-0.1617,-0.1617,-0.1617,-0.1768,-0.1921,-0.1667,-0.1869,-0.207,-0.1718,-0.1718,-0.1819,-0.1617,-0.1617,-0.1617,-0.1617,-0.1617,-0.1617,-0.1617,-0.1617,-0.1617,-0.1617,-0.1617,-0.1617,-0.1617,-0.1617,-0.1617,-0.1617,-0.1617,-0.1617,-0.1617,-0.1617,-0.1617,-0.1617,-0.1635,-0.1645,-0.1645,-0.1627,-0.1625,-0.1645,-0.1645,-0.1659,-0.1688,-0.1688,-0.1694,-0.1704,-0.2129,-0.2302,-0.2381,-0.2757,-0.2972,-0.5033,-0.501,-0.502,-0.4961,-0.4426,-0.434,-0.5786,-0.4871,-0.3887,-0.4814,-0.474,-0.4499,-0.4436,0.0,0.0,0.0,0.0,0.0,0.0,0.0,0.0,0.0,0.0,0.0,0.0,0.0,0.0,0.0,0.0,0.0,0.0,0.0,0.0,0.0,0.0,0.0,-0.2671,-0.1969,-0.1617,-0.1617,-0.3073,-0.3775,-0.3775,-0.3022,-0.2671,-0.2672,-0.1919,-0.1617,-0.1617,-0.1617,-0.1617,-0.1617,-0.1617,-0.1617,-0.1617,-0.1617,-0.1617,-0.1617,-0.1617,-0.1617,-0.1617,-0.1617,-0.1617,-0.1617,-0.1617,-0.1768,-0.1921,-0.1667,-0.1869,-0.202,-0.1667,-0.1718,-0.1819,-0.1667,-0.1617,-0.1617,-0.1617,-0.1617,-0.1617,-0.1617,-0.1617,-0.1617,-0.1617,-0.1617,-0.1617,-0.1718,-0.1718,-0.1718,-0.1718,-0.1718,-0.1718,-0.1617,-0.1676,-0.1732,-0.1631,-0.1658,-0.1675,-0.1675,-0.1656,-0.1654,-0.1675,-0.1675,-0.1689,-0.1718,-0.1718,-0.1723,-0.1733,-0.1733,-0.1744,-0.1819,-0.1819,-0.1819,-0.3729,-0.3677,-0.3939,-0.4468,-0.4095,-0.3651,-0.4005,-0.3674,-0.3343,-0.3569,-0.3025,-0.2489,-0.2438,-0.2385,0.0,0.0,0.0,0.0,0.0,0.0,0.0,0.0,0.0,0.0,0.0,0.0,0.0,0.0,0.0,0.0,0.0,0.0,0.0,0.0,0.0,0.0,-0.1617,-0.1617,-0.1617,-0.1617,-0.1617,-0.1617,-0.1617,-0.1617,-0.1617,-0.1617,-0.1617,-0.1617,-0.1617,-0.1617,-0.1617,-0.1617,-0.1617,-0.1617,-0.1617,-0.1617,-0.1617,-0.1617,-0.1617,-0.1617,-0.1617,-0.1617,-0.1617,-0.1617,-0.1617,-0.1768,-0.1921,-0.1667,-0.1969,-0.227,-0.1717,-0.1617,-0.1617,-0.1617,-0.1617,-0.1617,-0.1617,-0.1617,-0.1617,-0.1617,-0.1617,-0.1617,-0.1617,-0.1617,-0.1667,-0.1971,-0.2022,-0.2022,-0.2022,-0.2022,-0.1921,-0.1618,-0.1899,-0.1972,-0.1714,-0.1688,-0.1705,-0.1705,-0.1705,-0.1705,-0.1705,-0.1705,-0.1719,-0.1804,-0.1804,-0.182,-0.1795,-0.1795,-0.1795,-0.1795,-0.1795,-0.1795,-0.4151,-0.3988,-0.3779,-0.3725,-0.3155,-0.2644,-0.2523,-0.2707,-0.29,-0.2805,-0.2424,-0.2157,-0.2364,0.0,0.0,0.0,0.0,0.0,0.0,0.0,0.0,0.0,0.0,0.0,0.0,0.0,0.0,0.0,0.0,0.0,0.0,0.0,0.0,0.0,0.0,0.0,-0.1617,-0.1617,-0.1617,-0.1617,-0.1617,-0.1617,-0.1617,-0.1617,-0.1617,-0.1617,-0.1617,-0.1617,-0.1617,-0.1617,-0.1617,-0.1617,-0.1617,-0.1617,-0.1617,-0.1617,-0.1617,-0.1617,-0.1617,-0.1617,-0.1617,-0.1617,-0.1617,-0.1617,-0.1617,-0.1667,-0.1718,-0.1617,-0.1718,-0.1818,-0.1617,-0.1617,-0.1617,-0.1617,-0.1617,-0.1617,-0.1617,-0.1617,-0.1617,-0.1617,-0.1617,-0.1617,-0.1617,-0.1617,-0.1617,-0.1718,-0.187,-0.2071,-0.2271,-0.2144,-0.2058,-0.1955,-0.1882,-0.1797,-0.1692,-0.1719,-0.179,-0.179,-0.1756,-0.1759,-0.1791,-0.179,-0.1805,-0.1781,-0.1781,-0.1786,-0.1795,-0.1795,-0.1795,-0.1795,-0.1795,-0.1795,-0.3592,-0.3353,-0.3109,-0.2986,-0.2613,-0.2256,-0.2048,-0.2318,-0.2608,-0.2624,-0.2313,-0.2176,-0.2338,-0.2182,0.0,0.0,0.0,0.0,0.0,0.0,0.0,0.0,0.0,0.0,0.0,0.0,0.0,0.0,0.0,0.0,0.0,0.0,0.0,0.0,0.0,0.0,-0.1617,-0.1617,-0.1617,-0.1617,-0.1617,-0.1617,-0.1617,-0.1617,-0.1617,-0.1617,-0.1617,-0.1617,-0.1617,-0.1617,-0.1617,-0.1617,-0.1617,-0.1617,-0.1617,-0.1617,-0.1617,-0.1617,-0.1617,-0.1617,-0.1617,-0.1617,-0.1617,-0.1617,-0.1617,-0.1617,-0.1617,-0.1617,-0.1617,-0.1617,-0.1617,-0.1617,-0.1617,-0.1718,-0.1768,-0.1768,-0.1919,-0.1919,-0.1869,-0.1768,-0.1779,-0.1787,-0.1635,-0.1644,-0.1652,-0.1806,-0.1961,-0.2116,-0.2269,-0.2186,-0.2044,-0.1939,-0.1917,-0.183,-0.1722,-0.175,-0.1823,-0.1823,-0.1785,-0.1787,-0.1823,-0.1823,-0.1776,-0.1795,-0.1795,-0.1795,-0.1795,-0.1795,-0.1795,-0.1795,-0.1795,-0.1795,-0.2488,-0.2318,-0.231,-0.2449,-0.2411,-0.2344,-0.2309,-0.2356,-0.2421,-0.2746,0.0,-0.2336,-0.2298,0.0,0.0,0.0,0.0,0.0,0.0,0.0,0.0,0.0,0.0,0.0,0.0,0.0,0.0,0.0,0.0,0.0,0.0,0.0,0.0,0.0,0.0,0.0,-0.1617,-0.1617,-0.1617,0.0,-0.1617,-0.1617,-0.1617,-0.1617,-0.1617,-0.1617,-0.1617,-0.1617,-0.1617,-0.1617,-0.1617,-0.1617,-0.1617,-0.1617,-0.1617,-0.1617,-0.1617,-0.1617,-0.1617,-0.1617,-0.1617,-0.1617,-0.1617,-0.1617,-0.1617,-0.1617,-0.1617,-0.1617,-0.1617,-0.1617,-0.1617,-0.1667,-0.1718,-0.2021,-0.2022,-0.2071,-0.2321,-0.2422,-0.2321,-0.2071,-0.205,-0.2023,-0.1766,-0.1738,-0.1811,-0.2077,-0.2077,-0.2131,-0.2131,-0.2133,-0.2029,-0.1762,-0.2007,-0.2083,-0.1809,-0.1779,-0.1795,-0.1795,-0.1795,-0.1795,-0.1795,-0.1795,-0.1795,-0.1795,-0.1795,-0.1795,-0.1795,-0.1795,-0.1795,-0.1795,-0.1795,-0.1795,-0.3103,-0.3011,-0.2836,-0.2971,-0.2832,-0.26,-0.2591,-0.262,-0.2542,-0.2379,-0.2268,-0.2257,0.0,0.0,0.0,0.0,0.0,0.0,0.0,0.0,0.0,0.0,0.0,0.0,0.0,0.0,0.0,0.0,0.0,0.0,0.0,0.0,0.0,0.0,0.0,-0.1617,-0.1617,-0.1617,-0.1617,0.0,-0.1617,-0.1617,-0.1617,-0.1617,-0.1617,-0.1617,-0.1617,-0.1617,-0.1617,-0.1617,-0.1617,-0.1617,-0.1617,-0.1617,-0.1617,-0.1617,-0.1617,-0.1617,-0.1617,-0.1617,-0.1617,-0.1617,-0.1617,-0.1617,-0.1617,-0.1617,-0.1617,-0.1617,-0.1768,-0.1921,-0.1921,-0.207,-0.2321,-0.2574,-0.2323,-0.2071,-0.2321,-0.2422,-0.2371,-0.2321,-0.2202,-0.2074,-0.2023,-0.1842,-0.1811,-0.2077,-0.2077,-0.2184,-0.2398,-0.2265,-0.2175,-0.2121,-0.1988,-0.1841,-0.1785,-0.1791,-0.1795,-0.1795,-0.1795,-0.1795,-0.1795,-0.1795,-0.1795,-0.1795,-0.1795,-0.1795,-0.1795,-0.1795,-0.1795,-0.1795,-0.1795,-0.1795,-0.3262,-0.3206,-0.3154,-0.3235,-0.3024,-0.2775,-0.2881,-0.2752,-0.2625,-0.2582,-0.248,0.0,0.0,0.0,0.0,0.0,0.0,0.0,0.0,0.0,0.0,0.0,0.0,0.0,0.0,0.0,0.0,0.0,0.0,0.0,0.0,0.0,0.0,0.0,-0.1617,-0.1617,-0.1617,-0.1617,-0.1617,-0.1617,-0.1718,-0.1869,-0.1969,-0.1718,-0.1617,-0.1617,-0.1617,-0.1617,-0.1617,-0.1617,-0.1617,-0.1617,-0.1617,-0.1617,-0.1617,-0.1617,-0.1617,-0.1617,-0.1617,-0.1617,-0.1617,-0.1768,-0.1768,-0.1819,-0.1969,-0.1969,-0.1969,-0.1969,-0.207,-0.2171,-0.2171,-0.2271,-0.2477,-0.2755,-0.261,-0.2507,-0.2762,-0.278,-0.2642,-0.2538,-0.2313,-0.2128,-0.2128,-0.216,-0.224,-0.2349,-0.2404,-0.2458,-0.2567,-0.2478,-0.2436,-0.2436,-0.2289,-0.2244,-0.2244,-0.2244,-0.2244,-0.2244,-0.2244,-0.2132,-0.202,-0.202,-0.1908,-0.1795,-0.1795,-0.1795,-0.1795,-0.1795,-0.1795,-0.1795,-0.1795,-0.1795,-0.3196,-0.3252,-0.334,-0.333,-0.3159,-0.3012,-0.3152,-0.2931,-0.2821,-0.2993,-0.2852,0.0,0.0,0.0,0.0,0.0,0.0,0.0,0.0,0.0,0.0,0.0,0.0,0.0,0.0,0.0,0.0,0.0,0.0,0.0,0.0,0.0,-0.1667,-0.1667,-0.1718,-0.1717,-0.1717,-0.1717,-0.1717,-0.1717,-0.197,-0.2171,-0.2371,-0.1919,-0.1717,-0.1717,-0.1717,-0.1717,-0.1717,-0.1717,-0.1717,-0.1717,-0.1717,-0.1718,-0.1667,-0.1718,-0.1718,-0.1667,-0.1718,-0.1717,-0.1768,-0.2021,-0.2071,-0.2121,-0.2321,-0.2371,-0.2321,-0.2371,-0.2422,-0.2422,-0.2472,-0.2522,-0.2635,-0.2893,-0.2964,-0.3023,-0.3285,-0.3165,-0.2984,-0.2772,-0.254,-0.2354,-0.2306,-0.2501,-0.2693,-0.2693,-0.2693,-0.2693,-0.2693,-0.2693,-0.2693,-0.2693,-0.2693,-0.2693,-0.2693,-0.2693,-0.2693,-0.2693,-0.2693,-0.2581,-0.23,-0.2076,-0.1851,-0.1627,-0.1739,-0.1795,-0.1795,-0.1795,-0.1795,-0.1795,-0.1627,-0.157,-0.3364,-0.3504,-0.362,-0.3569,-0.3593,-0.3541,-0.3472,0.0,-0.3367,0.0,0.0,0.0,0.0,0.0,0.0,0.0,0.0,0.0,0.0,0.0,0.0,0.0,0.0,0.0,0.0,0.0,0.0,0.0,0.0,0.0,0.0,-0.1819,-0.1971,-0.1971,-0.217,-0.227,-0.227,-0.227,-0.227,-0.227,-0.2321,-0.2371,-0.2422,-0.2321,-0.227,-0.227,-0.227,-0.227,-0.227,-0.227,-0.227,-0.227,-0.227,-0.2171,-0.197,-0.2221,-0.2171,-0.197,-0.2221,-0.227,-0.2321,-0.2321,-0.2371,-0.2371,-0.2371,-0.2221,-0.2121,-0.2321,-0.2422,-0.2472,-0.2674,-0.2927,-0.3144,-0.3203,-0.3309,-0.3348,-0.3401,-0.3353,-0.3358,-0.3305,-0.3135,-0.2914,-0.2678,-0.2689,-0.2693,-0.2693,-0.2693,-0.2693,-0.2693,-0.2693,-0.2693,-0.2693,-0.2693,-0.2693,-0.2693,-0.2693,-0.2693,-0.2693,-0.2693,-0.2693,-0.2637,-0.1627,-0.1065,-0.1009,-0.1514,-0.1795,-0.1795,-0.1795,-0.1795,-0.1795,-0.0953,-0.0561,-0.1573,-0.1991,-0.2465,-0.2606,-0.3006,-0.3379,-0.3462,-0.3471,-0.3425,-0.3339,0.0,0.0,0.0,0.0,0.0,0.0,0.0,0.0,0.0,0.0,0.0,0.0,0.0,0.0,0.0,0.0,0.0,0.0,0.0,0.0,-0.207,-0.217,-0.2221,-0.2221,-0.2321,-0.2422,-0.2422,-0.2422,-0.2472,-0.2623,-0.2623,-0.2724,-0.2826,-0.2826,-0.2674,-0.2422,-0.2422,-0.2422,-0.2422,-0.2422,-0.2422,-0.2422,-0.2422,-0.2321,-0.2221,-0.2371,-0.2221,-0.2022,-0.2122,-0.207,-0.1969,-0.2121,-0.2171,-0.2222,-0.2371,-0.2321,-0.2271,-0.2574,-0.2522,-0.2472,-0.2725,-0.2876,-0.2992,-0.3047,-0.2735,-0.2404,-0.2426,-0.2886,-0.3181,-0.3018,-0.3035,-0.3057,-0.2968,-0.3083,-0.3197,-0.3197,-0.3197,-0.3197,-0.3197,-0.3197,-0.3197,-0.3197,-0.3197,-0.2915,-0.2241,-0.2185,-0.1905,-0.1232,-0.1176,-0.112,-0.0952,-0.0448,-0.0056,0.0112,-0.0168,-0.028,-0.028,-0.028,-0.028,-0.028,0.0112,0.0336,-0.0163,-0.0603,-0.1154,-0.1352,-0.1921,-0.2353,-0.2524,0.0,-0.2507,0.0,0.0,0.0,0.0,0.0,0.0,0.0,0.0,0.0,0.0,0.0,0.0,0.0,0.0,0.0,0.0,0.0,0.0,0.0,0.0,0.0,-0.2422,-0.2472,-0.2522,-0.2522,-0.2573,-0.2623,-0.2623,-0.2623,-0.2724,-0.2927,-0.2927,-0.2977,-0.3079,-0.3079,-0.2826,-0.2422,-0.2472,-0.2522,-0.2472,-0.2422,-0.2422,-0.2472,-0.2422,-0.2371,-0.2321,-0.2371,-0.2221,-0.2022,-0.2071,-0.1969,-0.1818,-0.202,-0.2121,-0.2122,-0.2321,-0.2371,-0.2372,-0.2623,-0.2278,-0.193,-0.2184,-0.2038,-0.1849,-0.1883,-0.1433,-0.1022,-0.1204,-0.1831,-0.2241,-0.2074,-0.2185,-0.2296,-0.2296,-0.252,-0.2688,-0.2688,-0.2688,-0.2688,-0.2688,-0.2688,-0.2688,-0.2688,-0.2688,-0.2296,-0.14,-0.1343,-0.0951,-0.0056,0.0,0.0112,0.028,0.0616,0.0896,0.1121,0.1457,0.1346,0.0897,0.0897,0.0897,0.0897,0.1121,0.1233,-0.0103,-0.016,-0.0164,-0.0164,-0.0224,-0.0227,0.0,0.0,0.0,0.0,0.0,0.0,0.0,0.0,0.0,0.0,0.0,0.0,0.0,0.0,0.0,0.0,0.0,0.0,0.0,0.0,0.0,0.0,0.0,0.0,-0.2422,-0.2623,-0.2775,-0.2775,-0.3029,-0.318,-0.318,-0.318,-0.318,-0.318,-0.318,-0.3029,-0.2826,-0.2826,-0.2674,-0.2422,-0.2674,-0.2775,-0.2775,-0.2522,-0.2573,-0.2775,-0.2522,-0.2221,-0.2071,-0.2321,-0.2221,-0.2021,-0.2271,-0.2371,-0.2371,-0.2371,-0.2371,-0.2371,-0.2422,-0.2221,-0.2071,-0.2322,-0.143,-0.0466,-0.0724,0.0052,0.0905,0.0813,0.0816,0.0712,0.0056,-0.0112,-0.0168,-0.0168,-0.0168,-0.0168,-0.0168,-0.0168,-0.0168,-0.0168,-0.0168,-0.0168,-0.0168,-0.0168,-0.0168,-0.0168,-0.0168,-0.0168,-0.0112,-0.0112,-0.0056,0.0,0.0,0.0,0.0,0.1119,0.1735,0.1736,0.2857,0.2634,0.0897,0.0897,0.0897,0.0897,0.1737,0.2128,0.2053,0.1674,0.1221,0.1085,0.0601,0.011,0.0055,0.0055,0.0054,0.0,0.0,0.0,0.0,0.0,0.0,0.0,0.0,0.0,0.0,0.0,0.0,0.0,0.0,0.0,0.0,0.0,0.0,0.0,0.0,0.0,-0.2927,-0.3027,-0.3079,-0.3079,-0.313,-0.318,-0.318,-0.318,-0.313,-0.2927,-0.2927,-0.2422,-0.1513,-0.1513,-0.1008,-0.0101,-0.0201,-0.1108,-0.2522,-0.2422,-0.2472,-0.2522,-0.2422,-0.2321,-0.2271,-0.2371,-0.1816,-0.1009,-0.1059,-0.0508,0.0256,0.0256,0.0256,0.0257,0.0312,0.0362,0.036,0.0156,0.0576,0.1053,0.079,0.1058,0.1495,0.201,0.2128,0.2302,0.2787,0.151,0.028,0.028,0.028,0.028,0.028,0.028,0.028,0.028,0.0112,0.0,0.0,0.0,0.0,0.0,0.0,0.0336,0.1063,0.1175,0.1512,0.224,0.2296,0.2296,0.2296,0.2744,0.2969,0.2969,0.3362,0.3306,0.2634,0.2634,0.2634,0.2634,0.2969,0.3081,0.3212,0.284,0.2403,0.2311,0.1826,0.1343,0.1222,0.0,0.1187,0.0,0.0,0.0,0.0,0.0,0.0,0.0,0.0,0.0,0.0,0.0,0.0,0.0,0.0,0.0,0.0,0.0,0.0,0.0,0.0,0.0,-0.318,-0.318,-0.318,-0.318,-0.318,-0.3029,-0.2674,-0.2674,-0.237,-0.1714,-0.1714,-0.1159,-0.0151,-0.0151,0.0403,0.1359,0.1359,0.0352,-0.1209,-0.1462,-0.1411,-0.1209,-0.1512,-0.1361,-0.1058,-0.1058,-0.0455,0.0305,0.0305,0.0926,0.1775,0.1775,0.1775,0.1779,0.1853,0.1845,0.1727,0.1642,0.2027,0.2412,0.2251,0.253,0.2931,0.3515,0.369,0.3868,0.4637,0.3189,0.1791,0.1791,0.1791,0.1791,0.1791,0.1791,0.1791,0.1791,0.1622,0.151,0.151,0.1399,0.1399,0.151,0.1343,0.1567,0.2464,0.2464,0.2744,0.3531,0.3587,0.3587,0.3587,0.3587,0.3587,0.3587,0.3587,0.3587,0.3587,0.3587,0.3587,0.3587,0.3587,0.3587,0.0,0.0,0.0,0.0,0.0,0.0,0.3557,0.0,0.0,0.0,0.0,0.0,0.0,0.0,0.0,0.0,0.0,0.0,0.0,0.0,0.0,0.0,0.0,0.0,0.0,0.0,0.0,0.0,0.0,-0.2068,-0.3029,-0.313,-0.313,-0.313,-0.313,-0.2623,-0.1563,-0.1563,-0.0907,0.0403,0.0403,0.0705,0.1257,0.1257,0.1409,0.1714,0.1714,0.1562,0.1257,0.0403,0.0504,0.1157,0.0353,0.0706,0.1613,0.1613,0.1682,0.1759,0.1759,0.1833,0.2022,0.2022,0.2022,0.2022,0.2023,0.2023,0.2022,0.2023,0.2801,0.3657,0.3657,0.4536,0.5382,0.5382,0.5382,0.5382,0.5382,0.4931,0.4536,0.4536,0.4536,0.4536,0.4536,0.4536,0.4536,0.4536,0.448,0.448,0.448,0.4203,0.4148,0.4424,0.3977,0.3699,0.398,0.3757,0.3587,0.3587,0.3587,0.3587,0.3587,0.3587,0.3587,0.3587,0.3587,0.3587,0.3587,0.3587,0.3587,0.3587,0.3587,0.3587,0.3164,0.0,0.0,0.0,0.0,0.0,0.0,0.0,0.0,0.0,0.0,0.0,0.0,0.0,0.0,0.0,0.0,0.0,0.0,0.0,0.0,0.0,0.0,0.0,0.0,0.0,0.0,0.0,-0.1865,-0.2219,-0.0958,-0.0907,-0.0907,-0.0907,-0.0907,-0.0756,-0.0454,-0.0454,-0.0151,0.0403,0.0403,0.1108,0.2365,0.2365,0.2919,0.3929,0.3929,0.3877,0.3674,0.1914,0.131,0.1461,0.126,0.1361,0.1613,0.1613,0.2141,0.2952,0.2952,0.354,0.4282,0.4282,0.4282,0.4293,0.4402,0.438,0.4293,0.4404,0.4655,0.4895,0.4895,0.5137,0.5382,0.5382,0.5382,0.5382,0.5382,0.5268,0.5098,0.4817,0.4761,0.4761,0.4761,0.4761,0.4761,0.4761,0.4648,0.448,0.448,0.4424,0.4314,0.4148,0.398,0.3868,0.3699,0.3813,0.3813,0.3587,0.3757,0.3813,0.3587,0.3587,0.3587,0.3587,0.3587,0.3587,0.3587,0.3587,0.3587,0.3587,0.3587,0.3587,0.2918,0.3029,0.0,0.0,0.0,0.0,0.0,0.3409,0.0,0.0,0.0,0.0,0.0,0.0,0.0,0.0,0.0,0.0,0.0,0.0,0.0,0.0,0.0,0.0,0.0,0.0,0.0,0.0,-0.0504,-0.0857,-0.005,0.0,0.0,0.0,0.0,0.0202,0.0655,0.0655,0.1008,0.1714,0.1714,0.2318,0.3476,0.3476,0.3979,0.4784,0.4784,0.4784,0.4684,0.3475,0.2922,0.2871,0.2418,0.2519,0.2924,0.2998,0.3507,0.409,0.4121,0.464,0.5302,0.5302,0.5302,0.5312,0.5365,0.5345,0.5312,0.5367,0.5382,0.5382,0.5382,0.5382,0.5382,0.5382,0.5382,0.5382,0.5212,0.5212,0.5156,0.51,0.5098,0.5098,0.5098,0.5098,0.5098,0.5098,0.4987,0.4873,0.4873,0.4761,0.4582,0.4384,0.4104,0.394,0.394,0.3827,0.3839,0.3976,0.3867,0.3813,0.3757,0.3643,0.3587,0.3587,0.3587,0.3587,0.3587,0.3587,0.3587,0.3587,0.3587,0.3587,0.2524,0.2779,0.0,0.0,0.0,0.0,0.3309,0.3334,0.337,0.0,0.0,0.0,0.0,0.0,0.0,0.0,0.0,0.0,0.0,0.0,0.0,0.0,0.0,0.0,0.0,0.333,0.2885,0.1874,0.1767,0.1361,0.0403,0.0353,0.0353,0.0353,0.0353,0.0806,0.1765,0.1765,0.2371,0.3534,0.3534,0.3836,0.4338,0.4338,0.4537,0.4784,0.4784,0.479,0.4798,0.4798,0.4798,0.4748,0.378,0.3989,0.4823,0.4945,0.5037,0.5135,0.5162,0.5304,0.5382,0.5382,0.5382,0.5382,0.5382,0.5382,0.5382,0.5382,0.5326,0.5326,0.5324,0.5324,0.5324,0.5324,0.5324,0.5212,0.4931,0.4873,0.4931,0.5268,0.5326,0.5382,0.5382,0.5382,0.5382,0.5382,0.5373,0.531,0.531,0.5021,0.4819,0.4691,0.4195,0.3979,0.4254,0.3814,0.3782,0.434,0.3901,0.3735,0.3904,0.368,0.3568,0.3568,0.3568,0.3568,0.3568,0.358,0.3587,0.3587,0.3587,0.3587,0.2482,0.2652,0.2869,0.2583,0.0,0.0,0.2958,0.2927,0.2926,0.0,0.0,0.0,0.0,0.0,0.0,0.0,0.0,0.0,0.0,0.0,0.0,0.0,0.0,0.0,0.0,0.3376,0.3213,0.2995,0.2902,0.2775,0.2573,0.2573,0.2573,0.2573,0.2573,0.2674,0.2876,0.2876,0.3027,0.3281,0.3281,0.3581,0.4085,0.4085,0.4334,0.4784,0.4784,0.4877,0.4945,0.4945,0.4945,0.4939,0.4611,0.472,0.5049,0.4992,0.5077,0.5166,0.5184,0.5304,0.5382,0.5382,0.5382,0.5382,0.5382,0.5382,0.5326,0.5098,0.4987,0.4931,0.4706,0.4648,0.4648,0.4648,0.4648,0.4648,0.4592,0.4592,0.4592,0.4648,0.4873,0.5098,0.5382,0.5382,0.5382,0.5382,0.5151,0.4939,0.4939,0.4611,0.4352,0.4121,0.3959,0.3801,0.359,0.3747,0.3752,0.3605,0.3767,0.3767,0.3501,0.3447,0.3447,0.3447,0.3447,0.3447,0.3447,0.3541,0.3587,0.3587,0.3587,0.3587,0.2176,0.2337,0.2592,0.242,0.0,0.0,0.0,0.0,0.2888,0.2968,0.0,0.0,0.0,0.0,0.0,0.0,0.0,0.0,0.0,0.0,0.0,0.0,0.0,0.0,0.0,0.3443,0.3397,0.3369,0.3493,0.3526,0.3526,0.3683,0.3666,0.3529,0.3478,0.3413,0.318,0.318,0.318,0.318,0.318,0.3481,0.3982,0.3982,0.4282,0.4786,0.4883,0.493,0.5027,0.502,0.5065,0.5098,0.5008,0.5026,0.5108,0.5108,0.5165,0.5196,0.5298,0.5343,0.5382,0.5382,0.5268,0.5156,0.5156,0.5043,0.4929,0.4761,0.4704,0.4648,0.4536,0.448,0.448,0.448,0.448,0.448,0.4314,0.4231,0.4205,0.4205,0.4286,0.4493,0.4865,0.4892,0.4864,0.4864,0.4665,0.453,0.453,0.439,0.4192,0.3892,0.3834,0.3783,0.3628,0.3575,0.3695,0.3834,0.3729,0.3676,0.3623,0.3465,0.3413,0.3413,0.3413,0.3413,0.3413,0.3471,0.35,0.35,0.35,0.35,0.0,0.0,0.0,0.0,0.0,0.2515,0.0,0.0,0.0,0.2975,0.0,0.0,0.0,0.0,0.0,0.0,0.0,0.0,0.0,0.0,0.0,0.0,0.0,0.0,0.0,0.3448,0.3473,0.3417,0.3729,0.3886,0.3886,0.4153,0.4179,0.3909,0.3841,0.3654,0.3299,0.3236,0.318,0.318,0.318,0.3432,0.3934,0.3984,0.4293,0.4766,0.4838,0.494,0.4978,0.4945,0.4972,0.5095,0.5097,0.513,0.5167,0.5168,0.52,0.5227,0.5299,0.5324,0.5268,0.5268,0.5043,0.4817,0.4817,0.4648,0.4479,0.4424,0.4424,0.4369,0.4313,0.4313,0.4313,0.4313,0.4313,0.4254,0.3964,0.3863,0.3822,0.381,0.3808,0.389,0.4285,0.4355,0.4314,0.4314,0.4249,0.4186,0.4186,0.4121,0.3984,0.3718,0.366,0.366,0.366,0.3457,0.3532,0.4057,0.3639,0.3481,0.3742,0.3481,0.3377,0.3377,0.3377,0.3377,0.3377,0.3377,0.339,0.3413,0.3413,0.3413,0.0,0.0,0.0,0.0,0.2409,0.0,0.0,0.0,0.256,0.2632,0.0,0.0,0.0,0.0,0.0,0.0,0.0,0.0,0.0,0.0,0.0,0.0,0.0,0.0,0.0,0.0,0.0,0.3417,0.3729,0.3886,0.3886,0.4153,0.4257,0.4249,0.3972,0.378,0.3719,0.3358,0.318,0.318,0.318,0.3332,0.3635,0.3883,0.4224,0.4602,0.456,0.4644,0.4777,0.4519,0.4459,0.462,0.4959,0.5206,0.5341,0.5217,0.5296,0.5312,0.5041,0.4931,0.4931,0.4704,0.4592,0.4536,0.4536,0.4536,0.4424,0.4148,0.4036,0.398,0.3755,0.3699,0.3699,0.3699,0.3699,0.3684,0.3573,0.3556,0.3537,0.3485,0.3426,0.3559,0.4208,0.4321,0.4314,0.4314,0.4044,0.3847,0.3847,0.354,0.3299,0.3292,0.3292,0.3292,0.3292,0.324,0.3244,0.3301,0.3251,0.3251,0.3301,0.3251,0.3201,0.3201,0.3201,0.3201,0.3201,0.3201,0.3307,0.3413,0.3413,0.3413,0.0,0.0,0.0,0.0,0.0,0.0,0.0,0.0,0.2591,0.0,0.0,0.0,0.0,0.0,0.0,0.0,0.0,0.0,0.0,0.0,0.0,0.0,0.0,0.0,0.0,0.0,0.0,0.0,0.0,0.4223,0.4223,0.4664,0.4807,0.4595,0.4295,0.4045,0.3844,0.3467,0.3283,0.3283,0.3196,0.3332,0.3586,0.3736,0.3975,0.4305,0.4351,0.4434,0.4484,0.4417,0.4453,0.4529,0.4685,0.4812,0.4869,0.4834,0.4843,0.4873,0.4706,0.4648,0.4594,0.4314,0.4203,0.4203,0.4035,0.3977,0.3921,0.3811,0.3757,0.3757,0.3643,0.3587,0.3587,0.3587,0.3587,0.358,0.3555,0.3496,0.344,0.3417,0.3335,0.3328,0.361,0.3666,0.3666,0.3666,0.354,0.3471,0.3471,0.3296,0.318,0.318,0.318,0.318,0.318,0.318,0.318,0.318,0.318,0.318,0.318,0.318,0.318,0.318,0.318,0.318,0.318,0.318,0.3207,0.3307,0.3307,0.3307,0.1962,0.0,0.0,0.0,0.0,0.0,0.0,0.0,0.0,0.0,0.0,0.0,0.0,0.0,0.0,0.0,0.0,0.0,0.0,0.0,0.0,0.0,0.0,0.0,0.0,0.0,0.0,0.0,0.0,0.0,0.4369,0.4875,0.5014,0.4731,0.4438,0.4129,0.3915,0.3533,0.3338,0.332,0.3226,0.3297,0.3485,0.3603,0.38,0.4076,0.4151,0.4226,0.4244,0.4237,0.4257,0.4257,0.4257,0.4257,0.4257,0.4424,0.448,0.4479,0.4369,0.4313,0.4201,0.3979,0.3868,0.3868,0.3643,0.3587,0.3587,0.3587,0.3587,0.3587,0.3587,0.3587,0.3587,0.3587,0.3587,0.3582,0.3567,0.3496,0.3425,0.3394,0.3316,0.3199,0.3183,0.3193,0.3205,0.3205,0.3205,0.3211,0.3227,0.3215,0.3211,0.3228,0.3215,0.3205,0.3205,0.3189,0.318,0.318,0.318,0.318,0.318,0.318,0.318,0.318,0.318,0.318,0.318,0.318,0.318,0.318,0.318,0.318,0.0,0.0,0.0,0.2744,0.0,0.0,0.0,0.0,0.2828,0.0,0.0,0.0,0.0,0.0,0.0,0.0,0.0,0.0,0.0,0.0,0.0,0.0,0.0,0.0,0.0,0.0,0.0,0.0,0.0,0.0,0.4038,0.4314,0.4534,0.4533,0.4132,0.3934,0.3878,0.3546,0.3379,0.3322,0.3319,0.3288,0.3233,0.3545,0.3765,0.3887,0.3901,0.397,0.3977,0.3755,0.3643,0.3643,0.3643,0.3643,0.3699,0.4313,0.448,0.448,0.4148,0.3868,0.3643,0.3643,0.3587,0.3587,0.3587,0.3587,0.3587,0.3587,0.3587,0.3587,0.3587,0.3587,0.3587,0.3587,0.3587,0.3571,0.3512,0.3496,0.3461,0.3346,0.3322,0.33,0.3191,0.3279,0.3319,0.3319,0.3319,0.3339,0.3399,0.3356,0.3341,0.3401,0.3353,0.3319,0.3319,0.3213,0.318,0.318,0.318,0.318,0.318,0.318,0.318,0.318,0.318,0.318,0.318,0.318,0.318,0.318,0.318,0.318,0.0,0.0,0.2616,0.2679,0.0,0.0,0.0,0.0,0.0,0.0,0.0,0.0,0.0,0.0,0.0,0.0,0.0,0.0,0.0,0.0,0.0,0.0,0.0,0.0,0.0,0.0,0.0,0.0,0.0,0.0,0.0,0.4314,0.448,0.448,0.418,0.3947,0.3947,0.3608,0.3439,0.3382,0.3341,0.3289,0.3181,0.3301,0.3396,0.3511,0.3575,0.3583,0.364,0.3627,0.3587,0.3587,0.3587,0.3587,0.3643,0.381,0.3923,0.3867,0.3755,0.3699,0.3587,0.3587,0.3587,0.3587,0.3587,0.3587,0.3587,0.3587,0.3587,0.3587,0.3587,0.3587,0.3587,0.3587,0.3587,0.3582,0.3561,0.3525,0.3473,0.3397,0.3349,0.3301,0.3191,0.3315,0.3368,0.3327,0.3356,0.339,0.341,0.3394,0.339,0.341,0.3358,0.3322,0.3322,0.3215,0.318,0.318,0.318,0.318,0.318,0.318,0.318,0.318,0.318,0.318,0.318,0.318,0.318,0.318,0.318,0.318,0.0966,0.1601,0.0,0.0,0.2775,0.0,0.3022,0.0,0.0,0.0,0.0,0.0,0.0,0.0,0.0,0.0,0.0,0.0,0.0,0.0,0.0,0.0,0.0,0.0,0.0,0.0,0.3531,0.3306,0.0,0.0,0.0,0.0,0.4201,0.4201,0.3979,0.3868,0.3868,0.366,0.35,0.3441,0.3383,0.3322,0.3212,0.3212,0.3285,0.3326,0.3407,0.3463,0.3501,0.3563,0.3587,0.3587,0.3587,0.3587,0.3587,0.3587,0.3587,0.3587,0.3587,0.3587,0.3587,0.3587,0.3587,0.3587,0.3587,0.3587,0.3587,0.3587,0.3587,0.3587,0.3587,0.3587,0.3587,0.3587,0.3587,0.3587,0.3587,0.3556,0.3506,0.3428,0.3382,0.3327,0.3193,0.3313,0.3373,0.3357,0.3403,0.3443,0.3443,0.3443,0.3435,0.3414,0.3377,0.3337,0.3293,0.3203,0.318,0.318,0.318,0.318,0.318,0.318,0.318,0.318,0.318,0.318,0.318,0.318,0.318,0.318,0.318,0.318]},{"header":{"parameterUnit":"m.s-1","parameterCategory":1,"la1":30.6,"la2":29.2853,"lo1":-89.7004,"lo2":-87.6739,"dy":0.0162,"dx":0.0183,"nx":112,"ny":82,"refTime":"2024-08-22T18:00:00:Z","depth":0,"parameterNumber":3,"parameterNumberName":"V-component_of_WINDS"},"data":[0.0,0.0,0.0,0.0,0.0,0.0,0.0,0.0,0.0,0.0,0.0,0.0,0.0,0.0,0.0,0.0,0.0,0.0,0.0,0.0,0.0,0.0,0.0,0.0,0.0,0.0,0.0,0.0,0.0,0.0,0.0,0.0,0.0,0.0,0.0,0.0,0.0,0.0,0.0,0.0,0.0,0.0,0.0,0.0,0.0,0.0,0.0,0.0,0.0,0.0,0.0,0.0,0.0,0.0,0.0,0.0,0.0,0.0,0.0,0.0,0.0,0.0,0.0,0.0,0.0,0.0,0.0,0.0,0.0,0.0,0.0,0.0,0.0,0.0,0.0,0.0,0.0,0.0,0.0,0.0,0.0,0.0,0.0,0.0,0.0,0.0,0.0,0.0,0.0,0.0,0.0,1.679,1.6013,1.5497,1.5588,1.5501,1.5004,1.3935,0.0,0.0,0.0,0.0,0.0,0.0,0.0,0.0,0.0,0.0,0.0,0.0,0.0,0.0,0.0,0.0,0.0,0.0,0.0,0.0,0.0,0.0,0.0,0.0,0.0,0.0,0.0,0.0,0.0,0.0,0.0,0.0,0.0,0.0,0.0,0.0,0.0,0.0,0.0,0.0,0.0,0.0,0.0,0.0,0.0,0.0,0.0,0.0,0.0,0.0,0.0,0.0,0.0,0.0,0.0,0.0,0.0,0.0,0.0,0.0,0.0,0.0,0.0,0.0,0.0,0.0,0.0,0.0,0.0,0.0,0.0,0.0,0.0,0.0,0.0,0.0,0.0,0.0,0.0,0.0,0.0,0.0,0.0,0.0,0.0,0.0,0.0,0.0,0.0,0.0,0.0,0.0,0.0,0.0,0.0,0.0,0.0,0.0,0.0,0.0,0.0,0.0,0.0,0.0,1.5791,1.5418,1.5125,1.4962,1.5028,1.5174,1.4702,1.34,0.0,0.0,0.0,0.0,0.0,0.0,0.0,0.0,0.0,0.0,0.0,0.0,0.0,0.0,0.0,0.0,0.0,0.0,0.0,0.0,0.0,0.0,0.0,0.0,0.0,0.0,0.0,0.0,0.0,0.0,0.0,0.0,0.0,0.0,0.0,0.0,0.0,0.0,0.0,0.0,0.0,0.0,0.0,0.0,0.0,0.0,0.0,0.0,0.0,0.0,0.0,0.0,0.0,0.0,0.0,0.0,0.0,0.0,0.0,0.0,0.0,0.0,0.0,0.0,0.0,0.0,0.0,0.0,0.0,0.0,0.0,0.0,0.0,0.0,0.0,0.0,0.0,0.0,0.0,0.0,0.0,0.0,0.0,0.0,0.0,0.0,0.0,0.0,0.0,0.0,0.0,0.0,0.0,0.0,0.0,0.0,0.0,0.0,0.0,0.0,0.0,0.0,0.0,1.6648,1.5755,1.4857,1.463,1.45,1.4456,1.4548,1.4175,1.3163,1.3368,0.0,0.0,0.0,0.0,0.0,0.0,0.0,0.0,0.0,0.0,0.0,0.0,0.0,0.0,0.0,0.0,0.0,0.0,0.0,0.0,0.0,0.0,0.0,0.0,0.0,0.0,0.0,0.0,0.0,0.0,0.0,0.0,0.0,0.0,0.0,0.0,0.0,0.0,0.0,0.0,0.0,0.0,0.0,0.0,0.0,0.0,0.0,0.0,0.0,0.0,0.0,0.0,0.0,0.0,0.0,0.0,0.0,0.0,0.0,0.0,0.0,0.0,0.0,0.0,0.0,0.0,0.0,0.0,0.0,0.0,0.0,0.0,0.0,0.0,0.0,0.0,0.0,0.0,0.0,0.0,0.0,0.0,0.0,0.0,0.0,0.0,0.0,0.0,0.0,0.0,0.0,0.0,0.0,0.0,0.0,0.0,0.0,0.0,0.0,0.0,0.0,0.0,1.6952,1.6257,1.4558,1.429,1.417,1.3979,1.3988,1.3741,1.3031,1.3161,0.0,0.0,0.0,0.0,0.0,0.0,0.0,0.0,0.0,0.0,0.0,0.0,0.0,0.0,0.0,0.0,0.0,0.0,0.0,0.0,0.0,0.0,0.0,0.0,0.0,0.0,0.0,0.0,0.0,0.0,0.0,0.0,0.0,0.0,0.0,0.0,0.0,0.0,0.0,0.0,0.0,0.0,0.0,0.0,0.0,0.0,0.0,0.0,0.0,0.0,0.0,0.0,0.0,0.0,0.0,0.0,0.0,0.0,0.0,0.0,0.0,0.0,0.0,0.0,0.0,0.0,0.0,0.0,0.0,0.0,0.0,0.0,0.0,0.0,0.0,0.0,0.0,0.0,0.0,0.0,0.0,0.0,0.0,0.0,0.0,0.0,0.0,0.0,0.0,0.0,0.0,0.0,0.0,0.0,0.0,0.0,0.0,0.0,0.0,0.0,0.0,0.0,1.7276,1.7245,1.4336,1.4081,1.3943,1.3564,1.3696,1.3543,1.294,1.2932,0.0,0.0,0.0,0.0,0.0,0.0,0.0,0.0,0.0,0.0,0.0,0.0,0.0,0.0,0.0,0.0,0.0,0.0,0.0,0.0,0.0,0.0,0.0,0.0,0.0,0.0,0.0,0.0,0.0,0.0,0.0,0.0,0.0,0.0,0.0,0.0,0.0,0.0,0.0,0.0,0.0,0.0,0.0,0.0,0.0,0.0,0.0,0.0,0.0,0.0,0.0,0.0,0.0,0.0,0.0,0.0,0.0,0.0,0.0,0.0,0.0,0.0,0.0,0.0,0.0,0.0,0.0,0.0,0.0,0.0,0.0,0.0,0.0,0.0,0.0,0.0,0.0,0.0,0.0,0.0,0.0,0.0,0.0,0.0,0.0,0.0,0.0,0.0,0.0,0.0,0.0,0.0,0.0,0.0,0.0,0.0,0.0,0.0,0.0,0.0,0.0,0.0,1.7182,1.6821,0.0,1.454,1.4244,1.378,1.3754,1.3595,1.3242,0.0,0.0,0.0,0.0,0.0,0.0,0.0,0.0,0.0,0.0,0.0,0.0,0.0,0.0,0.0,0.0,0.0,0.0,0.0,0.0,0.0,0.0,0.0,0.0,0.0,0.0,0.0,0.0,0.0,0.0,0.0,0.0,0.0,0.0,0.0,0.0,0.0,0.0,0.0,0.0,0.0,0.0,0.0,0.0,0.0,0.0,0.0,0.0,0.0,0.0,0.0,0.0,0.0,0.0,0.0,0.0,0.0,0.0,0.0,0.0,0.0,0.0,0.0,0.0,0.0,0.0,0.0,0.0,0.0,0.0,0.0,0.0,0.0,0.0,0.0,0.0,0.0,0.0,0.0,0.0,0.0,0.0,0.0,0.0,0.0,0.0,0.0,0.0,0.0,0.0,0.0,0.0,0.0,0.0,0.0,0.0,0.0,0.0,0.0,0.0,0.0,0.0,1.7178,1.7507,1.7098,0.0,1.5214,1.4855,1.4316,1.4153,1.3917,1.3554,0.0,0.0,0.0,0.0,0.0,0.0,0.0,0.0,0.0,0.0,0.0,0.0,0.0,0.0,0.0,0.0,0.0,0.0,0.0,0.0,0.0,0.0,0.0,0.0,0.0,0.0,0.0,0.0,0.0,0.0,0.0,0.0,0.0,0.0,0.0,0.0,0.0,0.0,0.0,0.0,0.0,0.0,0.0,0.0,0.0,0.0,0.0,0.0,0.0,0.0,0.0,0.0,0.0,0.0,0.0,0.0,0.0,0.0,0.0,0.0,0.0,0.0,0.0,0.0,0.0,0.0,0.0,0.0,0.0,0.0,0.0,0.0,0.0,0.0,0.0,0.0,0.0,0.0,0.0,0.0,0.0,0.0,0.0,0.0,0.0,0.0,0.0,0.0,0.0,0.0,0.0,0.0,0.0,0.0,0.0,0.0,0.0,0.0,0.0,0.0,0.0,0.0,1.7181,1.8292,1.8412,1.66,1.6155,1.5748,1.5155,1.4979,1.4594,0.0,0.0,0.0,0.0,0.0,0.0,0.0,0.0,0.0,0.0,0.0,0.0,0.0,0.0,0.0,0.0,0.0,0.0,0.0,0.0,0.0,0.0,0.0,0.0,0.0,0.0,0.0,0.0,0.0,0.0,0.0,0.0,0.0,0.0,0.0,0.0,0.0,0.0,0.0,0.0,0.0,0.0,0.0,0.0,0.0,0.0,0.0,0.0,0.0,0.0,0.0,0.0,0.0,0.0,0.0,0.0,0.0,0.0,0.0,0.0,0.0,0.0,0.0,0.0,0.0,0.0,0.0,0.0,0.0,0.0,0.0,0.0,0.0,0.0,0.0,0.0,0.0,0.0,0.0,0.0,0.0,0.0,0.0,0.0,0.0,0.0,0.0,0.0,0.0,0.0,0.0,0.0,0.0,0.0,0.0,0.0,0.0,0.0,0.0,0.0,0.0,0.0,0.0,1.7551,1.8884,1.9051,1.6917,1.6412,1.5937,1.5301,1.4959,1.4677,1.4458,0.0,0.0,0.0,0.0,0.0,0.0,0.0,0.0,0.0,0.0,0.0,0.0,0.0,0.0,0.0,0.0,0.0,0.0,0.0,0.0,0.0,0.0,0.0,0.0,0.0,0.0,0.0,0.0,0.0,0.0,0.0,0.0,0.0,0.0,0.0,0.0,0.0,0.0,0.0,0.0,0.0,0.0,0.0,0.0,0.0,0.0,0.0,0.0,0.0,0.0,0.0,0.0,0.0,0.0,0.0,0.0,0.0,0.0,0.0,0.0,0.0,0.0,0.0,0.0,0.0,0.0,0.0,0.0,0.0,0.0,0.0,0.0,0.0,0.0,0.0,0.0,0.0,0.0,0.0,0.0,0.0,0.0,0.0,0.0,0.0,0.0,0.0,0.0,0.0,0.0,0.0,0.0,0.0,0.0,0.0,0.0,0.0,0.0,0.0,0.0,0.0,0.0,1.7853,1.9152,1.9364,1.7467,1.7035,1.6532,1.5725,1.5504,1.5301,1.5078,0.0,0.0,0.0,0.0,0.0,0.0,0.0,0.0,0.0,0.0,0.0,0.0,0.0,0.0,0.0,0.0,0.0,0.0,0.0,0.0,0.0,0.0,0.0,0.0,0.0,0.0,0.0,0.0,0.0,0.0,0.0,0.0,0.0,0.0,0.0,0.0,0.0,0.0,0.0,0.0,0.0,0.0,0.0,0.0,0.0,0.0,0.0,0.0,0.0,0.0,0.0,0.0,0.0,0.0,0.0,0.0,0.0,0.0,0.0,0.0,0.0,0.0,0.0,0.0,0.0,0.0,0.0,0.0,0.0,0.0,0.0,0.0,0.0,0.0,0.0,0.0,0.0,0.0,0.0,0.0,0.0,0.0,0.0,0.0,0.0,0.0,0.0,0.0,0.0,0.0,0.0,0.0,0.0,0.0,0.0,0.0,0.0,0.0,0.0,0.0,0.0,0.0,1.8105,1.9263,1.9596,1.836,1.8008,1.747,1.653,1.6561,1.6409,1.5897,0.0,0.0,0.0,0.0,0.0,0.0,0.0,0.0,0.0,0.0,0.0,0.0,0.0,0.0,0.0,0.0,0.0,0.0,0.0,0.0,0.0,0.0,0.0,0.0,0.0,0.0,0.0,0.0,0.0,0.0,0.0,0.0,0.0,0.0,0.0,0.0,0.0,0.0,0.0,0.0,0.0,0.0,0.0,0.0,0.0,0.0,0.0,0.0,0.0,0.0,0.0,0.0,0.0,0.0,0.0,0.0,0.0,0.0,0.0,0.0,2.4985,0.0,0.0,0.0,0.0,0.0,0.0,0.0,0.0,0.0,0.0,0.0,0.0,0.0,0.0,0.0,0.0,0.0,0.0,0.0,0.0,0.0,0.0,0.0,0.0,0.0,0.0,0.0,0.0,0.0,0.0,0.0,0.0,0.0,0.0,0.0,0.0,0.0,0.0,0.0,0.0,0.0,1.8405,1.9959,2.0823,2.0122,1.9509,1.8883,1.8374,1.8299,1.8173,1.79,1.7556,0.0,0.0,0.0,0.0,0.0,0.0,0.0,0.0,0.0,0.0,0.0,0.0,0.0,0.0,0.0,0.0,0.0,0.0,0.0,0.0,0.0,0.0,0.0,0.0,0.0,0.0,0.0,0.0,0.0,0.0,0.0,0.0,0.0,0.0,0.0,0.0,0.0,0.0,0.0,0.0,0.0,0.0,0.0,0.0,0.0,0.0,0.0,0.0,0.0,0.0,0.0,0.0,0.0,0.0,0.0,0.0,0.0,0.0,0.0,0.0,2.6634,0.0,0.0,0.0,0.0,0.0,0.0,0.0,0.0,0.0,0.0,0.0,0.0,0.0,0.0,0.0,0.0,0.0,0.0,0.0,0.0,0.0,0.0,0.0,0.0,0.0,0.0,0.0,0.0,0.0,0.0,0.0,0.0,0.0,0.0,0.0,0.0,0.0,0.0,0.0,0.0,1.8638,2.0014,2.0809,2.0366,1.9777,1.923,1.885,1.8762,1.8772,1.8835,1.836,0.0,0.0,0.0,0.0,0.0,0.0,0.0,0.0,0.0,0.0,0.0,0.0,0.0,0.0,0.0,0.0,0.0,0.0,0.0,0.0,0.0,0.0,0.0,0.0,0.0,0.0,0.0,0.0,0.0,0.0,0.0,0.0,0.0,0.0,0.0,0.0,0.0,0.0,0.0,0.0,0.0,0.0,0.0,0.0,0.0,0.0,0.0,0.0,0.0,0.0,0.0,0.0,0.0,3.0179,3.0477,3.0477,3.0616,3.1005,3.1484,2.9854,2.9604,3.0268,0.0,0.0,0.0,0.0,0.0,0.0,0.0,0.0,0.0,0.0,0.0,0.0,0.0,0.0,0.0,0.0,0.0,0.0,0.0,0.0,0.0,0.0,0.0,0.0,0.0,2.9936,2.8993,0.0,0.0,0.0,0.0,0.0,0.0,0.0,0.0,0.0,0.0,0.0,0.0,1.921,2.0085,2.0621,2.0434,1.9987,1.9533,1.9158,1.9179,1.9327,1.958,1.8887,1.8768,0.0,0.0,0.0,0.0,0.0,0.0,0.0,0.0,0.0,0.0,0.0,0.0,0.0,0.0,0.0,0.0,0.0,0.0,0.0,0.0,0.0,0.0,0.0,0.0,0.0,0.0,0.0,0.0,0.0,0.0,0.0,0.0,2.7641,2.8929,0.0,0.0,0.0,0.0,0.0,0.0,0.0,0.0,0.0,0.0,0.0,0.0,0.0,0.0,3.1128,3.1402,3.1492,3.1433,3.2323,3.2765,3.28,3.35,3.3844,3.395,3.3691,0.0,3.126,3.0508,0.0,0.0,0.0,0.0,0.0,0.0,0.0,0.0,0.0,0.0,0.0,0.0,0.0,0.0,0.0,0.0,0.0,0.0,0.0,0.0,0.0,0.0,3.3479,3.2563,3.2679,3.2667,0.0,2.8522,2.5968,2.5039,0.0,0.0,0.0,0.0,0.0,0.0,0.0,0.0,2.0794,2.1265,2.1678,2.2027,2.1495,2.1037,2.0896,2.1138,2.1264,2.1126,2.0963,2.0974,2.1264,2.0466,0.0,0.0,0.0,0.0,0.0,0.0,0.0,0.0,0.0,0.0,0.0,0.0,0.0,0.0,0.0,0.0,0.0,0.0,0.0,0.0,0.0,0.0,0.0,0.0,0.0,0.0,0.0,0.0,0.0,2.7581,2.9102,3.0045,2.9714,2.9198,0.0,0.0,0.0,0.0,0.0,0.0,0.0,0.0,0.0,3.319,3.2636,3.2929,3.4253,3.3987,3.3854,3.3832,3.3844,3.3894,3.3894,3.423,3.4414,3.4414,3.4414,3.3935,3.3047,3.2188,3.1713,3.1471,0.0,0.0,0.0,0.0,0.0,3.0745,3.1481,0.0,0.0,0.0,0.0,0.0,0.0,0.0,0.0,0.0,0.0,0.0,0.0,0.0,0.0,3.3633,3.3252,3.275,3.2354,3.0481,2.8552,0.0,2.6518,2.5275,2.3244,0.0,0.0,0.0,0.0,0.0,2.1098,2.1336,2.1736,2.2348,2.1745,2.1273,2.1305,2.138,2.14,2.1388,2.1366,2.1538,2.1928,2.125,2.1047,0.0,0.0,0.0,0.0,0.0,0.0,0.0,0.0,0.0,0.0,0.0,0.0,0.0,0.0,0.0,0.0,0.0,0.0,0.0,0.0,0.0,0.0,0.0,0.0,0.0,0.0,0.0,0.0,2.9175,3.0408,3.1251,3.094,3.0468,0.0,0.0,0.0,0.0,0.0,0.0,3.3267,3.2692,3.3492,3.6099,3.5366,3.5446,3.6562,3.5923,3.5552,3.5392,3.4719,3.4414,3.4414,3.4414,3.4414,3.4414,3.4414,3.4414,3.4337,3.3475,3.312,3.3063,3.219,3.1873,3.1929,3.233,3.2427,3.2521,3.3477,3.3777,3.3663,3.3151,0.0,3.1963,3.1638,0.0,0.0,0.0,0.0,3.1129,3.3115,0.0,3.265,3.3681,3.3111,3.241,3.2566,3.1652,3.0455,0.0,2.8324,2.7017,2.4919,0.0,0.0,0.0,0.0,2.1927,2.1666,2.1533,2.1678,2.2171,2.1612,2.1221,2.1273,2.1368,2.1463,2.1514,2.1721,2.2075,2.2592,2.2242,2.2376,2.3156,0.0,0.0,0.0,0.0,0.0,0.0,0.0,0.0,0.0,0.0,0.0,0.0,0.0,0.0,0.0,0.0,0.0,0.0,0.0,0.0,0.0,0.0,0.0,0.0,0.0,0.0,0.0,0.0,0.0,3.3213,3.3499,0.0,0.0,0.0,0.0,3.3322,3.4255,3.506,3.5611,3.6131,3.6665,3.7222,3.7157,3.7179,3.7259,3.6591,3.5967,3.5392,3.4719,3.4414,3.4414,3.4414,3.4414,3.4414,3.4414,3.4414,3.4414,3.4351,3.4322,3.4322,3.4259,3.4245,3.4245,3.424,3.4274,3.4259,3.4351,3.4351,3.4356,3.4327,3.3891,3.342,3.3524,3.3004,0.0,0.0,3.3325,3.3105,3.3423,3.3324,3.3048,3.268,3.2553,3.2666,3.3307,3.2051,3.0558,0.0,2.9621,2.8922,2.6901,0.0,2.5878,2.4738,2.3754,2.3181,2.3345,2.238,2.1706,2.1733,2.1414,2.1126,2.0935,2.1628,2.199,2.1877,2.2604,2.3237,2.3712,2.3686,2.3676,2.3643,2.3714,0.0,0.0,0.0,0.0,0.0,0.0,0.0,0.0,0.0,0.0,0.0,0.0,0.0,0.0,0.0,0.0,0.0,0.0,0.0,0.0,0.0,0.0,0.0,0.0,0.0,0.0,0.0,0.0,3.3402,3.3379,0.0,3.2481,3.3206,3.3736,3.3805,3.5067,3.6115,3.6721,3.6952,3.7329,3.7868,3.7883,3.7883,3.7883,3.7259,3.662,3.5967,3.5328,3.4806,3.4414,3.4414,3.4414,3.4414,3.4414,3.4414,3.4414,3.4414,3.4414,3.4414,3.4414,3.4414,3.4414,3.4414,3.4414,3.4414,3.4414,3.4414,3.4414,3.4414,3.4389,3.4325,3.3965,3.3932,3.4017,3.3877,3.362,3.339,3.3324,3.2922,3.2497,3.217,3.1907,3.1804,3.2035,3.1353,3.0596,3.0318,2.9644,2.8729,2.7539,2.7359,2.6938,2.5712,2.517,2.4823,2.4445,2.3752,2.3229,2.307,2.2847,2.2592,2.2329,2.2561,2.2725,2.2695,2.2937,2.3327,2.3771,2.3888,2.4246,2.4915,2.4666,2.4583,0.0,0.0,0.0,0.0,0.0,0.0,0.0,0.0,0.0,0.0,0.0,0.0,0.0,0.0,0.0,0.0,0.0,0.0,0.0,0.0,0.0,0.0,0.0,0.0,0.0,0.0,3.339,3.4068,3.3761,3.3389,3.3187,3.3921,3.4583,3.5029,3.6013,3.6925,3.7578,3.7607,3.7796,3.8188,3.8202,3.8202,3.8202,3.7607,3.6968,3.6301,3.5697,3.5058,3.4414,3.4414,3.4414,3.4414,3.4414,3.4414,3.4414,3.4414,3.4414,3.4414,3.4414,3.4414,3.4414,3.4414,3.4414,3.4414,3.4414,3.4448,3.4481,3.4481,3.4668,3.4813,3.4353,3.4563,3.4754,3.4186,3.3815,3.3518,3.308,3.2515,3.198,3.1668,3.1339,3.1067,3.1067,3.0826,3.0598,3.0598,2.9931,2.9171,2.846,2.8422,2.8085,2.6961,2.6422,2.597,2.5495,2.4776,2.4213,2.3949,2.3761,2.3585,2.342,2.3522,2.361,2.3715,2.3816,2.4121,2.4553,2.4711,2.512,2.5892,2.5671,2.5876,2.6575,0.0,0.0,0.0,0.0,0.0,0.0,0.0,0.0,0.0,0.0,0.0,0.0,0.0,0.0,0.0,0.0,0.0,0.0,0.0,0.0,0.0,0.0,0.0,3.4459,3.4425,3.47,3.5357,3.4839,3.4695,3.5334,3.5421,3.5959,3.7215,3.7331,3.7593,3.8173,3.8202,3.8202,3.8202,3.8202,3.8202,3.8202,3.7622,3.6983,3.6301,3.5726,3.5087,3.4414,3.4414,3.4414,3.4414,3.4414,3.4414,3.4414,3.4414,3.4414,3.4448,3.4414,3.4414,3.4414,3.4414,3.4414,3.4448,3.4448,3.4582,3.4765,3.4765,3.485,3.492,3.492,3.4935,3.4835,3.4345,3.4041,3.3652,3.275,3.2092,3.1583,3.1117,3.0807,3.0612,3.0612,3.0598,3.0598,3.0598,3.0598,3.0387,2.9747,2.9623,2.939,2.8652,2.7519,0.0,2.6577,2.5408,2.4485,2.4286,2.4142,2.4069,2.4095,2.4381,2.4652,2.4937,2.5314,2.5716,2.6126,2.6245,2.6406,2.6568,2.6785,2.7171,2.7739,0.0,0.0,0.0,0.0,0.0,0.0,0.0,0.0,0.0,0.0,0.0,0.0,0.0,0.0,0.0,0.0,0.0,0.0,0.0,0.0,0.0,3.6696,3.7154,3.5801,3.5917,3.603,3.5711,3.537,3.5189,3.5369,3.5778,3.6402,3.7244,3.7709,3.8028,3.8188,3.8202,3.8202,3.8202,3.8202,3.8202,3.8202,3.8043,3.7404,3.6301,3.6127,3.5473,3.4414,3.4414,3.4414,3.4414,3.4414,3.4414,3.4414,3.4414,3.4687,3.5088,3.4601,3.4414,3.4414,3.4563,3.5001,3.5479,3.5479,3.5802,3.6213,3.6213,3.6134,3.5929,3.5689,3.5477,3.5249,3.4827,3.3991,3.3195,3.292,3.2061,3.122,3.1102,3.1014,3.0955,3.0955,3.0762,3.0598,3.0598,3.0401,3.0249,3.0312,3.0312,3.0221,2.987,0.0,0.0,2.7894,2.6889,2.6041,2.5769,2.5673,2.5786,2.6019,2.5702,2.573,0.0,2.5966,2.6132,2.6942,2.7011,2.7364,2.8074,2.8817,2.8947,0.0,0.0,0.0,0.0,0.0,0.0,0.0,0.0,0.0,0.0,0.0,0.0,0.0,0.0,0.0,0.0,0.0,0.0,0.0,0.0,0.0,0.0,3.8335,3.8739,3.8076,3.7594,3.7142,3.6675,3.626,3.6076,3.6294,3.6556,3.7011,3.7651,3.826,3.8427,3.8104,3.8389,3.8427,3.8066,3.8179,3.8202,3.8202,3.7955,3.7317,3.6301,3.604,3.5525,3.4735,3.4787,3.4953,0.0,3.5219,3.5252,3.5252,3.5252,3.5482,0.0,0.0,0.0,0.0,0.0,3.5866,3.6291,3.6291,3.6554,3.695,3.695,3.6859,3.6783,3.6585,3.6199,3.5722,3.5293,3.441,3.3527,3.334,3.2627,3.1977,3.1977,3.1709,3.1437,3.1437,3.1102,3.0791,3.0791,0.0,0.0,3.0323,3.0176,3.0129,3.0283,2.9406,2.8652,0.0,2.7713,2.6975,2.6433,2.6472,2.6676,2.7073,2.6706,0.0,0.0,0.0,2.7157,2.7836,2.8109,0.0,0.0,0.0,0.0,0.0,0.0,0.0,0.0,3.2492,3.2599,0.0,0.0,0.0,0.0,0.0,0.0,0.0,0.0,0.0,0.0,0.0,0.0,0.0,0.0,0.0,0.0,3.9524,3.9924,4.0506,3.9252,3.8185,3.7879,3.7293,3.7093,3.756,3.7524,3.7732,3.8422,3.8934,3.8907,3.8217,0.0,0.0,0.0,0.0,3.8427,3.8427,3.7813,3.7171,3.6464,3.5872,3.5486,3.5285,3.54,3.5737,3.6227,3.6337,3.6415,3.6446,3.6446,3.6554,3.6661,3.585,3.6009,3.6676,3.6783,3.6888,0.0,0.0,0.0,0.0,3.7354,3.7429,3.7501,3.7501,3.6954,3.6203,3.5712,3.4995,3.4292,3.3862,3.3477,3.3182,3.3182,3.2621,3.2043,3.2043,3.1637,3.1292,3.1292,3.1175,3.088,3.0188,2.9726,2.9608,3.0068,2.9247,0.0,2.8424,2.793,2.7335,2.6609,0.0,0.0,2.7575,2.7422,2.768,2.8469,2.8484,2.8612,2.8995,2.9637,3.0324,3.0982,3.272,3.3728,3.3955,3.5829,3.6843,3.6914,3.397,3.3331,0.0,0.0,0.0,0.0,0.0,0.0,0.0,0.0,0.0,0.0,0.0,0.0,0.0,0.0,0.0,4.0062,4.0658,4.0873,4.0486,4.0233,3.9638,3.8359,3.7835,3.7666,3.7732,3.8114,3.8662,3.9439,3.9803,3.9955,3.9909,3.9819,0.0,3.9743,3.9778,3.9814,3.9814,3.9098,3.8348,3.7598,0.0,0.0,3.5753,3.5785,3.6008,3.6353,3.6384,3.6523,3.6722,3.6722,3.7054,3.7515,3.6813,3.6722,3.6995,3.7025,3.7456,3.8007,3.8007,3.8379,3.8871,3.8871,3.8535,3.8137,3.8137,3.7256,0.0,3.6172,3.5208,3.4214,3.4115,3.3667,3.3182,3.3182,3.3077,3.2944,3.2944,3.2648,3.2388,3.2388,3.1738,3.1119,3.0982,3.0309,2.9624,2.9102,2.8362,2.7884,2.7857,2.7333,2.691,2.6767,2.6645,2.7081,2.8362,2.7847,2.8021,2.9276,2.9693,3.0382,3.1539,3.2179,3.2989,3.4034,3.4928,3.548,3.564,3.6573,3.695,3.6842,3.6452,3.6686,0.0,0.0,0.0,0.0,0.0,0.0,0.0,0.0,0.0,0.0,0.0,3.8246,3.9219,0.0,4.0842,4.1364,4.1425,4.1293,4.0945,4.0652,4.0083,3.8925,3.8662,3.8497,3.8418,3.8822,3.9266,3.9675,4.0333,4.0619,4.0263,4.0466,4.0481,4.0154,4.0239,4.0309,4.0309,3.9349,3.8639,3.8236,3.7288,3.6816,3.6753,3.6828,3.7086,3.7501,3.756,3.7677,3.7822,3.7863,3.8108,3.8395,3.8137,3.8051,3.8067,3.8169,3.8467,3.8799,3.8799,3.9023,3.9299,3.9299,3.8996,3.8596,3.8335,3.747,3.654,3.6222,3.5376,3.4535,3.4535,3.4286,3.4036,3.4036,3.385,3.3646,3.3646,3.3034,3.2479,3.24,3.1758,3.1062,3.0592,3.0149,2.9769,2.9529,2.9027,2.8715,2.8875,2.87,2.8397,2.7976,2.8125,2.856,2.9295,2.9502,2.9934,3.0699,3.1112,3.1736,3.2716,3.3547,3.4384,3.5223,3.6263,3.6904,3.7106,3.7805,3.8153,3.8165,3.8402,3.8282,0.0,0.0,0.0,0.0,0.0,0.0,0.0,0.0,3.7914,3.904,3.9597,3.998,4.0354,4.1061,4.1794,4.2377,4.208,4.1683,4.1402,4.0917,4.0238,3.9398,3.9299,3.9245,3.9077,3.9447,3.9759,3.9887,4.0817,4.1103,4.0625,4.1178,4.1227,4.0607,4.0792,4.0831,4.0658,3.9559,3.892,3.8747,3.7635,3.7354,3.7751,3.7867,3.8169,3.8667,3.8832,3.8887,3.8914,3.8996,3.905,3.9077,3.9245,3.9202,3.9094,3.9245,3.9299,3.9299,3.9299,3.9299,3.9299,3.9299,3.9076,3.8764,3.8325,3.7522,3.6603,3.615,3.5462,3.4899,3.4899,3.4899,3.4899,3.4899,3.457,3.425,3.425,3.3491,3.275,3.2522,3.1965,3.1246,3.0386,3.0108,3.0014,2.9973,2.9667,2.9527,2.9782,2.992,2.973,2.91,2.9552,3.0005,3.0287,3.1287,3.199,3.2201,3.2542,3.3051,3.3817,3.4814,3.566,3.6308,3.7272,3.7927,3.8196,3.8766,3.9136,3.9285,3.9549,3.9071,3.8981,3.8877,3.935,3.9947,3.9617,3.9353,0.0,0.0,4.0339,3.9959,4.1018,4.1634,4.0574,4.1475,4.2377,4.2331,4.2809,4.271,4.1395,4.1148,4.0644,3.9437,3.9299,3.9299,3.9272,3.9737,4.0336,4.0976,4.13,4.172,4.2285,4.2302,4.2302,4.2317,4.2523,4.2326,4.1648,4.0867,4.0094,3.9304,3.856,3.8262,3.8307,3.8335,3.8488,3.8805,3.9094,3.9245,3.9245,3.9272,3.9272,3.9272,3.9299,3.9299,3.9272,3.9299,3.9299,3.9299,3.9299,3.9299,3.9299,3.9299,3.8841,3.8285,3.8219,3.7209,3.6084,3.6025,3.5462,3.4899,3.4899,3.4899,3.4899,3.4899,3.4851,3.4811,3.4811,3.4697,3.4449,3.3892,3.3204,3.2503,3.1865,3.122,3.0351,2.9077,2.8818,2.8802,2.8856,2.8872,2.8841,2.8747,2.9226,3.0045,3.1306,3.2129,3.2768,3.3209,3.3874,3.4825,3.6076,3.6875,3.7791,3.8864,3.8331,3.8209,3.8553,3.8502,3.8502,3.8535,3.9211,3.9494,4.0683,4.0901,4.1132,4.1413,4.1274,4.1283,4.2185,4.1778,4.1301,4.1527,4.1835,4.2057,4.1928,4.2732,4.346,0.0,4.3731,4.3269,4.1555,4.1243,4.0743,3.9437,3.9299,3.9299,3.9299,3.9798,4.0384,4.1025,4.1447,4.1934,4.257,4.2539,4.2539,4.2602,4.2665,4.2598,4.229,4.1349,4.0691,4.0339,3.9378,3.892,3.892,3.892,3.8985,3.9094,3.9245,3.9299,3.9299,3.9299,3.9299,3.9299,3.9299,3.9299,3.9299,3.9299,3.9299,3.9299,3.9299,3.9299,3.9232,3.8791,3.8408,3.7942,3.7159,3.6439,3.5811,3.5455,3.5131,3.4899,3.4899,3.4899,3.4899,3.4899,3.4899,3.4899,3.4899,3.4615,3.428,3.3941,3.3339,3.2801,3.2452,3.2567,3.2481,3.1887,3.1056,3.0739,3.1355,3.1444,3.1373,3.123,3.1526,3.1926,3.2385,3.3469,3.4228,3.4426,3.5285,3.6224,3.7212,3.7689,3.8213,3.8757,3.811,3.782,3.7962,3.7895,3.8062,3.8428,3.9073,3.9511,4.1966,4.2308,4.2308,4.2308,4.2308,4.2448,4.3036,4.2605,4.2128,4.2329,4.2387,4.25,4.2745,4.3567,4.4268,4.4465,4.4558,4.4016,4.2383,4.1761,4.1039,3.9944,3.9548,3.9379,3.9405,3.9681,4.0198,4.0938,4.1344,4.1878,4.2554,4.2665,4.2665,4.2665,4.258,4.2431,4.2236,4.1314,4.0738,4.0524,3.9704,3.9299,3.9299,3.9299,3.9299,3.9299,3.9299,3.9299,3.9299,3.9299,3.9299,3.9299,3.9325,3.9369,3.9352,3.9432,3.9405,3.9299,3.9299,3.9352,3.9289,3.8531,3.8124,3.7725,3.6546,3.5989,3.5634,3.5214,3.5095,3.5095,3.5095,3.5095,3.5095,3.5095,3.5095,3.5095,3.5095,3.4718,3.4307,3.4028,3.3645,3.3233,3.2907,3.3373,3.3868,3.3978,3.3295,3.2957,3.3488,3.3353,3.321,3.3216,3.358,3.3816,3.3819,3.4993,3.571,3.571,3.6603,3.7291,3.764,3.8027,3.8225,3.8153,3.7535,3.7224,3.7289,3.7289,3.7634,3.8296,3.8922,3.9399,4.229,4.2308,4.2308,4.2308,4.2308,4.2308,4.2323,4.2912,4.3084,4.1816,4.2717,4.343,4.241,4.3458,4.4498,4.452,4.5097,4.5189,4.4147,4.2952,4.1914,4.1204,4.0165,3.9554,0.0,3.9475,3.9781,4.0934,4.102,4.1493,4.2522,4.279,4.2899,4.2899,4.2504,4.1963,4.1239,4.0695,4.005,3.9338,3.9332,3.9299,3.9299,3.9299,3.9299,3.9299,3.9299,3.9299,3.9299,3.9299,3.9299,3.9299,3.9448,3.9501,3.9528,3.9798,3.9642,3.9299,3.9299,3.9468,3.9543,3.8748,3.8178,3.7672,3.6918,3.6168,3.5594,3.5577,3.5577,3.5577,3.5577,3.5577,3.5577,3.5577,3.5577,3.5577,3.5577,3.5453,3.5172,3.458,3.4472,3.4192,3.3316,3.33,3.3544,3.3928,3.4681,3.4894,3.4095,3.3228,3.2994,3.3684,3.4435,3.5124,3.5852,3.6613,3.7044,3.7044,3.7739,3.789,3.7336,3.8019,3.812,3.7535,3.6853,3.6585,3.6702,3.6702,3.7168,3.8037,3.8623,3.9335,4.1359,4.1877,4.2328,4.247,4.2409,4.2512,4.3314,4.3182,4.2936,4.3071,4.3039,4.3087,4.3283,4.3718,4.4285,4.509,4.5346,4.5246,4.4572,4.4064,4.3489,4.2861,4.2082,0.0,0.0,0.0,0.0,4.1184,4.1173,4.1622,4.2725,4.2868,4.2688,4.2199,4.2045,4.1678,4.1074,4.0478,4.0067,3.9847,3.9477,3.9352,3.9448,3.9537,3.959,3.9599,3.9986,4.0153,4.0102,4.0429,4.0603,4.0698,4.0644,4.0621,4.0621,4.0679,4.0607,4.0446,4.0252,4.0358,4.0431,3.917,3.8651,3.8308,3.7113,3.6599,3.6408,3.6408,3.6408,3.6408,3.6408,3.6408,3.6408,3.6408,3.6408,3.6408,3.6408,3.635,3.6281,3.6061,3.6029,3.5922,3.5622,3.6119,3.6553,3.671,3.626,3.6,3.6298,3.6002,3.5664,3.5431,3.5983,3.6257,3.6025,3.7135,3.7847,3.7847,3.8184,3.8329,3.8104,3.8027,3.7838,3.7512,3.7283,3.7129,3.7027,3.7433,3.7773,3.8094,3.922,3.9847,4.1525,4.2117,4.2532,4.2649,4.257,4.2673,4.3453,4.3105,4.2773,4.3377,4.2815,4.249,4.3382,4.3564,4.403,4.5444,4.5845,4.5925,4.5818,4.534,4.4847,4.4435,4.3668,4.3374,0.0,0.0,0.0,4.2436,4.2255,4.2487,4.3406,4.2988,4.2539,4.2064,4.1599,4.1235,4.1067,4.05,4.0287,4.0464,4.0147,4.0011,4.0103,4.0203,4.0235,4.026,4.0631,4.0756,4.0745,4.1075,4.1238,4.1305,4.13,4.1261,4.1261,4.1291,4.1397,4.1402,4.0943,4.1013,4.1028,3.9518,3.9153,3.8974,3.7501,3.7044,3.7044,3.7044,3.7044,3.7044,3.7044,3.7044,3.7044,3.7044,3.7044,3.7044,3.7044,3.7006,3.6969,3.6969,3.6969,3.6949,3.6872,3.7312,3.7734,3.8053,3.7404,3.6973,3.7217,3.7166,3.6933,3.6463,3.7017,3.7202,3.6711,3.7787,3.8616,3.8894,3.8761,3.871,3.8798,3.822,3.7754,3.7396,3.7379,3.7336,3.7248,3.763,3.7982,3.8302,3.9214,3.9708,4.2611,4.2864,4.2881,4.2822,4.2803,4.2821,4.2822,4.2707,4.265,4.2749,4.2134,4.1828,4.2647,4.305,4.3816,4.548,4.6449,4.7213,4.7779,4.6795,4.5993,0.0,0.0,0.0,0.0,0.0,0.0,4.4666,0.0,4.3941,4.4433,4.3315,4.2605,4.2539,4.1289,4.0822,4.1172,4.07,4.0655,4.111,4.1166,4.1211,4.1211,4.1211,4.1211,4.1211,4.1183,4.1178,4.1161,4.1256,4.1323,4.1345,4.1438,4.1499,4.1521,4.1696,4.1987,4.2136,4.1424,4.1402,4.1417,3.9864,3.9629,3.9651,3.8042,3.756,3.756,3.756,3.756,3.756,3.756,3.756,3.756,3.756,3.756,3.756,3.756,3.7451,3.7379,3.7379,3.7379,3.7323,3.7118,3.6969,3.7177,3.8011,3.8135,3.7849,3.7027,3.6919,3.6919,3.6919,3.7547,3.7965,3.7965,3.8607,3.9343,4.0087,3.9417,3.9038,3.9238,3.8498,3.7819,3.7265,3.7247,3.7285,3.7379,3.7414,3.7861,3.8666,3.8702,3.9111,4.1796,4.241,4.286,4.2992,4.2917,4.2879,4.3178,4.3105,4.2848,4.2449,4.245,4.2304,4.1538,4.285,0.0,4.4894,4.6158,0.0,4.8682,4.8134,0.0,4.8296,0.0,4.6625,4.7217,4.681,0.0,0.0,4.5411,4.4594,4.5121,4.4843,4.4146,4.298,4.262,4.2007,4.1133,4.0984,4.0972,4.111,4.1133,4.1178,4.1286,4.1375,4.142,4.1442,4.1871,4.2056,4.2098,4.2521,4.2752,4.2846,4.2865,4.2827,4.2733,4.2729,4.2729,4.2692,4.25,4.25,4.2326,4.089,4.0492,4.0308,3.8844,3.8401,3.8401,3.8401,3.8401,3.8401,3.8401,3.8401,3.8401,3.8401,3.8401,3.8401,3.8401,3.8385,3.8334,3.8334,3.8334,3.8334,3.8267,3.8251,3.8289,3.8507,3.8543,3.8579,3.8709,3.8652,3.8591,3.8591,3.8666,3.873,3.873,3.8884,3.9094,3.9308,3.8734,3.8433,3.849,3.7957,3.772,3.7879,3.7879,3.8016,3.8334,3.8933,3.9351,3.9569,4.0171,4.0398,4.1487,4.2151,4.2685,4.2632,4.2813,4.294,4.2795,4.2686,4.2432,4.1768,4.1555,4.1358,4.095,4.1972,4.3286,0.0,0.0,0.0,4.9157,4.9362,4.9363,0.0,4.8714,0.0,4.8304,4.7897,4.7772,0.0,4.6583,4.5829,4.6035,4.5533,4.4701,4.3522,4.3131,4.2497,4.1591,4.1789,4.1895,4.1895,4.1955,4.2015,4.2095,4.2157,4.2198,4.2218,0.0,4.2614,4.2634,4.3012,4.3215,4.3323,4.3323,4.3269,4.3196,4.3123,4.303,4.2901,4.2901,4.2901,4.2666,4.1267,4.0825,4.0565,3.9137,3.8707,3.8707,3.8707,3.8707,3.8707,3.8707,3.8707,3.8707,3.8707,3.8707,3.8707,3.8707,3.8707,3.8707,3.8707,3.8707,3.8707,3.8707,3.8707,3.8707,3.8707,3.8707,3.8812,3.9049,3.9031,3.8976,3.8976,3.8903,3.8884,3.8884,3.8884,3.9027,3.9386,3.878,3.8582,3.8924,3.8345,3.8135,3.8368,3.8368,3.8483,3.8707,3.9148,3.9368,3.9386,3.9845,3.9916,4.1526,4.2009,4.2393,4.2001,4.2428,4.2793,4.2209,4.1955,4.1681,4.1084,4.0374,4.0015,4.0551,4.1071,4.2107,4.4254,0.0,4.7718,4.9481,5.027,5.0417,4.9811,4.9646,4.9262,4.8379,4.8151,4.8032,4.8032,4.7591,4.7252,4.7022,4.5868,4.4852,4.4058,4.3218,4.2622,4.2297,4.2711,4.2919,4.2901,4.303,4.3068,4.3068,4.3068,4.3068,4.3067,0.0,0.0,4.2901,4.3049,4.3123,4.3196,4.3196,4.3178,4.3178,4.3105,4.303,4.2901,4.2901,4.2901,4.2666,4.1267,4.084,4.0613,3.9135,3.8707,3.8707,3.8707,3.8692,3.8673,3.8673,3.8658,3.8658,3.8658,3.8658,3.8658,3.8658,3.8658,3.8658,3.8658,3.8658,3.8658,3.8658,3.8658,3.8658,3.8658,3.8658,3.8658,3.8658,3.8673,3.8707,3.8707,3.8707,3.8707,3.8707,3.8707,3.9001,3.9698,3.9093,3.9019,3.9698,3.9074,3.8707,3.8707,3.8707,3.8707,3.8707,3.8817,3.8854,3.8854,3.8854,3.8854,4.1654,4.1829,4.1795,4.1487,4.1538,4.1778,4.2361,4.1783,0.0,4.1351,4.0974,4.0458,3.9979,4.1601,4.3357,4.4437,4.6012,4.7882,5.0112,5.0065,4.9956,0.0,4.9936,4.9262,4.8379,0.0,0.0,0.0,0.0,4.7891,4.7575,4.6834,4.5735,4.429,4.3498,4.3009,4.2787,4.2975,4.3012,4.2901,4.2919,4.2938,4.2938,4.2938,4.2938,4.2938,0.0,0.0,4.2901,4.3049,4.3104,4.3105,4.3178,4.3178,4.3123,4.3104,4.303,4.2901,4.2901,4.2901,4.2666,4.1267,4.0808,4.055,3.9137,3.8707,3.8707,3.8707,3.8624,3.8525,3.8525,3.8478,3.8449,3.8449,3.8449,3.8449,3.8449,3.8449,3.8449,3.8449,3.8449,3.8449,3.8449,3.8449,3.8449,3.8449,3.8449,3.8449,3.8449,3.8611,3.8707,3.8707,3.8707,3.8707,3.8707,3.8707,3.8762,3.8909,3.8781,3.8762,3.8909,3.8781,3.8707,3.8707,3.8707,3.8707,3.8707,3.9368,3.968,3.968,3.968,3.968,4.087,4.1061,4.1329,4.1507,4.1514,4.1738,4.2615,0.0,0.0,4.1092,4.1063,4.088,4.0058,4.1415,4.2958,4.3833,4.5352,4.7276,4.9733,5.0158,5.0488,5.1236,5.069,4.9865,0.0,0.0,0.0,0.0,0.0,4.7927,4.7847,4.682,4.5657,4.4379,4.367,4.3214,4.3068,4.3123,4.3123,4.305,4.305,4.305,4.2994,4.2994,4.2975,4.2901,4.2901,0.0,4.2901,4.2975,4.303,4.3104,4.3123,4.3141,4.3104,4.3104,4.303,4.2901,4.2901,4.2901,4.2739,4.1705,4.1102,4.0606,3.9534,3.8972,3.8707,3.8707,3.8609,3.851,3.851,3.8446,3.8399,3.8399,3.8399,3.8399,3.8399,3.8399,3.8399,3.8399,3.8399,3.8399,3.8399,3.8399,3.8399,3.8399,3.8399,3.8399,3.8399,3.8481,3.8562,3.8593,3.8609,3.8609,3.8609,3.8609,3.8593,3.8546,3.8578,3.8609,3.8609,3.8658,3.8658,3.8609,3.8609,3.8578,3.8546,3.893,3.9129,3.9129,3.9129,3.9145,4.0146,4.0358,4.0919,4.15,4.1485,4.1584,4.2605,4.2079,0.0,4.1004,4.1101,4.1123,4.0759,4.1537,4.2547,4.3555,4.4948,4.6783,4.9204,5.0288,5.1077,0.0,5.1259,0.0,4.9486,0.0,0.0,0.0,0.0,0.0,4.7478,4.6208,4.5058,4.4162,4.3615,4.3287,4.3123,4.316,4.316,4.3123,4.3123,4.3105,4.3049,4.3049,4.2994,4.2901,4.2901,0.0,0.0,4.2901,4.2957,4.3049,4.3049,4.3105,4.316,4.316,4.3142,4.3105,4.3105,4.3105,4.3032,4.2502,4.1737,4.0863,4.0044,3.9426,3.8989,3.8862,3.8743,3.8646,3.8646,3.8585,3.8538,3.8538,3.8538,3.8538,3.8538,3.8535,3.8551,3.8551,3.8566,3.8566,3.8566,3.8566,3.8566,3.8566,3.8566,3.8566,3.8566,3.8731,3.8799,3.8691,3.8554,3.8478,3.8478,3.8478,3.8462,3.8399,3.8446,3.8478,3.8478,3.8593,3.8609,3.8478,3.851,3.8494,3.8415,3.8629,3.872,3.872,3.8903,3.9054,4.0205,4.0263,4.0481,4.1032,4.0617,4.0473,4.1997,0.0,4.0083,4.1713,4.131,4.1082,4.24,4.2801,4.3323,4.4561,4.566,4.7052,4.9125,5.027,5.1079,5.1575,0.0,0.0,0.0,0.0,0.0,0.0,0.0,0.0,0.0,4.4906,4.4069,4.325,4.3233,4.3123,4.292,4.3049,4.3049,4.2938,4.2938,4.292,4.2919,4.2919,4.2901,4.2901,0.0,0.0,0.0,4.2901,4.2919,4.2919,4.2919,4.3105,4.3371,4.3371,4.3575,4.3802,4.3802,4.3802,4.3799,4.3743,4.2849,4.1576,4.0404,4.0013,3.9867,3.9388,3.9192,3.9142,3.9142,3.9031,3.8938,3.8938,3.8938,3.8938,3.8938,3.899,3.9044,3.9044,3.9085,3.9125,3.9125,3.9125,3.9125,3.9125,3.9125,3.9125,3.9125,3.9755,3.9955,3.9298,3.8744,3.8415,3.8415,3.8415,3.8399,3.8399,3.8399,3.8415,3.8415,3.8478,3.8478,3.8415,3.8578,3.8609,3.8494,3.9357,3.9756,3.9774,4.051,4.1055,4.0253,4.0597,4.114,4.1878,4.1787,4.1963,4.3605,4.2974,4.2252,4.3007,4.3058,4.2967,4.3072,4.3326,4.3896,4.4971,4.493,4.5825,4.8804,4.9028,4.975,5.2045,5.1269,0.0,0.0,0.0,0.0,0.0,0.0,0.0,0.0,4.5443,4.4489,4.3215,4.3196,4.316,4.3087,4.3123,4.3123,4.3087,4.3087,4.3178,4.332,4.332,4.3389,4.349,0.0,0.0,0.0,4.349,4.349,4.349,4.349,4.3574,4.3705,4.3705,4.3786,4.3896,4.3896,4.3896,4.3896,4.3896,4.355,4.2945,4.2057,4.1475,4.0984,4.0275,4.0005,3.9834,3.9373,3.9212,3.9188,3.9188,3.9188,3.9188,3.9188,3.9213,3.9226,3.9226,3.9233,3.9264,3.9264,3.9264,3.9264,3.9264,3.9708,4.0039,4.0039,4.0783,4.119,4.091,4.0155,3.9466,3.8975,3.8938,3.8924,3.8882,3.891,3.8938,3.8938,3.9085,3.9368,3.9775,3.9946,4.0197,4.0552,4.0919,4.111,4.111,4.1432,4.1713,4.0311,4.0826,4.1607,4.2474,4.2642,4.2979,4.4395,4.4034,4.3479,4.3726,4.4026,4.4139,4.3766,4.4172,4.4778,4.5342,4.5258,4.6033,4.87,4.8725,4.9435,0.0,0.0,0.0,0.0,0.0,0.0,0.0,0.0,0.0,0.0,4.5805,4.482,4.3463,4.3408,4.3408,4.3408,4.3408,4.3408,4.3408,4.3408,4.3511,4.3693,4.3693,4.3775,4.3896,0.0,0.0,0.0,4.3896,4.3896,4.3896,4.3896,4.3958,4.405,4.405,4.411,4.4198,4.4198,4.4227,4.4256,4.4256,4.4266,4.4229,4.3753,4.2975,4.2104,4.1444,4.0998,4.0547,3.9779,3.958,3.9566,3.9566,3.9566,3.9566,3.9566,3.9588,3.96,3.96,3.9611,3.9622,3.9622,3.9622,3.9622,3.9622,4.0382,4.0923,4.0923,4.1888,4.2468,4.2214,4.1824,4.1161,4.0146,4.0071,4.0045,4.0006,4.0045,4.0071,4.0071,4.022,4.0551,4.1048,4.1189,4.1477,4.1933,4.2184,4.2316,4.234,4.2586,4.2527,4.0425,4.0787,4.1607,4.2474,4.2642,4.2805,4.3635,4.313,4.2739,4.3542,4.3701,4.3947,4.4743,4.5596,4.6088,4.5838,4.7241,4.8495,4.8947,4.9849,5.0671,0.0,0.0,0.0,0.0,0.0,0.0,0.0,0.0,0.0,0.0,4.5588,4.4719,4.3915,4.3896,4.3896,4.3896,4.3896,4.3896,4.3896,4.3896,4.3896,4.3896,4.3896,4.3896,0.0,0.0,0.0,0.0,4.3896,4.3896,4.3896,4.3896,4.411,4.4383,4.4383,4.4597,4.4883,4.4883,4.4967,4.5091,4.5091,4.5181,4.5277,4.5277,4.4349,4.3214,4.2865,4.2144,4.1294,4.0425,4.0196,4.0196,4.0196,4.0196,4.0196,4.0196,4.0243,4.0279,4.0279,4.0334,4.0379,4.0379,4.0379,4.0379,4.0379,4.1135,4.1691,4.1691,4.3082,4.3762,4.2975,4.358,4.3474,4.1996,4.187,4.187,4.187,4.187,4.187,4.187,4.1952,4.1952,4.1901,4.202,4.2064,4.1996,4.2863,4.3322,4.3402,4.4203,4.3789,4.1032,4.1146,4.1535,4.236,4.297,4.3426,4.368,4.3933,4.4218,4.4459,4.4516,4.4592,4.4857,4.5122,4.6026,4.8245,4.8456,4.9031,5.1039,0.0,0.0,5.1992,5.185,0.0,0.0,0.0,0.0,0.0,0.0,0.0,0.0,4.6285,4.5256,4.3931,4.3896,4.3896,4.3896,4.3896,4.3896,4.3896,4.3896,4.402,4.4242,4.4242,0.0,0.0,0.0,0.0,0.0,4.4584,4.4584,4.4584,4.4584,4.4655,4.4732,4.4732,4.4864,4.5045,4.5045,4.5125,4.5243,4.5243,4.5275,4.5317,4.5351,4.5038,4.4519,4.3824,4.3063,4.2392,4.2115,4.2111,4.2174,4.2174,4.2174,4.2174,4.2174,4.2202,4.2219,4.2219,4.1747,4.1555,4.214,4.1756,4.1555,4.2159,4.2947,4.3485,4.3485,4.4437,4.5033,4.4781,4.4975,4.4451,4.2725,4.2571,4.2571,4.2571,4.2571,4.2571,4.2571,4.2689,4.3005,4.3529,4.3637,4.3934,4.445,4.4787,4.495,4.4977,4.4724,4.4344,4.1865,4.1759,4.1947,4.278,4.335,4.3777,4.408,4.4781,4.5388,4.5388,4.5634,4.5843,4.5843,4.6108,4.703,4.9142,4.9437,5.01,5.2148,0.0,0.0,5.1969,0.0,0.0,0.0,0.0,0.0,0.0,0.0,0.0,0.0,0.0,4.5274,4.4322,4.4289,4.4289,4.4289,4.4289,4.4289,4.4289,4.4289,4.4388,4.4597,4.4597,0.0,0.0,0.0,0.0,0.0,4.4895,4.4919,4.4986,4.4986,4.5022,4.5057,4.5057,4.5095,4.517,4.517,4.5256,4.535,4.535,4.537,4.5419,4.5467,4.5458,4.5237,4.4356,4.3789,4.3354,4.3047,4.3043,4.3104,4.3104,4.3104,4.3104,4.3104,4.3104,4.3104,4.3104,4.2662,4.247,4.3008,4.2643,4.247,4.3028,4.3778,4.4297,4.4297,4.5056,4.5594,4.5594,4.5594,4.5145,4.4016,4.3911,4.3911,4.3911,4.3911,4.3911,4.3911,4.4002,4.4288,4.4781,4.484,4.5098,4.5594,4.5673,4.5703,4.5688,4.5242,4.4891,0.0,4.2631,4.2712,4.3586,4.3748,4.391,4.4724,4.5577,0.0,4.6259,4.6885,4.7416,4.7472,4.8111,4.8731,4.9099,5.0356,0.0,0.0,5.248,0.0,0.0,0.0,0.0,0.0,0.0,0.0,0.0,0.0,0.0,0.0,0.0,4.4895,4.4895,4.4895,4.4895,4.4895,4.4895,4.4895,4.4895,4.4895,4.4895,4.4895,4.4895,0.0,0.0,0.0,0.0,0.0,4.4907,4.4979,4.5114,4.5114,4.5192,4.5307,4.5307,4.5307,4.5317,4.5317,4.5351,4.5419,4.5419,4.5504,4.5594,4.5594,4.5594,4.5441,4.4624,4.4393,4.422,4.347,4.3278,4.3278,4.3278,4.3278,4.3278,4.3278,4.3278,4.3278,4.3278,4.3239,4.3201,4.3278,4.3239,4.3201,4.3278,4.3912,4.4393,4.4393,4.5094,4.5594,4.5594,4.5594,4.5594,4.5594,4.5594,4.5594,4.5594,4.5594,4.5594,4.5594,4.5594,4.5594,4.5594,4.5594,4.5594,4.5594,4.566,4.57,4.57,4.5706,4.529,4.4419,0.0,4.2701,4.3528,4.3713,4.391,0.0,4.5577,4.6373,4.698,4.7264,4.7605,4.8281,4.8016,4.8774,5.2016,5.2305,5.2419,5.33,0.0,0.0,5.3897,0.0,0.0,0.0,0.0,0.0,0.0,0.0,0.0,0.0,0.0,4.4895,4.4895,4.4895,4.4895,4.4895,4.4895,4.4895,4.4895,4.4895,4.4895,4.4895,4.4895,0.0,0.0,0.0,0.0,4.5038,4.5038,4.5136,4.5246,4.5246,4.5275,4.5307,4.5307,4.5339,4.539,4.539,4.5457,4.5559,4.5559,4.5577,4.5594,4.5594,4.5594,4.5556,4.5344,4.5287,4.5248,4.5056,4.5017,4.5017,4.5017,4.5017,4.5017,4.5017,4.5017,4.5017,4.5017,4.447,4.422,4.4902,4.4451,4.4239,4.4921,4.5171,4.5287,4.5287,4.5479,4.5594,4.5594,4.5594,4.5594,4.5594,4.5594,4.5594,4.5594,4.5594,4.5594,4.5594,4.5594,4.5594,4.5594,4.5594,4.5594,4.5594,4.5673,4.5698,4.5698,4.5082,4.4672,4.4895,4.4583,4.444,4.524,4.5164,4.5221,4.6404,4.6721,4.698,4.7813,4.83,4.8698,4.9172,4.9178,5.0025,5.2708,5.3058,0.0,0.0,0.0,5.3613,0.0,0.0,0.0,0.0,0.0,0.0,0.0,0.0,0.0,0.0,0.0,4.4895,4.4895,4.4895,4.4895,4.4895,4.4895,4.4895,4.4895,4.4895,4.4895,4.4895,4.4895,0.0,0.0,0.0,0.0,4.5192,4.5192,4.5256,4.536,4.536,4.539,4.5429,4.5429,4.5467,4.5495,4.5495,4.555,4.5594,4.5594,4.5594,4.5594,4.5594,4.5635,4.5676,4.562,4.5594,4.5594,4.5594,4.5594,4.5594,4.5594,4.5594,4.5594,4.5594,4.5594,4.5594,4.5594,4.5229,4.5056,4.5518,4.521,4.5056,4.5537,4.5594,4.5594,4.5594,4.5594,4.5594,4.5594,4.5594,4.5594,4.5594,4.5671,4.566,4.5594,4.5594,4.5594,4.5594,4.5594,4.5594,4.5594,4.5594,4.5594,4.5594,4.5676,4.5701,4.5682,4.5245,4.5021,4.5266,4.608,4.6953,4.7225,4.6978,4.6985,4.8283,4.7979,4.7643,4.8528,4.9134,4.9646,5.0052,5.0727,0.0,0.0,0.0,0.0,5.5022,5.4813,5.4092,0.0,0.0,0.0,0.0,0.0,0.0,0.0,0.0,0.0,0.0,0.0,0.0,4.4919,4.4919,4.4919,4.4919,4.4907,4.4895,4.4895,4.4919,4.4919,4.4919,4.4943,0.0,0.0,0.0,0.0,4.5328,4.5328,4.5351,4.5429,4.5429,4.5522,4.5637,4.5637,4.5635,4.566,4.566,4.566,4.566,4.566,4.566,4.566,4.566,4.5734,4.5794,4.568,4.566,4.566,4.566,4.566,4.566,4.566,4.566,4.566,4.566,4.566,4.566,4.566,4.566,4.566,4.566,4.566,4.566,4.566,4.566,4.566,4.566,4.566,4.566,4.566,4.566,4.566,4.566,4.5745,4.5766,4.5648,4.566,4.566,4.566,4.566,4.566,4.566,4.566,4.566,4.566,4.5687,4.5714,4.5714,4.5711,4.5692,4.6874,4.8332,4.8928,4.6904,4.7365,4.8219,4.7726,4.7504,4.7643,4.8528,4.8225,4.8478,5.076,5.1193,5.1968,0.0,0.0,5.5142,0.0,0.0,0.0,0.0,0.0,0.0,0.0,0.0,0.0,0.0,0.0,0.0,0.0,0.0,0.0,4.5068,4.508,4.508,4.508,4.4955,4.4895,4.4895,4.5022,4.508,4.5061,4.5181,4.5254,0.0,0.0,4.53,4.5381,4.5381,4.5457,4.5568,4.5568,4.5651,4.5771,4.5771,4.5809,4.585,4.585,4.585,4.585,4.585,4.585,4.585,4.585,4.5861,4.5872,4.5856,4.585,4.585,4.585,4.585,4.585,4.585,4.585,4.585,4.585,4.585,4.585,4.585,4.585,4.585,4.585,4.585,4.585,4.585,4.585,4.585,4.585,4.585,4.585,4.585,4.585,4.585,4.585,4.5867,4.5886,4.5869,4.585,4.585,4.585,4.585,4.585,4.585,4.585,4.585,4.585,4.5815,4.5778,4.5778,4.5738,4.5673,4.6261,4.7988,4.9301,4.8105,4.9415,5.0988,5.1014,5.005,4.9332,5.0061,4.9889,5.0007,5.1262,0.0,5.3334,5.5044,0.0,0.0,0.0,0.0,0.0,0.0,0.0,0.0,0.0,0.0,0.0,0.0,0.0,0.0,0.0,0.0,0.0,0.0,4.5243,4.5265,4.5265,4.5276,4.5226,4.5125,4.5181,4.5203,4.5213,4.5303,4.539,4.5464,0.0,4.5619,4.5675,4.5675,4.5715,4.5763,4.5763,4.5803,4.5859,4.5859,4.5875,4.5899,4.5899,4.5899,4.5899,4.5899,4.5899,4.5899,4.5899,4.5954,4.6007,4.6,4.5964,4.5899,4.5899,4.5899,4.5899,4.5899,4.5899,4.5899,4.5899,4.5899,4.5899,4.5899,4.5899,4.5899,4.5899,4.5899,4.5899,4.5899,4.5899,4.5899,4.5899,4.5899,4.5899,4.5899,4.5899,4.5899,4.5899,4.5973,4.5983,4.5905,4.5899,4.5899,4.5899,4.5899,4.5899,4.5899,4.5899,4.5899,4.5899,4.5869,4.6092,4.6557,4.6513,4.648,4.5944,4.7588,4.9249,4.9431,5.1069,5.2866,5.3671,5.2338,5.1152,5.2031,5.1734,5.1528,5.2194,5.353,0.0,5.5748,5.6138,0.0,0.0,0.0,0.0,0.0,0.0,0.0,0.0,0.0,0.0,0.0,0.0,0.0,0.0,0.0,0.0,0.0,4.5477,4.5486,4.5486,4.5612,4.5565,4.5371,4.54,4.541,4.5419,4.5492,4.5576,4.5682,4.577,4.5842,4.5899,4.5899,4.5899,4.5899,4.5899,4.592,4.5945,4.5987,4.5992,4.5992,4.5992,4.5992,4.5992,4.5992,4.5992,4.5992,4.5992,4.6064,4.6141,4.6157,4.6057,4.5978,4.5992,4.5992,4.5992,4.5992,4.5992,4.5992,4.5992,4.5992,4.5992,4.5992,4.5992,4.5992,4.5992,4.5992,4.5992,4.5992,4.5992,4.5992,4.5992,4.5992,4.5992,4.5992,4.5992,4.5992,4.5992,4.6095,4.6102,4.6,4.5992,4.5992,4.5992,4.5992,4.6089,4.6288,4.6307,4.6385,4.658,4.6557,4.6897,4.7558,4.7514,4.7503,4.7576,4.8586,4.9382,5.0134,5.1109,5.2115,5.2964,5.2472,5.2282,5.3944,5.239,5.1528,5.402,5.5196,5.6057,5.6947,0.0,0.0,0.0,0.0,0.0,0.0,0.0,0.0,0.0,0.0,0.0,0.0,0.0,0.0,0.0,0.0,0.0,0.0,0.0,4.577,4.577,4.5836,4.5788,4.5578,4.5705,4.5757,4.5777,4.583,4.5878,4.5883,4.5894,4.5899,4.5899,4.5899,4.5899,4.5899,4.5899,4.5983,4.6102,4.6236,4.6273,4.6273,4.6273,4.6273,4.6273,4.6273,4.6273,4.6273,4.6273,4.6286,4.6282,4.6294,4.6221,4.6184,4.6267,4.6273,4.6273,4.6273,4.6273,4.6273,4.6273,4.6273,4.6273,4.6273,4.6273,4.6273,4.6273,4.6273,4.6273,4.6273,4.6273,4.6273,4.6273,4.6273,4.6273,4.6273,4.6273,4.6273,4.6273,4.6275,4.6275,4.6273,4.6273,4.6273,4.6273,4.6273,4.6642,4.7461,4.7481,4.7852,4.8595,4.8526,4.8534,4.8588,4.8468,4.8407,4.6595,4.8147,4.9533,4.9332,5.0775,5.2568,5.3807,5.3984,5.4348,5.5978,5.5099,5.4375,5.5385,0.0,5.4869,5.5744,0.0,0.0,0.0,0.0,0.0,0.0,0.0,0.0,0.0,0.0,0.0,0.0,0.0,0.0,0.0,0.0,0.0,0.0,0.0,4.5987,4.5987,4.6098,4.6112,4.6025,4.5925,4.5867,4.5872,4.5959,4.6013,4.6037,4.6105,4.6144,4.6144,4.6144,4.6144,4.6144,4.6144,4.6178,4.6238,4.6275,4.63,4.63,4.63,4.63,4.63,4.63,4.63,4.63,4.63,4.6294,4.6308,4.6298,4.6271,4.6262,4.6296,4.6296,4.6292,4.63,4.63,4.63,4.63,4.63,4.63,4.63,4.63,4.63,4.63,4.63,4.63,4.63,4.63,4.63,4.63,4.63,4.63,4.63,4.63,4.63,4.63,4.6807,4.712,4.712,4.6593,4.6534,4.71,4.712,4.751,4.833,4.8349,4.8505,4.8798,4.8762,4.9047,4.9572,4.9513,4.9481,4.5956,4.7667,4.9315,4.8732,5.0588,5.2928,5.4479,5.498,5.5587,5.718,5.7049,5.6383,5.5585,0.0,0.0,0.0,0.0,0.0,0.0,0.0,0.0,0.0,0.0,0.0,0.0,0.0,0.0,0.0,0.0,0.0,0.0,0.0,0.0,0.0,0.0,0.0,4.6153,4.6247,4.63,4.63,4.6109,4.6037,4.6037,4.6112,4.6153,4.6173,4.6269,4.63,4.63,4.63,4.63,4.63,4.63,4.63,4.63,4.63,4.63,4.63,4.63,4.63,4.63,4.63,4.63,4.63,4.63,4.6294,4.6308,4.6298,4.6271,4.6264,4.6298,4.6296,4.6292,4.6298,4.63,4.63,4.63,4.63,4.63,4.63,4.63,4.63,4.63,4.63,4.63,4.6296,4.6296,4.6296,4.6296,4.6296,4.6296,4.63,4.6532,4.6687,4.671,4.749,4.7978,4.7978,4.7412,4.7354,4.7959,4.7978,4.8369,4.9189,4.9208,4.9345,4.9618,4.9618,4.993,5.0514,5.0514,5.0514,4.6099,4.7377,4.8688,4.8623,5.0616,5.3038,5.4697,5.5132,5.5661,5.733,5.7714,5.6996,5.4477,5.4635,0.0,0.0,0.0,0.0,0.0,0.0,0.0,0.0,0.0,0.0,0.0,0.0,0.0,0.0,0.0,0.0,0.0,0.0,0.0,0.0,0.0,0.0,4.63,4.63,4.63,4.63,4.63,4.63,4.63,4.63,4.63,4.63,4.63,4.63,4.63,4.63,4.63,4.63,4.63,4.63,4.63,4.63,4.63,4.63,4.63,4.63,4.63,4.63,4.63,4.63,4.63,4.6294,4.6308,4.6298,4.6247,4.6214,4.6277,4.63,4.63,4.63,4.63,4.63,4.63,4.63,4.63,4.63,4.63,4.63,4.63,4.63,4.6298,4.6306,4.6303,4.6303,4.6303,4.6303,4.6308,4.6319,4.7032,4.7537,4.7606,4.8349,4.8818,4.8818,4.8818,4.8818,4.8818,4.8818,4.9228,5.0104,5.0104,5.0534,5.1394,5.1394,5.1394,5.1394,5.1394,5.1394,4.6279,4.7371,4.8701,4.8686,5.0683,5.2648,5.2517,5.3897,5.5334,5.5847,5.5513,5.4899,5.4148,0.0,0.0,0.0,0.0,0.0,0.0,0.0,0.0,0.0,0.0,0.0,0.0,0.0,0.0,0.0,0.0,0.0,0.0,0.0,0.0,0.0,0.0,0.0,4.63,4.63,4.63,4.63,4.63,4.63,4.63,4.63,4.63,4.63,4.63,4.63,4.63,4.63,4.63,4.63,4.63,4.63,4.63,4.63,4.63,4.63,4.63,4.63,4.63,4.63,4.63,4.63,4.63,4.6298,4.6296,4.63,4.6296,4.6273,4.63,4.63,4.63,4.63,4.63,4.63,4.63,4.63,4.63,4.63,4.63,4.63,4.63,4.63,4.63,4.6296,4.631,4.6282,4.6233,4.6767,4.7142,4.7147,4.7912,4.8424,4.8447,4.9228,4.9714,4.9714,5.0282,5.036,4.9733,4.9714,5.0124,5.1004,5.1004,5.1141,5.1394,5.1394,5.1394,5.1394,5.1394,5.1394,4.7638,4.8713,4.9942,5.0635,5.2024,5.2999,5.2128,5.3094,5.4293,5.4624,5.4326,5.3882,5.3543,5.2611,0.0,0.0,0.0,0.0,0.0,0.0,0.0,0.0,0.0,0.0,0.0,0.0,0.0,0.0,0.0,0.0,0.0,0.0,0.0,0.0,0.0,0.0,4.63,4.63,4.63,4.63,4.63,4.63,4.63,4.63,4.63,4.63,4.63,4.63,4.63,4.63,4.63,4.63,4.63,4.63,4.63,4.63,4.63,4.63,4.63,4.63,4.63,4.63,4.63,4.63,4.63,4.63,4.63,4.63,4.63,4.63,4.63,4.63,4.63,4.6296,4.6294,4.6294,4.6269,4.6269,4.6271,4.6294,4.6567,4.6782,4.6807,4.7081,4.7295,4.729,4.7283,4.7277,4.7231,4.7684,4.8023,4.8027,4.879,4.9321,4.9325,5.0126,5.0612,5.0612,5.1102,5.116,5.0631,5.0612,5.0867,5.1394,5.1394,5.1394,5.1394,5.1394,5.1394,5.1394,5.1394,5.1394,4.9547,5.0552,5.1608,5.342,5.3872,5.3679,5.2879,5.2642,5.2796,5.3523,0.0,5.3504,5.2626,0.0,0.0,0.0,0.0,0.0,0.0,0.0,0.0,0.0,0.0,0.0,0.0,0.0,0.0,0.0,0.0,0.0,0.0,0.0,0.0,0.0,0.0,0.0,4.63,4.63,4.63,0.0,4.63,4.63,4.63,4.63,4.63,4.63,4.63,4.63,4.63,4.63,4.63,4.63,4.63,4.63,4.63,4.63,4.63,4.63,4.63,4.63,4.63,4.63,4.63,4.63,4.63,4.63,4.63,4.63,4.63,4.63,4.63,4.6298,4.6296,4.6284,4.6303,4.6282,4.6211,4.6206,4.6211,4.6282,4.6947,4.7515,4.7584,4.825,4.8794,4.8803,4.8803,4.8801,4.8801,4.886,4.8923,4.8913,4.9705,5.0211,5.0221,5.0945,5.1394,5.1394,5.1394,5.1394,5.1394,5.1394,5.1394,5.1394,5.1394,5.1394,5.1394,5.1394,5.1394,5.1394,5.1394,5.1394,4.8984,4.9224,4.9939,5.2318,5.2932,5.2924,5.2749,5.2161,5.1734,5.1898,5.1943,5.1689,0.0,0.0,0.0,0.0,0.0,0.0,0.0,0.0,0.0,0.0,0.0,0.0,0.0,0.0,0.0,0.0,0.0,0.0,0.0,0.0,0.0,0.0,0.0,4.63,4.63,4.63,4.63,0.0,4.63,4.63,4.63,4.63,4.63,4.63,4.63,4.63,4.63,4.63,4.63,4.63,4.63,4.63,4.63,4.63,4.63,4.63,4.63,4.63,4.63,4.63,4.63,4.63,4.63,4.63,4.63,4.63,4.6294,4.6308,4.6308,4.6262,4.6211,4.6217,4.625,4.6282,4.6211,4.6206,4.6209,4.6211,4.6901,4.7494,4.7515,4.8226,4.8794,4.8803,4.8803,4.8799,4.8808,4.9401,4.9816,4.9818,5.0605,5.1119,5.1121,5.1297,5.1394,5.1394,5.1394,5.1394,5.1394,5.1394,5.1394,5.1394,5.1394,5.1394,5.1394,5.1394,5.1394,5.1394,5.1394,5.1394,4.9776,5.0602,5.1564,5.2889,5.3254,5.2955,5.1736,5.143,5.1163,5.0324,5.0486,0.0,0.0,0.0,0.0,0.0,0.0,0.0,0.0,0.0,0.0,0.0,0.0,0.0,0.0,0.0,0.0,0.0,0.0,0.0,0.0,0.0,0.0,0.0,4.63,4.63,4.63,4.63,4.63,4.63,4.6296,4.6271,4.6247,4.6296,4.63,4.63,4.63,4.63,4.63,4.63,4.63,4.63,4.63,4.63,4.63,4.63,4.63,4.63,4.63,4.63,4.63,4.6294,4.6294,4.6292,4.6267,4.6247,4.6247,4.6247,4.6243,4.6258,4.6258,4.6233,4.6301,4.6716,4.6861,4.6866,4.6833,4.7145,4.7446,4.7432,4.8147,4.8743,4.8743,4.9464,5.0047,5.0042,5.004,5.0037,5.0032,5.0447,5.0723,5.0723,5.114,5.1396,5.1396,5.1396,5.1396,5.1396,5.1396,5.1401,5.1406,5.1406,5.141,5.1394,5.1394,5.1394,5.1394,5.1394,5.1394,5.1394,5.1394,5.1394,5.0446,5.2242,5.3646,5.349,5.3559,5.3039,5.0625,5.0638,5.0664,4.8932,4.9273,0.0,0.0,0.0,0.0,0.0,0.0,0.0,0.0,0.0,0.0,0.0,0.0,0.0,0.0,0.0,0.0,0.0,0.0,0.0,0.0,0.0,4.6298,4.6298,4.6296,4.6277,4.6277,4.6277,4.6277,4.6277,4.6286,4.6258,4.6209,4.6269,4.6277,4.6277,4.6277,4.6277,4.6277,4.6277,4.6277,4.6277,4.6277,4.6296,4.6298,4.6296,4.6296,4.6298,4.6296,4.6277,4.6275,4.6284,4.6282,4.626,4.6211,4.6209,4.6211,4.6209,4.6206,4.6206,4.6203,4.6201,4.641,4.7294,4.7603,4.7717,4.7719,4.8295,4.8795,4.8808,4.9505,5.014,5.0299,5.0915,5.1394,5.1394,5.1394,5.1394,5.1394,5.1394,5.1394,5.1394,5.1394,5.1394,5.1394,5.1394,5.1394,5.1394,5.1394,5.14,5.1394,5.1403,5.1392,5.14,5.1396,5.1394,5.1394,5.1394,5.1394,5.1394,5.14,5.1402,4.8869,5.0915,5.259,5.185,5.2201,5.2282,5.0447,0.0,4.971,0.0,0.0,0.0,0.0,0.0,0.0,0.0,0.0,0.0,0.0,0.0,0.0,0.0,0.0,0.0,0.0,0.0,0.0,0.0,0.0,0.0,0.0,4.6292,4.6306,4.6306,4.6238,4.6214,4.6214,4.6214,4.6214,4.6214,4.6211,4.6209,4.6206,4.6211,4.6214,4.6214,4.6214,4.6214,4.6214,4.6214,4.6214,4.6214,4.6214,4.6258,4.6286,4.6236,4.6258,4.6286,4.6236,4.6214,4.6211,4.6211,4.6209,4.6209,4.6209,4.6236,4.626,4.6211,4.6206,4.6203,4.6192,4.6196,4.6417,4.7294,4.807,4.8635,4.8631,4.8713,4.8791,4.8794,4.9491,5.0345,5.1102,5.1316,5.1394,5.1394,5.1394,5.1394,5.1394,5.1394,5.1394,5.1394,5.1394,5.1394,5.1394,5.1394,5.1394,5.1394,5.1394,5.1394,5.1397,5.14,5.1395,5.1396,5.1403,5.1394,5.1394,5.1394,5.1394,5.1394,5.1397,5.1403,4.9702,5.0683,5.1327,5.1888,5.1944,5.1549,5.0291,4.9644,4.8982,4.7754,0.0,0.0,0.0,0.0,0.0,0.0,0.0,0.0,0.0,0.0,0.0,0.0,0.0,0.0,0.0,0.0,0.0,0.0,0.0,0.0,4.6243,4.6238,4.6236,4.6236,4.6211,4.6206,4.6206,4.6206,4.6203,4.6195,4.6195,4.6189,4.6203,4.6203,4.6192,4.6206,4.6206,4.6206,4.6206,4.6206,4.6206,4.6206,4.6206,4.6211,4.6236,4.6209,4.6236,4.6303,4.6279,4.6262,4.6267,4.626,4.6258,4.6255,4.6209,4.6211,4.6233,4.6217,4.6201,4.6203,4.6209,4.62,4.6427,4.7285,4.8164,4.8925,4.9374,4.9858,5.0212,5.0241,5.0534,5.0885,5.1281,5.1333,5.1346,5.1346,5.1346,5.1346,5.1346,5.1346,5.1346,5.1346,5.1346,5.1343,5.1338,5.134,5.1332,5.1333,5.1334,5.1335,5.1339,5.1346,5.1367,5.1406,5.1406,5.1405,5.1405,5.1405,5.1405,5.1405,5.1406,5.1405,4.9707,5.0211,5.0377,5.1623,5.1781,5.1333,5.0249,0.0,4.8861,0.0,0.0,0.0,0.0,0.0,0.0,0.0,0.0,0.0,0.0,0.0,0.0,0.0,0.0,0.0,0.0,0.0,0.0,0.0,0.0,0.0,4.6206,4.6203,4.6201,4.6201,4.6198,4.6195,4.6195,4.6195,4.6189,4.6196,4.6196,4.6193,4.6206,4.6206,4.6203,4.6206,4.6203,4.6201,4.6203,4.6206,4.6206,4.6203,4.6206,4.6209,4.6211,4.6209,4.6236,4.6303,4.6282,4.6267,4.6273,4.6264,4.626,4.6279,4.6211,4.6209,4.6228,4.6195,4.637,4.6522,4.6531,4.6674,4.7053,4.7932,4.8631,4.9325,5.0142,5.0846,5.1318,5.1364,5.1321,5.1296,5.1296,5.1305,5.1297,5.1297,5.1297,5.1297,5.1297,5.1297,5.1297,5.1297,5.1297,5.1296,5.1309,5.1291,5.13,5.1308,5.1308,5.1308,5.1308,5.1305,5.132,5.1374,5.1366,5.1389,5.1398,5.1398,5.1398,5.1398,5.1374,5.1372,4.7207,4.8828,5.0039,5.0117,5.1347,5.2089,0.0,0.0,0.0,0.0,0.0,0.0,0.0,0.0,0.0,0.0,0.0,0.0,0.0,0.0,0.0,0.0,0.0,0.0,0.0,0.0,0.0,0.0,0.0,0.0,4.6206,4.6195,4.6206,4.6206,4.6209,4.6199,4.6199,4.6199,4.6199,4.6199,4.6199,4.6209,4.6203,4.6203,4.6192,4.6206,4.6192,4.6206,4.6206,4.6201,4.6198,4.6206,4.6201,4.6236,4.6282,4.6211,4.6236,4.6284,4.6233,4.6209,4.6209,4.6209,4.6209,4.6209,4.6206,4.6236,4.6282,4.6231,4.6794,4.7439,4.7436,4.8008,4.8781,4.9661,4.9896,5.0171,5.1035,5.1269,5.1308,5.1308,5.1308,5.1308,5.1308,5.1308,5.1308,5.1308,5.1308,5.1308,5.1308,5.1308,5.1308,5.1308,5.1308,5.1308,5.1308,5.1308,5.1308,5.1308,5.1308,5.1308,5.1308,5.1296,5.1299,5.1318,5.1307,5.1339,5.1398,5.1398,5.1398,5.1398,5.1338,5.1303,4.7025,4.7939,4.8656,4.9734,5.0074,5.0273,5.0723,5.0,4.9297,0.0,0.0,0.0,0.0,0.0,0.0,0.0,0.0,0.0,0.0,0.0,0.0,0.0,0.0,0.0,0.0,0.0,0.0,0.0,0.0,0.0,4.6196,4.619,4.6206,4.6206,4.6203,4.6199,4.6199,4.6199,4.6203,4.6196,4.6196,4.6206,4.6206,4.6206,4.618,4.6133,4.6132,4.6158,4.6201,4.6206,4.6203,4.6201,4.6206,4.6211,4.6233,4.6209,4.6214,4.6239,4.6218,4.654,4.6972,4.6972,4.6972,4.707,4.7636,4.742,4.7127,4.7656,4.8024,4.827,4.8275,4.8484,4.8922,4.9784,4.9994,5.0221,5.1057,5.1267,5.1308,5.1308,5.1308,5.1308,5.1308,5.1308,5.1308,5.1308,5.1308,5.1308,5.1308,5.1308,5.1308,5.1308,5.1308,5.1307,5.1297,5.1295,5.1306,5.1299,5.1296,5.1296,5.1296,5.1294,5.1301,5.1301,5.1296,5.13,5.1339,5.1339,5.1339,5.1339,5.1301,5.1294,4.6667,4.7278,4.785,4.9243,4.9204,4.9239,5.0923,0.0,4.9439,0.0,0.0,0.0,0.0,0.0,0.0,0.0,0.0,0.0,0.0,0.0,0.0,0.0,0.0,0.0,0.0,0.0,0.0,0.0,0.0,0.0,4.6199,4.6199,4.6199,4.6199,4.6199,4.6209,4.6192,4.6192,4.6189,4.6199,4.6199,4.6196,4.6172,4.6172,4.615,4.6132,4.6132,4.6151,4.6175,4.6188,4.6189,4.6175,4.6186,4.6191,4.6199,4.6199,4.6365,4.66,4.66,4.7139,4.7838,4.7838,4.7838,4.7936,4.8519,4.8305,4.7957,4.8546,4.8884,4.9101,4.9108,4.931,4.9699,5.0268,5.0392,5.0555,5.1079,5.1229,5.1277,5.1277,5.1277,5.1277,5.1277,5.1277,5.1277,5.1277,5.1263,5.1267,5.1267,5.1289,5.1289,5.1267,5.1291,5.1304,5.1308,5.1308,5.1294,5.1304,5.13,5.13,5.13,5.13,5.13,5.13,5.13,5.13,5.13,5.13,5.13,5.13,5.13,5.13,0.0,0.0,0.0,0.0,0.0,0.0,5.0872,0.0,0.0,0.0,0.0,0.0,0.0,0.0,0.0,0.0,0.0,0.0,0.0,0.0,0.0,0.0,0.0,0.0,0.0,0.0,0.0,0.0,0.0,4.6204,4.6209,4.6203,4.6203,4.6203,4.6203,4.6195,4.6204,4.6204,4.6202,4.6209,4.6209,4.6166,4.6096,4.6096,4.6131,4.6199,4.6199,4.6165,4.6096,4.617,4.6169,4.6118,4.617,4.6205,4.6202,4.6202,4.6708,4.7409,4.7409,4.7992,4.8747,4.8747,4.8747,4.8747,4.8767,4.8767,4.8747,4.8767,4.9334,4.9944,4.9944,5.0578,5.1202,5.1202,5.1202,5.1202,5.1202,5.1208,5.1206,5.1206,5.1206,5.1206,5.1206,5.1206,5.1206,5.1206,5.1211,5.1211,5.1211,5.1254,5.1278,5.1215,5.1252,5.1292,5.1291,5.1308,5.13,5.13,5.13,5.13,5.13,5.13,5.13,5.13,5.13,5.13,5.13,5.13,5.13,5.13,5.13,5.13,4.5965,0.0,0.0,0.0,0.0,0.0,0.0,0.0,0.0,0.0,0.0,0.0,0.0,0.0,0.0,0.0,0.0,0.0,0.0,0.0,0.0,0.0,0.0,0.0,0.0,0.0,0.0,0.0,4.6193,4.6197,4.6201,4.6202,4.6202,4.6202,4.6202,4.6205,4.6209,4.6209,4.6191,4.6209,4.6209,4.6158,4.6092,4.6092,4.6079,4.6063,4.6063,4.6048,4.6045,4.6152,4.6192,4.6168,4.6194,4.6191,4.6202,4.6202,4.6709,4.7408,4.7408,4.8347,4.9561,4.9561,4.9561,4.9698,5.0315,5.0063,4.9698,5.0335,5.0665,5.0839,5.0839,5.1011,5.1202,5.1202,5.1202,5.1202,5.1202,5.1194,5.1192,5.12,5.1205,5.1205,5.1205,5.1205,5.1205,5.1205,5.1196,5.1211,5.1211,5.1215,5.1244,5.1278,5.1291,5.13,5.1292,5.1304,5.1304,5.13,5.1308,5.1304,5.13,5.13,5.13,5.13,5.13,5.13,5.13,5.13,5.13,5.13,5.13,5.13,4.606,4.6209,0.0,0.0,0.0,0.0,0.0,4.8748,0.0,0.0,0.0,0.0,0.0,0.0,0.0,0.0,0.0,0.0,0.0,0.0,0.0,0.0,0.0,0.0,0.0,0.0,0.0,0.0,4.6208,4.6203,4.6191,4.6191,4.6191,4.6191,4.6191,4.6191,4.6206,4.6206,4.62,4.6199,4.6199,4.6153,4.6099,4.6099,4.6059,4.6002,4.6002,4.6002,4.6012,4.608,4.6118,4.6122,4.6147,4.6142,4.6157,4.6524,4.7194,4.7951,4.8321,4.9313,5.0445,5.0445,5.0445,5.0542,5.1047,5.0853,5.0542,5.1066,5.1202,5.1202,5.1202,5.1202,5.1202,5.1202,5.1202,5.1202,5.12,5.12,5.1206,5.1211,5.1192,5.1192,5.1192,5.1192,5.1192,5.1192,5.1203,5.1194,5.1194,5.1205,5.1084,5.0748,5.0733,5.0765,5.0765,5.0754,5.091,5.1233,5.128,5.1304,5.1308,5.1296,5.13,5.13,5.13,5.13,5.13,5.13,5.13,5.13,5.13,5.13,4.624,4.6264,0.0,0.0,0.0,0.0,4.807,4.844,4.8966,0.0,0.0,0.0,0.0,0.0,0.0,0.0,0.0,0.0,0.0,0.0,0.0,0.0,0.0,0.0,0.0,4.7618,4.7177,4.6407,4.6255,4.6191,4.6209,4.6209,4.6209,4.6209,4.6209,4.6204,4.6197,4.6197,4.6209,4.6193,4.6193,4.6169,4.6105,4.6105,4.6066,4.6002,4.6002,4.606,4.6138,4.6138,4.6138,4.6143,4.6095,4.6176,4.6371,4.7045,4.792,4.8852,4.9635,5.0464,5.1202,5.1202,5.1202,5.1202,5.1202,5.1202,5.1202,5.1202,5.1208,5.1208,5.1189,5.1189,5.1189,5.1189,5.1189,5.12,5.1208,5.1194,5.1208,5.1194,5.1208,5.1202,5.1202,5.1202,5.1202,5.1202,5.1125,5.1053,5.1053,5.0984,5.063,4.9858,4.9824,4.9861,4.9877,4.9854,5.015,5.0889,5.0984,5.1016,5.1023,5.102,5.1028,5.1028,5.1028,5.1028,5.1028,5.1203,5.13,5.13,5.13,5.13,4.6398,4.6702,4.6904,4.5493,0.0,0.0,4.5901,4.6196,4.6999,0.0,0.0,0.0,0.0,0.0,0.0,0.0,0.0,0.0,0.0,0.0,0.0,0.0,0.0,0.0,0.0,4.828,4.743,4.7268,4.6609,4.6206,4.6198,4.6198,4.6198,4.6198,4.6198,4.6192,4.62,4.62,4.619,4.6192,4.6192,4.615,4.6108,4.6108,4.6066,4.6002,4.6002,4.6404,4.7045,4.7045,4.7045,4.6987,4.6294,4.6872,4.8036,4.7492,4.8308,4.9673,4.9848,5.0464,5.1202,5.1202,5.1202,5.1202,5.1202,5.1202,5.1208,5.1192,5.1203,5.1208,5.121,5.1196,5.1196,5.1196,5.1196,5.1196,5.1201,5.1201,5.1201,5.1196,5.1194,5.1192,5.1202,5.1202,5.1202,5.1202,5.0598,5.0148,5.0148,4.9591,4.9124,4.8948,4.8942,4.8974,4.9029,4.8978,4.9036,4.9243,4.9231,4.9231,4.929,4.9294,4.9294,4.9294,4.9294,4.9294,4.9294,5.0638,5.13,5.13,5.13,5.13,4.6355,4.6543,4.6549,4.5228,0.0,0.0,0.0,0.0,4.7216,4.8522,0.0,0.0,0.0,0.0,0.0,0.0,0.0,0.0,0.0,0.0,0.0,0.0,0.0,0.0,0.0,4.9235,4.8573,4.8183,4.7704,4.7447,4.7447,4.7455,4.7241,4.6801,4.6804,4.6613,4.6199,4.6199,4.6199,4.6199,4.6199,4.6158,4.6098,4.6098,4.6051,4.6021,4.6463,4.6909,4.7331,4.7764,4.8191,4.8502,4.7648,4.7822,4.8599,4.8599,4.9143,4.9965,5.0406,5.0833,5.1202,5.1202,5.1194,5.1206,5.1206,5.1197,5.1189,5.1205,5.119,5.1196,5.1206,5.1211,5.1211,5.1211,5.1211,5.1211,5.1244,5.0918,5.0607,5.0607,5.0247,5.0092,5.0528,5.0231,4.9939,4.9939,4.9586,4.9304,4.9304,4.8944,4.853,4.8104,4.805,4.8074,4.8105,4.8109,4.8296,4.8716,4.8744,4.8748,4.8752,4.8783,4.8806,4.8806,4.8806,4.8806,4.8806,4.9644,5.0053,5.0053,5.0053,5.0053,0.0,0.0,0.0,0.0,0.0,4.6064,0.0,0.0,0.0,4.8639,0.0,0.0,0.0,0.0,0.0,0.0,0.0,0.0,0.0,0.0,0.0,0.0,0.0,0.0,0.0,5.0096,4.9664,4.8865,4.8744,4.8693,4.8693,4.869,4.8374,4.7672,4.7481,4.7085,4.6445,4.6274,4.6199,4.6199,4.6199,4.6181,4.6122,4.6117,4.6168,4.6318,4.7017,4.7498,4.7867,4.8577,4.9379,5.0054,4.9013,4.8813,4.9163,4.9693,5.0004,5.0256,5.0956,5.1189,5.1194,5.1194,5.1197,5.12,5.12,5.1196,5.1191,5.1215,5.1215,5.122,5.1225,5.1225,5.1225,5.1225,5.1225,5.1191,5.1077,5.0497,4.9952,4.9796,4.9071,4.8751,4.96,4.9163,4.8696,4.8696,4.8564,4.8452,4.8452,4.8321,4.794,4.7237,4.7163,4.7163,4.7163,4.7217,4.7525,4.8189,4.8261,4.8273,4.8214,4.8273,4.83,4.83,4.83,4.83,4.83,4.83,4.8475,4.8806,4.8806,4.8806,0.0,0.0,0.0,0.0,4.5033,0.0,0.0,0.0,4.5964,4.4629,0.0,0.0,0.0,0.0,0.0,0.0,0.0,0.0,0.0,0.0,0.0,0.0,0.0,0.0,0.0,0.0,0.0,4.8865,4.8744,4.8693,4.8693,4.869,4.8662,4.8564,4.7804,4.7369,4.7256,4.6559,4.6199,4.6199,4.6199,4.6208,4.6185,4.6126,4.6527,4.7257,4.7359,4.8234,4.9614,4.9776,5.033,5.0884,4.9243,4.9532,5.0814,5.0159,5.0386,5.1072,5.1178,5.1208,5.1208,5.119,5.1201,5.1206,5.1206,5.1206,5.1215,5.1278,5.1287,5.1291,5.1288,5.1292,5.1292,5.1292,5.1292,5.1078,5.0303,5.0069,4.9796,4.9075,4.8238,4.7895,4.8705,4.8774,4.8696,4.8696,4.8033,4.7559,4.7559,4.6937,4.6445,4.6348,4.6348,4.6348,4.6348,4.6332,4.6391,4.6484,4.6488,4.6488,4.6484,4.6488,4.6511,4.6511,4.6511,4.6511,4.6511,4.6511,4.7287,4.8806,4.8806,4.8806,0.0,0.0,0.0,0.0,0.0,0.0,0.0,0.0,4.4769,0.0,0.0,0.0,0.0,0.0,0.0,0.0,0.0,0.0,0.0,0.0,0.0,0.0,0.0,0.0,0.0,0.0,0.0,0.0,0.0,5.0154,5.0154,5.0155,4.9925,4.9416,4.909,4.868,4.8167,4.7354,4.6956,4.6956,4.6433,4.6208,4.6209,4.6177,4.6608,4.7422,4.7928,4.8842,4.9995,5.0491,5.0899,5.1128,5.0388,5.0553,5.1155,5.0786,5.0883,5.1194,5.121,5.1196,5.122,5.1244,5.1254,5.1254,5.1267,5.1252,5.1256,5.1284,5.1308,5.1308,5.1296,5.13,5.13,5.13,5.13,5.1203,5.0833,4.9995,4.9196,4.8865,4.7696,4.6855,4.7186,4.7241,4.7241,4.7241,4.6937,4.6707,4.6707,4.6406,4.6199,4.6199,4.6199,4.6199,4.6199,4.6199,4.6199,4.6199,4.6199,4.6199,4.6199,4.6199,4.6199,4.6199,4.6199,4.6199,4.6199,4.6199,4.6589,4.7287,4.7287,4.7287,4.6091,0.0,0.0,0.0,0.0,0.0,0.0,0.0,0.0,0.0,0.0,0.0,0.0,0.0,0.0,0.0,0.0,0.0,0.0,0.0,0.0,0.0,0.0,0.0,0.0,0.0,0.0,0.0,0.0,0.0,5.122,5.1214,5.0906,5.0286,5.0097,4.9692,4.9063,4.825,4.7735,4.7482,4.6862,4.6426,4.6216,4.6423,4.6975,4.7795,4.8671,4.9547,5.0407,5.0996,5.123,5.123,5.123,5.123,5.123,5.1215,5.1211,5.1191,5.122,5.1225,5.1234,5.1272,5.13,5.13,5.1296,5.13,5.13,5.13,5.13,5.13,5.13,5.13,5.13,5.13,5.13,5.1222,5.1008,4.9995,4.8982,4.8534,4.7423,4.6472,4.6238,4.6394,4.6569,4.6569,4.6569,4.6647,4.6881,4.6706,4.6647,4.6901,4.6706,4.6569,4.6569,4.6336,4.6199,4.6199,4.6199,4.6199,4.6199,4.6199,4.6199,4.6199,4.6199,4.6199,4.6199,4.6199,4.6199,4.6199,4.6199,4.6199,0.0,0.0,0.0,4.4075,0.0,0.0,0.0,0.0,4.4637,0.0,0.0,0.0,0.0,0.0,0.0,0.0,0.0,0.0,0.0,0.0,0.0,0.0,0.0,0.0,0.0,0.0,0.0,0.0,0.0,0.0,5.1306,5.1244,5.1186,5.1167,5.0397,4.9982,4.9967,4.9169,4.8319,4.7501,4.7462,4.7014,4.6235,4.7015,4.784,4.8712,4.9573,5.0449,5.1252,5.1288,5.1296,5.1296,5.1296,5.1296,5.1292,5.1225,5.1211,5.1211,5.1278,5.13,5.1296,5.1296,5.13,5.13,5.13,5.13,5.13,5.13,5.13,5.13,5.13,5.13,5.13,5.13,5.13,5.1067,5.0229,4.9995,4.9488,4.7852,4.7501,4.7189,4.6355,4.6897,4.7462,4.7462,4.7462,4.7754,4.8612,4.7988,4.7774,4.8631,4.7949,4.7462,4.7462,4.6686,4.6199,4.6199,4.6199,4.6199,4.6199,4.6199,4.6199,4.6199,4.6199,4.6199,4.6199,4.6199,4.6199,4.6199,4.6199,4.6199,0.0,0.0,4.5198,4.4607,0.0,0.0,0.0,0.0,0.0,0.0,0.0,0.0,0.0,0.0,0.0,0.0,0.0,0.0,0.0,0.0,0.0,0.0,0.0,0.0,0.0,0.0,0.0,0.0,0.0,0.0,0.0,5.1244,5.1211,5.1211,5.0981,5.0863,5.0863,5.0026,4.9177,4.8358,4.7774,4.7033,4.6219,4.6484,4.7085,4.7957,4.8834,4.9676,5.0474,5.1063,5.13,5.13,5.13,5.13,5.1296,5.1265,5.1276,5.128,5.1288,5.1292,5.13,5.13,5.13,5.13,5.13,5.13,5.13,5.13,5.13,5.13,5.13,5.13,5.13,5.13,5.13,5.1222,5.093,5.0404,4.9664,4.8573,4.7891,4.7209,4.6355,4.7404,4.8164,4.7579,4.7988,4.8475,4.8768,4.8534,4.8475,4.8768,4.8027,4.7501,4.7501,4.6706,4.6199,4.6199,4.6199,4.6199,4.6199,4.6199,4.6199,4.6199,4.6199,4.6199,4.6199,4.6199,4.6199,4.6199,4.6199,4.6199,4.4286,4.4444,0.0,0.0,4.3799,0.0,4.3215,0.0,0.0,0.0,0.0,0.0,0.0,0.0,0.0,0.0,0.0,0.0,0.0,0.0,0.0,0.0,0.0,0.0,0.0,0.0,5.1304,5.13,0.0,0.0,0.0,0.0,5.1234,5.1234,5.1272,5.13,5.13,5.0747,5.0053,4.9216,4.8378,4.7501,4.6667,4.6667,4.6975,4.756,4.8729,4.9527,5.0073,5.095,5.13,5.13,5.13,5.13,5.13,5.13,5.13,5.13,5.13,5.13,5.13,5.13,5.13,5.13,5.13,5.13,5.13,5.13,5.13,5.13,5.13,5.13,5.13,5.13,5.13,5.13,5.13,5.0852,5.0131,4.9021,4.8358,4.7579,4.6394,4.7384,4.8241,4.8008,4.867,4.9235,4.9235,4.9235,4.9118,4.8826,4.83,4.7715,4.7092,4.653,4.6199,4.6199,4.6199,4.6199,4.6199,4.6199,4.6199,4.6199,4.6199,4.6199,4.6199,4.6199,4.6199,4.6199,4.6199,4.6199]}]]